<?xml version="1.0" encoding="UTF-8" standalone="no" ?>
<gpx xmlns="http://www.topografix.com/GPX/1/1" xmlns:xsi="http://www.w3.org/2001/XMLSchema-instance" xsi:schemaLocation="http://www.topografix.com/GPX/1/1 http://www.topografix.com/GPX/1/1/gpx.xsd" version="1.1" creator="VisuGPX - https://www.visugpx.com">
  <metadata>
    <name>CHATEAUVERT LE VALLON SOURN</name>
    <desc><![CDATA[Nous partons du parking situé au niveau de l'écluse entre Correns et Chateauvert en direction du vallon des Baumes (1km de macadam). Puis nous empruntons le chemin des baumes jusqu'à la citerne puis prenons à gauche vers Coste Cuyere, Valauri et Bagatelle où nous rejoignons la route (D45). Nous longeons la route et prenons ensuite le sentier aménagé par le département pour découvrir la grotte des fées et sa plage puis des aires de pic-nique avec une grande plage. Nous arrivons enfin au parking de départ.]]></desc>
  </metadata>
  <trk>
    <name><![CDATA[Tracé actuel: 04 JUIN 2019 09:31]]></name>
    <trkseg>
      <trkpt lat="43.4968" lon="6.0556">
        <ele>132.8</ele>
        <time>2019-06-04T07:31:11Z</time>
      </trkpt>
      <trkpt lat="43.49679" lon="6.05561">
        <ele>132.8</ele>
        <time>2019-06-04T07:31:12Z</time>
      </trkpt>
      <trkpt lat="43.49681" lon="6.05567">
        <ele>132.8</ele>
        <time>2019-06-04T07:31:17Z</time>
      </trkpt>
      <trkpt lat="43.49662" lon="6.05559">
        <ele>132.8</ele>
        <time>2019-06-04T07:31:27Z</time>
      </trkpt>
      <trkpt lat="43.49651" lon="6.05555">
        <ele>132.8</ele>
        <time>2019-06-04T07:31:41Z</time>
      </trkpt>
      <trkpt lat="43.49652" lon="6.05554">
        <ele>132.8</ele>
        <time>2019-06-04T07:31:54Z</time>
      </trkpt>
      <trkpt lat="43.49652" lon="6.05553">
        <ele>132.8</ele>
        <time>2019-06-04T07:32:04Z</time>
      </trkpt>
      <trkpt lat="43.49651" lon="6.05556">
        <ele>132.8</ele>
        <time>2019-06-04T07:32:17Z</time>
      </trkpt>
      <trkpt lat="43.49652" lon="6.05555">
        <ele>132.8</ele>
        <time>2019-06-04T07:32:29Z</time>
      </trkpt>
      <trkpt lat="43.49651" lon="6.05555">
        <ele>132.8</ele>
        <time>2019-06-04T07:32:42Z</time>
      </trkpt>
      <trkpt lat="43.49652" lon="6.05555">
        <ele>132.8</ele>
        <time>2019-06-04T07:32:52Z</time>
      </trkpt>
      <trkpt lat="43.49653" lon="6.05557">
        <ele>135.68</ele>
        <time>2019-06-04T07:32:57Z</time>
      </trkpt>
      <trkpt lat="43.49654" lon="6.05557">
        <ele>140.01</ele>
        <time>2019-06-04T07:33:00Z</time>
      </trkpt>
      <trkpt lat="43.49664" lon="6.05574">
        <ele>143.85</ele>
        <time>2019-06-04T07:33:03Z</time>
      </trkpt>
      <trkpt lat="43.49667" lon="6.05578">
        <ele>147.22</ele>
        <time>2019-06-04T07:33:06Z</time>
      </trkpt>
      <trkpt lat="43.49669" lon="6.0558">
        <ele>150.58</ele>
        <time>2019-06-04T07:33:09Z</time>
      </trkpt>
      <trkpt lat="43.49669" lon="6.05579">
        <ele>151.06</ele>
        <time>2019-06-04T07:33:10Z</time>
      </trkpt>
      <trkpt lat="43.4967" lon="6.05577">
        <ele>152.99</ele>
        <time>2019-06-04T07:33:12Z</time>
      </trkpt>
      <trkpt lat="43.49671" lon="6.05576">
        <ele>156.83</ele>
        <time>2019-06-04T07:33:14Z</time>
      </trkpt>
      <trkpt lat="43.49672" lon="6.05575">
        <ele>151.06</ele>
        <time>2019-06-04T07:33:15Z</time>
      </trkpt>
      <trkpt lat="43.49672" lon="6.05576">
        <ele>161.16</ele>
        <time>2019-06-04T07:33:16Z</time>
      </trkpt>
      <trkpt lat="43.49672" lon="6.05576">
        <ele>159.72</ele>
        <time>2019-06-04T07:33:17Z</time>
      </trkpt>
      <trkpt lat="43.49672" lon="6.05576">
        <ele>158.75</ele>
        <time>2019-06-04T07:33:19Z</time>
      </trkpt>
      <trkpt lat="43.49672" lon="6.05577">
        <ele>161.16</ele>
        <time>2019-06-04T07:33:23Z</time>
      </trkpt>
      <trkpt lat="43.49674" lon="6.0558">
        <ele>163.08</ele>
        <time>2019-06-04T07:33:27Z</time>
      </trkpt>
      <trkpt lat="43.49675" lon="6.05582">
        <ele>165.96</ele>
        <time>2019-06-04T07:33:35Z</time>
      </trkpt>
      <trkpt lat="43.49671" lon="6.05587">
        <ele>168.37</ele>
        <time>2019-06-04T07:33:44Z</time>
      </trkpt>
      <trkpt lat="43.49669" lon="6.05589">
        <ele>168.85</ele>
        <time>2019-06-04T07:33:46Z</time>
      </trkpt>
      <trkpt lat="43.49664" lon="6.05594">
        <ele>170.29</ele>
        <time>2019-06-04T07:33:53Z</time>
      </trkpt>
      <trkpt lat="43.49657" lon="6.05597">
        <ele>170.29</ele>
        <time>2019-06-04T07:34:04Z</time>
      </trkpt>
      <trkpt lat="43.49651" lon="6.05603">
        <ele>170.29</ele>
        <time>2019-06-04T07:34:16Z</time>
      </trkpt>
      <trkpt lat="43.49651" lon="6.05614">
        <ele>172.69</ele>
        <time>2019-06-04T07:34:29Z</time>
      </trkpt>
      <trkpt lat="43.49652" lon="6.05617">
        <ele>172.69</ele>
        <time>2019-06-04T07:34:35Z</time>
      </trkpt>
      <trkpt lat="43.49651" lon="6.05632">
        <ele>172.69</ele>
        <time>2019-06-04T07:34:45Z</time>
      </trkpt>
      <trkpt lat="43.49654" lon="6.05651">
        <ele>172.69</ele>
        <time>2019-06-04T07:34:55Z</time>
      </trkpt>
      <trkpt lat="43.4965" lon="6.05658">
        <ele>172.69</ele>
        <time>2019-06-04T07:35:02Z</time>
      </trkpt>
      <trkpt lat="43.49645" lon="6.05666">
        <ele>172.69</ele>
        <time>2019-06-04T07:35:12Z</time>
      </trkpt>
      <trkpt lat="43.49644" lon="6.05667">
        <ele>172.21</ele>
        <time>2019-06-04T07:35:14Z</time>
      </trkpt>
      <trkpt lat="43.49637" lon="6.05678">
        <ele>172.69</ele>
        <time>2019-06-04T07:35:26Z</time>
      </trkpt>
      <trkpt lat="43.49634" lon="6.05698">
        <ele>172.69</ele>
        <time>2019-06-04T07:35:38Z</time>
      </trkpt>
      <trkpt lat="43.49631" lon="6.05703">
        <ele>172.21</ele>
        <time>2019-06-04T07:35:44Z</time>
      </trkpt>
      <trkpt lat="43.49628" lon="6.05722">
        <ele>172.21</ele>
        <time>2019-06-04T07:35:58Z</time>
      </trkpt>
      <trkpt lat="43.49627" lon="6.05739">
        <ele>172.21</ele>
        <time>2019-06-04T07:36:09Z</time>
      </trkpt>
      <trkpt lat="43.49626" lon="6.05745">
        <ele>172.21</ele>
        <time>2019-06-04T07:36:14Z</time>
      </trkpt>
      <trkpt lat="43.49623" lon="6.05757">
        <ele>172.21</ele>
        <time>2019-06-04T07:36:25Z</time>
      </trkpt>
      <trkpt lat="43.4962" lon="6.05765">
        <ele>172.21</ele>
        <time>2019-06-04T07:36:34Z</time>
      </trkpt>
      <trkpt lat="43.49618" lon="6.05769">
        <ele>172.21</ele>
        <time>2019-06-04T07:36:37Z</time>
      </trkpt>
      <trkpt lat="43.4962" lon="6.05788">
        <ele>171.73</ele>
        <time>2019-06-04T07:36:49Z</time>
      </trkpt>
      <trkpt lat="43.49615" lon="6.05808">
        <ele>171.73</ele>
        <time>2019-06-04T07:37:00Z</time>
      </trkpt>
      <trkpt lat="43.4961" lon="6.05836">
        <ele>172.21</ele>
        <time>2019-06-04T07:37:11Z</time>
      </trkpt>
      <trkpt lat="43.49604" lon="6.05852">
        <ele>171.73</ele>
        <time>2019-06-04T07:37:21Z</time>
      </trkpt>
      <trkpt lat="43.49602" lon="6.05869">
        <ele>172.21</ele>
        <time>2019-06-04T07:37:32Z</time>
      </trkpt>
      <trkpt lat="43.49599" lon="6.05882">
        <ele>172.21</ele>
        <time>2019-06-04T07:37:42Z</time>
      </trkpt>
      <trkpt lat="43.49598" lon="6.05899">
        <ele>172.21</ele>
        <time>2019-06-04T07:37:52Z</time>
      </trkpt>
      <trkpt lat="43.49598" lon="6.05917">
        <ele>172.69</ele>
        <time>2019-06-04T07:38:03Z</time>
      </trkpt>
      <trkpt lat="43.49599" lon="6.05934">
        <ele>172.69</ele>
        <time>2019-06-04T07:38:13Z</time>
      </trkpt>
      <trkpt lat="43.49601" lon="6.05953">
        <ele>173.17</ele>
        <time>2019-06-04T07:38:24Z</time>
      </trkpt>
      <trkpt lat="43.49601" lon="6.05956">
        <ele>172.69</ele>
        <time>2019-06-04T07:38:26Z</time>
      </trkpt>
      <trkpt lat="43.49602" lon="6.05963">
        <ele>173.17</ele>
        <time>2019-06-04T07:38:30Z</time>
      </trkpt>
      <trkpt lat="43.49603" lon="6.0598">
        <ele>173.17</ele>
        <time>2019-06-04T07:38:41Z</time>
      </trkpt>
      <trkpt lat="43.49605" lon="6.05996">
        <ele>173.66</ele>
        <time>2019-06-04T07:38:52Z</time>
      </trkpt>
      <trkpt lat="43.49607" lon="6.06013">
        <ele>174.14</ele>
        <time>2019-06-04T07:39:03Z</time>
      </trkpt>
      <trkpt lat="43.49607" lon="6.06016">
        <ele>174.14</ele>
        <time>2019-06-04T07:39:05Z</time>
      </trkpt>
      <trkpt lat="43.49607" lon="6.06018">
        <ele>174.14</ele>
        <time>2019-06-04T07:39:07Z</time>
      </trkpt>
      <trkpt lat="43.49612" lon="6.06034">
        <ele>174.14</ele>
        <time>2019-06-04T07:39:17Z</time>
      </trkpt>
      <trkpt lat="43.49612" lon="6.06037">
        <ele>174.62</ele>
        <time>2019-06-04T07:39:19Z</time>
      </trkpt>
      <trkpt lat="43.49619" lon="6.06054">
        <ele>174.62</ele>
        <time>2019-06-04T07:39:31Z</time>
      </trkpt>
      <trkpt lat="43.49624" lon="6.06063">
        <ele>174.62</ele>
        <time>2019-06-04T07:39:38Z</time>
      </trkpt>
      <trkpt lat="43.49627" lon="6.06069">
        <ele>174.62</ele>
        <time>2019-06-04T07:39:45Z</time>
      </trkpt>
      <trkpt lat="43.49634" lon="6.06086">
        <ele>175.1</ele>
        <time>2019-06-04T07:39:56Z</time>
      </trkpt>
      <trkpt lat="43.49637" lon="6.06095">
        <ele>175.58</ele>
        <time>2019-06-04T07:40:04Z</time>
      </trkpt>
      <trkpt lat="43.4964" lon="6.06111">
        <ele>176.06</ele>
        <time>2019-06-04T07:40:14Z</time>
      </trkpt>
      <trkpt lat="43.49643" lon="6.06126">
        <ele>176.06</ele>
        <time>2019-06-04T07:40:25Z</time>
      </trkpt>
      <trkpt lat="43.49646" lon="6.06141">
        <ele>176.54</ele>
        <time>2019-06-04T07:40:36Z</time>
      </trkpt>
      <trkpt lat="43.4965" lon="6.06153">
        <ele>177.02</ele>
        <time>2019-06-04T07:40:47Z</time>
      </trkpt>
      <trkpt lat="43.49653" lon="6.06167">
        <ele>177.98</ele>
        <time>2019-06-04T07:40:57Z</time>
      </trkpt>
      <trkpt lat="43.49655" lon="6.06177">
        <ele>177.02</ele>
        <time>2019-06-04T07:41:04Z</time>
      </trkpt>
      <trkpt lat="43.49654" lon="6.06182">
        <ele>177.5</ele>
        <time>2019-06-04T07:41:08Z</time>
      </trkpt>
      <trkpt lat="43.49653" lon="6.06195">
        <ele>177.5</ele>
        <time>2019-06-04T07:41:18Z</time>
      </trkpt>
      <trkpt lat="43.49655" lon="6.06205">
        <ele>177.98</ele>
        <time>2019-06-04T07:41:28Z</time>
      </trkpt>
      <trkpt lat="43.49655" lon="6.06218">
        <ele>177.98</ele>
        <time>2019-06-04T07:41:38Z</time>
      </trkpt>
      <trkpt lat="43.49657" lon="6.06231">
        <ele>177.5</ele>
        <time>2019-06-04T07:41:47Z</time>
      </trkpt>
      <trkpt lat="43.49661" lon="6.0625">
        <ele>177.98</ele>
        <time>2019-06-04T07:41:58Z</time>
      </trkpt>
      <trkpt lat="43.49664" lon="6.06267">
        <ele>177.98</ele>
        <time>2019-06-04T07:42:10Z</time>
      </trkpt>
      <trkpt lat="43.49667" lon="6.06287">
        <ele>177.98</ele>
        <time>2019-06-04T07:42:22Z</time>
      </trkpt>
      <trkpt lat="43.49672" lon="6.06297">
        <ele>177.98</ele>
        <time>2019-06-04T07:42:31Z</time>
      </trkpt>
      <trkpt lat="43.49676" lon="6.0631">
        <ele>177.98</ele>
        <time>2019-06-04T07:42:43Z</time>
      </trkpt>
      <trkpt lat="43.49681" lon="6.06326">
        <ele>177.98</ele>
        <time>2019-06-04T07:42:55Z</time>
      </trkpt>
      <trkpt lat="43.49685" lon="6.06338">
        <ele>177.98</ele>
        <time>2019-06-04T07:43:02Z</time>
      </trkpt>
      <trkpt lat="43.49691" lon="6.06354">
        <ele>177.98</ele>
        <time>2019-06-04T07:43:12Z</time>
      </trkpt>
      <trkpt lat="43.49694" lon="6.06361">
        <ele>177.98</ele>
        <time>2019-06-04T07:43:18Z</time>
      </trkpt>
      <trkpt lat="43.49701" lon="6.0638">
        <ele>177.98</ele>
        <time>2019-06-04T07:43:31Z</time>
      </trkpt>
      <trkpt lat="43.49704" lon="6.06388">
        <ele>177.98</ele>
        <time>2019-06-04T07:43:36Z</time>
      </trkpt>
      <trkpt lat="43.49712" lon="6.06409">
        <ele>178.94</ele>
        <time>2019-06-04T07:43:47Z</time>
      </trkpt>
      <trkpt lat="43.49718" lon="6.06423">
        <ele>172.69</ele>
        <time>2019-06-04T07:43:53Z</time>
      </trkpt>
      <trkpt lat="43.49719" lon="6.06425">
        <ele>183.75</ele>
        <time>2019-06-04T07:43:54Z</time>
      </trkpt>
      <trkpt lat="43.4972" lon="6.06427">
        <ele>178.46</ele>
        <time>2019-06-04T07:43:55Z</time>
      </trkpt>
      <trkpt lat="43.4973" lon="6.06447">
        <ele>178.46</ele>
        <time>2019-06-04T07:44:06Z</time>
      </trkpt>
      <trkpt lat="43.49735" lon="6.06462">
        <ele>178.46</ele>
        <time>2019-06-04T07:44:17Z</time>
      </trkpt>
      <trkpt lat="43.49735" lon="6.06462">
        <ele>178.46</ele>
        <time>2019-06-04T07:44:19Z</time>
      </trkpt>
      <trkpt lat="43.49734" lon="6.06465">
        <ele>178.46</ele>
        <time>2019-06-04T07:44:22Z</time>
      </trkpt>
      <trkpt lat="43.49735" lon="6.06487">
        <ele>177.98</ele>
        <time>2019-06-04T07:44:35Z</time>
      </trkpt>
      <trkpt lat="43.49736" lon="6.06507">
        <ele>177.98</ele>
        <time>2019-06-04T07:44:46Z</time>
      </trkpt>
      <trkpt lat="43.49737" lon="6.06521">
        <ele>177.5</ele>
        <time>2019-06-04T07:44:55Z</time>
      </trkpt>
      <trkpt lat="43.49739" lon="6.0654">
        <ele>177.5</ele>
        <time>2019-06-04T07:45:07Z</time>
      </trkpt>
      <trkpt lat="43.4974" lon="6.06555">
        <ele>177.5</ele>
        <time>2019-06-04T07:45:17Z</time>
      </trkpt>
      <trkpt lat="43.49741" lon="6.06566">
        <ele>177.5</ele>
        <time>2019-06-04T07:45:24Z</time>
      </trkpt>
      <trkpt lat="43.49742" lon="6.06581">
        <ele>177.5</ele>
        <time>2019-06-04T07:45:36Z</time>
      </trkpt>
      <trkpt lat="43.49743" lon="6.06592">
        <ele>177.5</ele>
        <time>2019-06-04T07:45:47Z</time>
      </trkpt>
      <trkpt lat="43.49743" lon="6.06599">
        <ele>177.5</ele>
        <time>2019-06-04T07:45:52Z</time>
      </trkpt>
      <trkpt lat="43.49747" lon="6.06618">
        <ele>177.5</ele>
        <time>2019-06-04T07:46:03Z</time>
      </trkpt>
      <trkpt lat="43.4975" lon="6.06633">
        <ele>177.98</ele>
        <time>2019-06-04T07:46:13Z</time>
      </trkpt>
      <trkpt lat="43.49752" lon="6.06638">
        <ele>177.98</ele>
        <time>2019-06-04T07:46:17Z</time>
      </trkpt>
      <trkpt lat="43.49754" lon="6.06655">
        <ele>177.98</ele>
        <time>2019-06-04T07:46:28Z</time>
      </trkpt>
      <trkpt lat="43.49757" lon="6.06674">
        <ele>178.46</ele>
        <time>2019-06-04T07:46:40Z</time>
      </trkpt>
      <trkpt lat="43.49757" lon="6.06679">
        <ele>178.46</ele>
        <time>2019-06-04T07:46:43Z</time>
      </trkpt>
      <trkpt lat="43.49761" lon="6.06686">
        <ele>178.46</ele>
        <time>2019-06-04T07:46:47Z</time>
      </trkpt>
      <trkpt lat="43.49764" lon="6.06693">
        <ele>178.46</ele>
        <time>2019-06-04T07:46:50Z</time>
      </trkpt>
      <trkpt lat="43.49766" lon="6.06697">
        <ele>178.94</ele>
        <time>2019-06-04T07:46:53Z</time>
      </trkpt>
      <trkpt lat="43.49771" lon="6.06701">
        <ele>178.94</ele>
        <time>2019-06-04T07:46:57Z</time>
      </trkpt>
      <trkpt lat="43.49774" lon="6.06701">
        <ele>179.42</ele>
        <time>2019-06-04T07:47:00Z</time>
      </trkpt>
      <trkpt lat="43.49778" lon="6.06701">
        <ele>180.38</ele>
        <time>2019-06-04T07:47:10Z</time>
      </trkpt>
      <trkpt lat="43.4978" lon="6.06703">
        <ele>181.35</ele>
        <time>2019-06-04T07:47:21Z</time>
      </trkpt>
      <trkpt lat="43.49782" lon="6.067">
        <ele>181.83</ele>
        <time>2019-06-04T07:47:30Z</time>
      </trkpt>
      <trkpt lat="43.49784" lon="6.06698">
        <ele>181.83</ele>
        <time>2019-06-04T07:47:40Z</time>
      </trkpt>
      <trkpt lat="43.49784" lon="6.06697">
        <ele>181.83</ele>
        <time>2019-06-04T07:48:00Z</time>
      </trkpt>
      <trkpt lat="43.49785" lon="6.06695">
        <ele>181.83</ele>
        <time>2019-06-04T07:48:17Z</time>
      </trkpt>
      <trkpt lat="43.4979" lon="6.06695">
        <ele>182.31</ele>
        <time>2019-06-04T07:48:25Z</time>
      </trkpt>
      <trkpt lat="43.49791" lon="6.06695">
        <ele>182.79</ele>
        <time>2019-06-04T07:48:30Z</time>
      </trkpt>
      <trkpt lat="43.49796" lon="6.06692">
        <ele>183.27</ele>
        <time>2019-06-04T07:48:34Z</time>
      </trkpt>
      <trkpt lat="43.49798" lon="6.06689">
        <ele>183.75</ele>
        <time>2019-06-04T07:48:37Z</time>
      </trkpt>
      <trkpt lat="43.498" lon="6.06688">
        <ele>183.75</ele>
        <time>2019-06-04T07:48:39Z</time>
      </trkpt>
      <trkpt lat="43.49801" lon="6.06686">
        <ele>184.23</ele>
        <time>2019-06-04T07:48:41Z</time>
      </trkpt>
      <trkpt lat="43.49806" lon="6.06682">
        <ele>185.19</ele>
        <time>2019-06-04T07:48:46Z</time>
      </trkpt>
      <trkpt lat="43.4981" lon="6.06679">
        <ele>185.67</ele>
        <time>2019-06-04T07:48:50Z</time>
      </trkpt>
      <trkpt lat="43.49815" lon="6.06677">
        <ele>185.67</ele>
        <time>2019-06-04T07:48:54Z</time>
      </trkpt>
      <trkpt lat="43.49823" lon="6.06668">
        <ele>187.11</ele>
        <time>2019-06-04T07:49:04Z</time>
      </trkpt>
      <trkpt lat="43.4983" lon="6.06659">
        <ele>188.56</ele>
        <time>2019-06-04T07:49:19Z</time>
      </trkpt>
      <trkpt lat="43.49835" lon="6.06656">
        <ele>189.52</ele>
        <time>2019-06-04T07:49:30Z</time>
      </trkpt>
      <trkpt lat="43.49844" lon="6.06649">
        <ele>190</ele>
        <time>2019-06-04T07:49:40Z</time>
      </trkpt>
      <trkpt lat="43.49849" lon="6.06641">
        <ele>190.96</ele>
        <time>2019-06-04T07:49:50Z</time>
      </trkpt>
      <trkpt lat="43.49855" lon="6.06632">
        <ele>191.44</ele>
        <time>2019-06-04T07:50:02Z</time>
      </trkpt>
      <trkpt lat="43.4986" lon="6.06616">
        <ele>192.4</ele>
        <time>2019-06-04T07:50:13Z</time>
      </trkpt>
      <trkpt lat="43.49868" lon="6.06597">
        <ele>191.92</ele>
        <time>2019-06-04T07:50:25Z</time>
      </trkpt>
      <trkpt lat="43.49871" lon="6.0658">
        <ele>191.44</ele>
        <time>2019-06-04T07:50:37Z</time>
      </trkpt>
      <trkpt lat="43.49876" lon="6.0656">
        <ele>190.96</ele>
        <time>2019-06-04T07:50:48Z</time>
      </trkpt>
      <trkpt lat="43.4988" lon="6.06547">
        <ele>192.4</ele>
        <time>2019-06-04T07:50:59Z</time>
      </trkpt>
      <trkpt lat="43.49879" lon="6.06534">
        <ele>191.44</ele>
        <time>2019-06-04T07:51:20Z</time>
      </trkpt>
      <trkpt lat="43.49885" lon="6.0653">
        <ele>191.44</ele>
        <time>2019-06-04T07:51:31Z</time>
      </trkpt>
      <trkpt lat="43.49888" lon="6.06517">
        <ele>191.44</ele>
        <time>2019-06-04T07:51:41Z</time>
      </trkpt>
      <trkpt lat="43.49893" lon="6.06501">
        <ele>191.44</ele>
        <time>2019-06-04T07:51:53Z</time>
      </trkpt>
      <trkpt lat="43.49895" lon="6.06493">
        <ele>191.44</ele>
        <time>2019-06-04T07:52:05Z</time>
      </trkpt>
      <trkpt lat="43.499" lon="6.06471">
        <ele>191.92</ele>
        <time>2019-06-04T07:52:21Z</time>
      </trkpt>
      <trkpt lat="43.49906" lon="6.06443">
        <ele>192.4</ele>
        <time>2019-06-04T07:52:31Z</time>
      </trkpt>
      <trkpt lat="43.49908" lon="6.06437">
        <ele>192.88</ele>
        <time>2019-06-04T07:52:34Z</time>
      </trkpt>
      <trkpt lat="43.49908" lon="6.06434">
        <ele>192.88</ele>
        <time>2019-06-04T07:52:36Z</time>
      </trkpt>
      <trkpt lat="43.49914" lon="6.06416">
        <ele>193.36</ele>
        <time>2019-06-04T07:52:48Z</time>
      </trkpt>
      <trkpt lat="43.49918" lon="6.06405">
        <ele>193.36</ele>
        <time>2019-06-04T07:52:56Z</time>
      </trkpt>
      <trkpt lat="43.49918" lon="6.06399">
        <ele>194.32</ele>
        <time>2019-06-04T07:52:59Z</time>
      </trkpt>
      <trkpt lat="43.49924" lon="6.06391">
        <ele>193.84</ele>
        <time>2019-06-04T07:53:10Z</time>
      </trkpt>
      <trkpt lat="43.49932" lon="6.0638">
        <ele>194.32</ele>
        <time>2019-06-04T07:53:22Z</time>
      </trkpt>
      <trkpt lat="43.49936" lon="6.06371">
        <ele>194.8</ele>
        <time>2019-06-04T07:53:33Z</time>
      </trkpt>
      <trkpt lat="43.49941" lon="6.06354">
        <ele>195.28</ele>
        <time>2019-06-04T07:53:45Z</time>
      </trkpt>
      <trkpt lat="43.49944" lon="6.06346">
        <ele>195.77</ele>
        <time>2019-06-04T07:53:57Z</time>
      </trkpt>
      <trkpt lat="43.49946" lon="6.06326">
        <ele>196.25</ele>
        <time>2019-06-04T07:54:07Z</time>
      </trkpt>
      <trkpt lat="43.49946" lon="6.06322">
        <ele>196.73</ele>
        <time>2019-06-04T07:54:19Z</time>
      </trkpt>
      <trkpt lat="43.49952" lon="6.06319">
        <ele>197.69</ele>
        <time>2019-06-04T07:54:32Z</time>
      </trkpt>
      <trkpt lat="43.49957" lon="6.06319">
        <ele>198.65</ele>
        <time>2019-06-04T07:54:41Z</time>
      </trkpt>
      <trkpt lat="43.49977" lon="6.06319">
        <ele>200.09</ele>
        <time>2019-06-04T07:54:50Z</time>
      </trkpt>
      <trkpt lat="43.49985" lon="6.06316">
        <ele>201.53</ele>
        <time>2019-06-04T07:55:00Z</time>
      </trkpt>
      <trkpt lat="43.49993" lon="6.06319">
        <ele>202.98</ele>
        <time>2019-06-04T07:55:10Z</time>
      </trkpt>
      <trkpt lat="43.5" lon="6.06324">
        <ele>204.42</ele>
        <time>2019-06-04T07:55:20Z</time>
      </trkpt>
      <trkpt lat="43.5001" lon="6.06326">
        <ele>205.38</ele>
        <time>2019-06-04T07:55:32Z</time>
      </trkpt>
      <trkpt lat="43.5002" lon="6.06332">
        <ele>206.34</ele>
        <time>2019-06-04T07:55:43Z</time>
      </trkpt>
      <trkpt lat="43.50029" lon="6.06338">
        <ele>207.78</ele>
        <time>2019-06-04T07:55:56Z</time>
      </trkpt>
      <trkpt lat="43.50035" lon="6.06338">
        <ele>208.74</ele>
        <time>2019-06-04T07:56:07Z</time>
      </trkpt>
      <trkpt lat="43.50042" lon="6.06344">
        <ele>209.7</ele>
        <time>2019-06-04T07:56:17Z</time>
      </trkpt>
      <trkpt lat="43.5005" lon="6.06348">
        <ele>210.67</ele>
        <time>2019-06-04T07:56:30Z</time>
      </trkpt>
      <trkpt lat="43.50055" lon="6.06349">
        <ele>211.63</ele>
        <time>2019-06-04T07:56:42Z</time>
      </trkpt>
      <trkpt lat="43.50063" lon="6.0636">
        <ele>213.07</ele>
        <time>2019-06-04T07:56:54Z</time>
      </trkpt>
      <trkpt lat="43.50078" lon="6.06368">
        <ele>213.55</ele>
        <time>2019-06-04T07:57:04Z</time>
      </trkpt>
      <trkpt lat="43.50094" lon="6.06374">
        <ele>214.51</ele>
        <time>2019-06-04T07:57:16Z</time>
      </trkpt>
      <trkpt lat="43.50101" lon="6.06371">
        <ele>215.95</ele>
        <time>2019-06-04T07:57:27Z</time>
      </trkpt>
      <trkpt lat="43.50109" lon="6.0637">
        <ele>217.88</ele>
        <time>2019-06-04T07:57:37Z</time>
      </trkpt>
      <trkpt lat="43.50118" lon="6.06371">
        <ele>219.8</ele>
        <time>2019-06-04T07:57:46Z</time>
      </trkpt>
      <trkpt lat="43.5013" lon="6.06369">
        <ele>221.72</ele>
        <time>2019-06-04T07:57:57Z</time>
      </trkpt>
      <trkpt lat="43.50143" lon="6.06376">
        <ele>224.12</ele>
        <time>2019-06-04T07:58:09Z</time>
      </trkpt>
      <trkpt lat="43.50151" lon="6.06375">
        <ele>224.61</ele>
        <time>2019-06-04T07:58:22Z</time>
      </trkpt>
      <trkpt lat="43.50161" lon="6.06369">
        <ele>225.57</ele>
        <time>2019-06-04T07:58:32Z</time>
      </trkpt>
      <trkpt lat="43.50168" lon="6.06369">
        <ele>226.53</ele>
        <time>2019-06-04T07:58:41Z</time>
      </trkpt>
      <trkpt lat="43.50176" lon="6.06367">
        <ele>228.45</ele>
        <time>2019-06-04T07:58:50Z</time>
      </trkpt>
      <trkpt lat="43.5019" lon="6.06362">
        <ele>230.37</ele>
        <time>2019-06-04T07:58:59Z</time>
      </trkpt>
      <trkpt lat="43.50204" lon="6.0636">
        <ele>230.37</ele>
        <time>2019-06-04T07:59:07Z</time>
      </trkpt>
      <trkpt lat="43.50212" lon="6.06358">
        <ele>230.85</ele>
        <time>2019-06-04T07:59:17Z</time>
      </trkpt>
      <trkpt lat="43.50219" lon="6.06356">
        <ele>232.78</ele>
        <time>2019-06-04T07:59:27Z</time>
      </trkpt>
      <trkpt lat="43.50231" lon="6.06344">
        <ele>234.22</ele>
        <time>2019-06-04T07:59:37Z</time>
      </trkpt>
      <trkpt lat="43.50235" lon="6.06343">
        <ele>234.22</ele>
        <time>2019-06-04T07:59:40Z</time>
      </trkpt>
      <trkpt lat="43.50239" lon="6.06342">
        <ele>235.18</ele>
        <time>2019-06-04T07:59:50Z</time>
      </trkpt>
      <trkpt lat="43.5024" lon="6.06342">
        <ele>235.66</ele>
        <time>2019-06-04T07:59:56Z</time>
      </trkpt>
      <trkpt lat="43.50249" lon="6.06339">
        <ele>235.66</ele>
        <time>2019-06-04T08:00:04Z</time>
      </trkpt>
      <trkpt lat="43.50258" lon="6.06342">
        <ele>235.66</ele>
        <time>2019-06-04T08:00:16Z</time>
      </trkpt>
      <trkpt lat="43.50261" lon="6.06343">
        <ele>235.66</ele>
        <time>2019-06-04T08:00:26Z</time>
      </trkpt>
      <trkpt lat="43.50262" lon="6.06342">
        <ele>235.66</ele>
        <time>2019-06-04T08:00:42Z</time>
      </trkpt>
      <trkpt lat="43.50263" lon="6.06342">
        <ele>235.66</ele>
        <time>2019-06-04T08:01:00Z</time>
      </trkpt>
      <trkpt lat="43.50265" lon="6.06339">
        <ele>235.66</ele>
        <time>2019-06-04T08:01:12Z</time>
      </trkpt>
      <trkpt lat="43.50265" lon="6.06336">
        <ele>235.66</ele>
        <time>2019-06-04T08:01:28Z</time>
      </trkpt>
      <trkpt lat="43.50266" lon="6.06331">
        <ele>235.66</ele>
        <time>2019-06-04T08:01:50Z</time>
      </trkpt>
      <trkpt lat="43.50269" lon="6.06328">
        <ele>236.14</ele>
        <time>2019-06-04T08:02:02Z</time>
      </trkpt>
      <trkpt lat="43.50275" lon="6.0632">
        <ele>236.14</ele>
        <time>2019-06-04T08:02:15Z</time>
      </trkpt>
      <trkpt lat="43.50275" lon="6.0631">
        <ele>237.1</ele>
        <time>2019-06-04T08:02:30Z</time>
      </trkpt>
      <trkpt lat="43.50277" lon="6.06304">
        <ele>238.06</ele>
        <time>2019-06-04T08:02:40Z</time>
      </trkpt>
      <trkpt lat="43.5028" lon="6.063">
        <ele>238.54</ele>
        <time>2019-06-04T08:02:52Z</time>
      </trkpt>
      <trkpt lat="43.50289" lon="6.06295">
        <ele>239.02</ele>
        <time>2019-06-04T08:03:02Z</time>
      </trkpt>
      <trkpt lat="43.503" lon="6.06293">
        <ele>239.02</ele>
        <time>2019-06-04T08:03:12Z</time>
      </trkpt>
      <trkpt lat="43.50309" lon="6.06291">
        <ele>239.51</ele>
        <time>2019-06-04T08:03:21Z</time>
      </trkpt>
      <trkpt lat="43.50311" lon="6.06287">
        <ele>239.51</ele>
        <time>2019-06-04T08:03:31Z</time>
      </trkpt>
      <trkpt lat="43.50316" lon="6.06286">
        <ele>239.51</ele>
        <time>2019-06-04T08:03:36Z</time>
      </trkpt>
      <trkpt lat="43.50328" lon="6.06287">
        <ele>240.47</ele>
        <time>2019-06-04T08:03:48Z</time>
      </trkpt>
      <trkpt lat="43.50345" lon="6.06291">
        <ele>240.95</ele>
        <time>2019-06-04T08:03:56Z</time>
      </trkpt>
      <trkpt lat="43.50383" lon="6.06303">
        <ele>241.91</ele>
        <time>2019-06-04T08:04:06Z</time>
      </trkpt>
      <trkpt lat="43.50389" lon="6.06306">
        <ele>243.35</ele>
        <time>2019-06-04T08:04:17Z</time>
      </trkpt>
      <trkpt lat="43.5039" lon="6.06307">
        <ele>243.83</ele>
        <time>2019-06-04T08:04:20Z</time>
      </trkpt>
      <trkpt lat="43.50398" lon="6.06309">
        <ele>245.75</ele>
        <time>2019-06-04T08:04:31Z</time>
      </trkpt>
      <trkpt lat="43.504" lon="6.06304">
        <ele>247.68</ele>
        <time>2019-06-04T08:04:44Z</time>
      </trkpt>
      <trkpt lat="43.50406" lon="6.06299">
        <ele>248.64</ele>
        <time>2019-06-04T08:04:52Z</time>
      </trkpt>
      <trkpt lat="43.50411" lon="6.06291">
        <ele>249.6</ele>
        <time>2019-06-04T08:05:00Z</time>
      </trkpt>
      <trkpt lat="43.50417" lon="6.06284">
        <ele>251.04</ele>
        <time>2019-06-04T08:05:08Z</time>
      </trkpt>
      <trkpt lat="43.50419" lon="6.06274">
        <ele>252.48</ele>
        <time>2019-06-04T08:05:16Z</time>
      </trkpt>
      <trkpt lat="43.50436" lon="6.06251">
        <ele>254.41</ele>
        <time>2019-06-04T08:05:26Z</time>
      </trkpt>
      <trkpt lat="43.50441" lon="6.06246">
        <ele>254.89</ele>
        <time>2019-06-04T08:05:35Z</time>
      </trkpt>
      <trkpt lat="43.50444" lon="6.06243">
        <ele>254.89</ele>
        <time>2019-06-04T08:05:50Z</time>
      </trkpt>
      <trkpt lat="43.50445" lon="6.06237">
        <ele>255.37</ele>
        <time>2019-06-04T08:06:04Z</time>
      </trkpt>
      <trkpt lat="43.50455" lon="6.06237">
        <ele>255.85</ele>
        <time>2019-06-04T08:06:17Z</time>
      </trkpt>
      <trkpt lat="43.50464" lon="6.06242">
        <ele>256.81</ele>
        <time>2019-06-04T08:06:26Z</time>
      </trkpt>
      <trkpt lat="43.50471" lon="6.0624">
        <ele>257.77</ele>
        <time>2019-06-04T08:06:35Z</time>
      </trkpt>
      <trkpt lat="43.50482" lon="6.06238">
        <ele>258.73</ele>
        <time>2019-06-04T08:06:45Z</time>
      </trkpt>
      <trkpt lat="43.50484" lon="6.06238">
        <ele>259.21</ele>
        <time>2019-06-04T08:06:48Z</time>
      </trkpt>
      <trkpt lat="43.50491" lon="6.06233">
        <ele>260.17</ele>
        <time>2019-06-04T08:06:57Z</time>
      </trkpt>
      <trkpt lat="43.50496" lon="6.06221">
        <ele>261.14</ele>
        <time>2019-06-04T08:07:07Z</time>
      </trkpt>
      <trkpt lat="43.50501" lon="6.06173">
        <ele>262.1</ele>
        <time>2019-06-04T08:07:18Z</time>
      </trkpt>
      <trkpt lat="43.5051" lon="6.06152">
        <ele>263.06</ele>
        <time>2019-06-04T08:07:31Z</time>
      </trkpt>
      <trkpt lat="43.50513" lon="6.06138">
        <ele>264.5</ele>
        <time>2019-06-04T08:07:43Z</time>
      </trkpt>
      <trkpt lat="43.5052" lon="6.06139">
        <ele>264.5</ele>
        <time>2019-06-04T08:07:54Z</time>
      </trkpt>
      <trkpt lat="43.50532" lon="6.06123">
        <ele>265.46</ele>
        <time>2019-06-04T08:08:05Z</time>
      </trkpt>
      <trkpt lat="43.50535" lon="6.06121">
        <ele>265.46</ele>
        <time>2019-06-04T08:08:08Z</time>
      </trkpt>
      <trkpt lat="43.50538" lon="6.06118">
        <ele>265.94</ele>
        <time>2019-06-04T08:08:11Z</time>
      </trkpt>
      <trkpt lat="43.50542" lon="6.06113">
        <ele>268.35</ele>
        <time>2019-06-04T08:08:15Z</time>
      </trkpt>
      <trkpt lat="43.50546" lon="6.06111">
        <ele>268.35</ele>
        <time>2019-06-04T08:08:19Z</time>
      </trkpt>
      <trkpt lat="43.50553" lon="6.06105">
        <ele>266.9</ele>
        <time>2019-06-04T08:08:26Z</time>
      </trkpt>
      <trkpt lat="43.50556" lon="6.06102">
        <ele>266.9</ele>
        <time>2019-06-04T08:08:28Z</time>
      </trkpt>
      <trkpt lat="43.50561" lon="6.06097">
        <ele>267.38</ele>
        <time>2019-06-04T08:08:34Z</time>
      </trkpt>
      <trkpt lat="43.50567" lon="6.06097">
        <ele>267.86</ele>
        <time>2019-06-04T08:08:39Z</time>
      </trkpt>
      <trkpt lat="43.50573" lon="6.06096">
        <ele>268.35</ele>
        <time>2019-06-04T08:08:45Z</time>
      </trkpt>
      <trkpt lat="43.50578" lon="6.06094">
        <ele>268.83</ele>
        <time>2019-06-04T08:08:50Z</time>
      </trkpt>
      <trkpt lat="43.50585" lon="6.06093">
        <ele>270.27</ele>
        <time>2019-06-04T08:09:01Z</time>
      </trkpt>
      <trkpt lat="43.50587" lon="6.06093">
        <ele>270.27</ele>
        <time>2019-06-04T08:09:03Z</time>
      </trkpt>
      <trkpt lat="43.50593" lon="6.06096">
        <ele>271.71</ele>
        <time>2019-06-04T08:09:11Z</time>
      </trkpt>
      <trkpt lat="43.50596" lon="6.06099">
        <ele>272.19</ele>
        <time>2019-06-04T08:09:14Z</time>
      </trkpt>
      <trkpt lat="43.50607" lon="6.06107">
        <ele>273.63</ele>
        <time>2019-06-04T08:09:25Z</time>
      </trkpt>
      <trkpt lat="43.50609" lon="6.06108">
        <ele>275.07</ele>
        <time>2019-06-04T08:09:35Z</time>
      </trkpt>
      <trkpt lat="43.50611" lon="6.06107">
        <ele>276.04</ele>
        <time>2019-06-04T08:09:40Z</time>
      </trkpt>
      <trkpt lat="43.50617" lon="6.06105">
        <ele>277.48</ele>
        <time>2019-06-04T08:09:50Z</time>
      </trkpt>
      <trkpt lat="43.50613" lon="6.06092">
        <ele>278.92</ele>
        <time>2019-06-04T08:10:00Z</time>
      </trkpt>
      <trkpt lat="43.50614" lon="6.06084">
        <ele>280.36</ele>
        <time>2019-06-04T08:10:10Z</time>
      </trkpt>
      <trkpt lat="43.50619" lon="6.06079">
        <ele>281.32</ele>
        <time>2019-06-04T08:10:16Z</time>
      </trkpt>
      <trkpt lat="43.50635" lon="6.06072">
        <ele>282.77</ele>
        <time>2019-06-04T08:10:26Z</time>
      </trkpt>
      <trkpt lat="43.50644" lon="6.06064">
        <ele>283.25</ele>
        <time>2019-06-04T08:10:37Z</time>
      </trkpt>
      <trkpt lat="43.50649" lon="6.0606">
        <ele>283.25</ele>
        <time>2019-06-04T08:10:54Z</time>
      </trkpt>
      <trkpt lat="43.50657" lon="6.06057">
        <ele>283.25</ele>
        <time>2019-06-04T08:11:17Z</time>
      </trkpt>
      <trkpt lat="43.5066" lon="6.06056">
        <ele>283.73</ele>
        <time>2019-06-04T08:11:35Z</time>
      </trkpt>
      <trkpt lat="43.50661" lon="6.06055">
        <ele>283.73</ele>
        <time>2019-06-04T08:11:55Z</time>
      </trkpt>
      <trkpt lat="43.50662" lon="6.06056">
        <ele>284.21</ele>
        <time>2019-06-04T08:12:18Z</time>
      </trkpt>
      <trkpt lat="43.50663" lon="6.06053">
        <ele>284.21</ele>
        <time>2019-06-04T08:12:40Z</time>
      </trkpt>
      <trkpt lat="43.50663" lon="6.06053">
        <ele>284.21</ele>
        <time>2019-06-04T08:12:55Z</time>
      </trkpt>
      <trkpt lat="43.50664" lon="6.06056">
        <ele>284.69</ele>
        <time>2019-06-04T08:13:06Z</time>
      </trkpt>
      <trkpt lat="43.5067" lon="6.06063">
        <ele>285.17</ele>
        <time>2019-06-04T08:13:15Z</time>
      </trkpt>
      <trkpt lat="43.50674" lon="6.06069">
        <ele>285.65</ele>
        <time>2019-06-04T08:13:21Z</time>
      </trkpt>
      <trkpt lat="43.50678" lon="6.06073">
        <ele>285.65</ele>
        <time>2019-06-04T08:13:26Z</time>
      </trkpt>
      <trkpt lat="43.50683" lon="6.0608">
        <ele>285.65</ele>
        <time>2019-06-04T08:13:36Z</time>
      </trkpt>
      <trkpt lat="43.50686" lon="6.06079">
        <ele>285.65</ele>
        <time>2019-06-04T08:13:45Z</time>
      </trkpt>
      <trkpt lat="43.50688" lon="6.06083">
        <ele>285.65</ele>
        <time>2019-06-04T08:13:53Z</time>
      </trkpt>
      <trkpt lat="43.50694" lon="6.06088">
        <ele>285.17</ele>
        <time>2019-06-04T08:14:02Z</time>
      </trkpt>
      <trkpt lat="43.50698" lon="6.06095">
        <ele>285.17</ele>
        <time>2019-06-04T08:14:11Z</time>
      </trkpt>
      <trkpt lat="43.50706" lon="6.06106">
        <ele>285.17</ele>
        <time>2019-06-04T08:14:21Z</time>
      </trkpt>
      <trkpt lat="43.50712" lon="6.06111">
        <ele>285.65</ele>
        <time>2019-06-04T08:14:31Z</time>
      </trkpt>
      <trkpt lat="43.50724" lon="6.06123">
        <ele>285.65</ele>
        <time>2019-06-04T08:14:41Z</time>
      </trkpt>
      <trkpt lat="43.50749" lon="6.06151">
        <ele>286.13</ele>
        <time>2019-06-04T08:14:53Z</time>
      </trkpt>
      <trkpt lat="43.50766" lon="6.06158">
        <ele>286.61</ele>
        <time>2019-06-04T08:15:04Z</time>
      </trkpt>
      <trkpt lat="43.50778" lon="6.06161">
        <ele>287.09</ele>
        <time>2019-06-04T08:15:16Z</time>
      </trkpt>
      <trkpt lat="43.50792" lon="6.06167">
        <ele>287.57</ele>
        <time>2019-06-04T08:15:28Z</time>
      </trkpt>
      <trkpt lat="43.50803" lon="6.0617">
        <ele>288.53</ele>
        <time>2019-06-04T08:15:39Z</time>
      </trkpt>
      <trkpt lat="43.50809" lon="6.06168">
        <ele>289.49</ele>
        <time>2019-06-04T08:15:50Z</time>
      </trkpt>
      <trkpt lat="43.50831" lon="6.06173">
        <ele>289.97</ele>
        <time>2019-06-04T08:16:00Z</time>
      </trkpt>
      <trkpt lat="43.50835" lon="6.0617">
        <ele>289.97</ele>
        <time>2019-06-04T08:16:06Z</time>
      </trkpt>
      <trkpt lat="43.50838" lon="6.06168">
        <ele>290.46</ele>
        <time>2019-06-04T08:16:08Z</time>
      </trkpt>
      <trkpt lat="43.50851" lon="6.06152">
        <ele>290.46</ele>
        <time>2019-06-04T08:16:18Z</time>
      </trkpt>
      <trkpt lat="43.50861" lon="6.0614">
        <ele>291.42</ele>
        <time>2019-06-04T08:16:28Z</time>
      </trkpt>
      <trkpt lat="43.50869" lon="6.06136">
        <ele>291.9</ele>
        <time>2019-06-04T08:16:38Z</time>
      </trkpt>
      <trkpt lat="43.50875" lon="6.06131">
        <ele>292.38</ele>
        <time>2019-06-04T08:16:46Z</time>
      </trkpt>
      <trkpt lat="43.50879" lon="6.06128">
        <ele>292.86</ele>
        <time>2019-06-04T08:16:50Z</time>
      </trkpt>
      <trkpt lat="43.50886" lon="6.06125">
        <ele>293.34</ele>
        <time>2019-06-04T08:16:57Z</time>
      </trkpt>
      <trkpt lat="43.50895" lon="6.06121">
        <ele>294.3</ele>
        <time>2019-06-04T08:17:05Z</time>
      </trkpt>
      <trkpt lat="43.50899" lon="6.06119">
        <ele>294.78</ele>
        <time>2019-06-04T08:17:10Z</time>
      </trkpt>
      <trkpt lat="43.50901" lon="6.06117">
        <ele>295.26</ele>
        <time>2019-06-04T08:17:12Z</time>
      </trkpt>
      <trkpt lat="43.50907" lon="6.06116">
        <ele>294.78</ele>
        <time>2019-06-04T08:17:20Z</time>
      </trkpt>
      <trkpt lat="43.50911" lon="6.06115">
        <ele>294.78</ele>
        <time>2019-06-04T08:17:22Z</time>
      </trkpt>
      <trkpt lat="43.50922" lon="6.06111">
        <ele>294.3</ele>
        <time>2019-06-04T08:17:31Z</time>
      </trkpt>
      <trkpt lat="43.50932" lon="6.06109">
        <ele>294.3</ele>
        <time>2019-06-04T08:17:40Z</time>
      </trkpt>
      <trkpt lat="43.50933" lon="6.06107">
        <ele>294.78</ele>
        <time>2019-06-04T08:17:42Z</time>
      </trkpt>
      <trkpt lat="43.50942" lon="6.06101">
        <ele>294.78</ele>
        <time>2019-06-04T08:17:52Z</time>
      </trkpt>
      <trkpt lat="43.50948" lon="6.06089">
        <ele>294.78</ele>
        <time>2019-06-04T08:18:02Z</time>
      </trkpt>
      <trkpt lat="43.50954" lon="6.06082">
        <ele>295.26</ele>
        <time>2019-06-04T08:18:11Z</time>
      </trkpt>
      <trkpt lat="43.50961" lon="6.06073">
        <ele>295.26</ele>
        <time>2019-06-04T08:18:22Z</time>
      </trkpt>
      <trkpt lat="43.50961" lon="6.06072">
        <ele>295.26</ele>
        <time>2019-06-04T08:18:24Z</time>
      </trkpt>
      <trkpt lat="43.50965" lon="6.06072">
        <ele>294.78</ele>
        <time>2019-06-04T08:18:33Z</time>
      </trkpt>
      <trkpt lat="43.50972" lon="6.06069">
        <ele>294.78</ele>
        <time>2019-06-04T08:18:43Z</time>
      </trkpt>
      <trkpt lat="43.50977" lon="6.06065">
        <ele>295.26</ele>
        <time>2019-06-04T08:18:53Z</time>
      </trkpt>
      <trkpt lat="43.50977" lon="6.06064">
        <ele>295.74</ele>
        <time>2019-06-04T08:18:55Z</time>
      </trkpt>
      <trkpt lat="43.5098" lon="6.06064">
        <ele>295.74</ele>
        <time>2019-06-04T08:18:58Z</time>
      </trkpt>
      <trkpt lat="43.50996" lon="6.06063">
        <ele>296.22</ele>
        <time>2019-06-04T08:19:09Z</time>
      </trkpt>
      <trkpt lat="43.50996" lon="6.06046">
        <ele>297.18</ele>
        <time>2019-06-04T08:19:20Z</time>
      </trkpt>
      <trkpt lat="43.50999" lon="6.06033">
        <ele>297.18</ele>
        <time>2019-06-04T08:19:29Z</time>
      </trkpt>
      <trkpt lat="43.51017" lon="6.06017">
        <ele>297.18</ele>
        <time>2019-06-04T08:19:51Z</time>
      </trkpt>
      <trkpt lat="43.51024" lon="6.06014">
        <ele>297.18</ele>
        <time>2019-06-04T08:20:12Z</time>
      </trkpt>
      <trkpt lat="43.51025" lon="6.06014">
        <ele>297.18</ele>
        <time>2019-06-04T08:20:27Z</time>
      </trkpt>
      <trkpt lat="43.51026" lon="6.06013">
        <ele>297.18</ele>
        <time>2019-06-04T08:20:43Z</time>
      </trkpt>
      <trkpt lat="43.51025" lon="6.06011">
        <ele>296.7</ele>
        <time>2019-06-04T08:21:01Z</time>
      </trkpt>
      <trkpt lat="43.51026" lon="6.06011">
        <ele>296.7</ele>
        <time>2019-06-04T08:21:15Z</time>
      </trkpt>
      <trkpt lat="43.51026" lon="6.0601">
        <ele>296.7</ele>
        <time>2019-06-04T08:21:28Z</time>
      </trkpt>
      <trkpt lat="43.51026" lon="6.06009">
        <ele>296.7</ele>
        <time>2019-06-04T08:21:45Z</time>
      </trkpt>
      <trkpt lat="43.51026" lon="6.06011">
        <ele>296.7</ele>
        <time>2019-06-04T08:21:58Z</time>
      </trkpt>
      <trkpt lat="43.51026" lon="6.0601">
        <ele>296.7</ele>
        <time>2019-06-04T08:22:13Z</time>
      </trkpt>
      <trkpt lat="43.51031" lon="6.06015">
        <ele>297.18</ele>
        <time>2019-06-04T08:22:23Z</time>
      </trkpt>
      <trkpt lat="43.51037" lon="6.06014">
        <ele>298.15</ele>
        <time>2019-06-04T08:22:33Z</time>
      </trkpt>
      <trkpt lat="43.5104" lon="6.06013">
        <ele>298.63</ele>
        <time>2019-06-04T08:22:39Z</time>
      </trkpt>
      <trkpt lat="43.51049" lon="6.06005">
        <ele>299.59</ele>
        <time>2019-06-04T08:22:48Z</time>
      </trkpt>
      <trkpt lat="43.51058" lon="6.05997">
        <ele>300.55</ele>
        <time>2019-06-04T08:22:58Z</time>
      </trkpt>
      <trkpt lat="43.51069" lon="6.05989">
        <ele>301.51</ele>
        <time>2019-06-04T08:23:10Z</time>
      </trkpt>
      <trkpt lat="43.51076" lon="6.05982">
        <ele>301.99</ele>
        <time>2019-06-04T08:23:21Z</time>
      </trkpt>
      <trkpt lat="43.51084" lon="6.05975">
        <ele>302.95</ele>
        <time>2019-06-04T08:23:33Z</time>
      </trkpt>
      <trkpt lat="43.5109" lon="6.05974">
        <ele>303.91</ele>
        <time>2019-06-04T08:23:43Z</time>
      </trkpt>
      <trkpt lat="43.511" lon="6.05975">
        <ele>304.88</ele>
        <time>2019-06-04T08:23:54Z</time>
      </trkpt>
      <trkpt lat="43.51108" lon="6.05975">
        <ele>305.36</ele>
        <time>2019-06-04T08:24:04Z</time>
      </trkpt>
      <trkpt lat="43.51111" lon="6.05977">
        <ele>305.84</ele>
        <time>2019-06-04T08:24:08Z</time>
      </trkpt>
      <trkpt lat="43.51121" lon="6.05981">
        <ele>306.32</ele>
        <time>2019-06-04T08:24:19Z</time>
      </trkpt>
      <trkpt lat="43.51124" lon="6.05982">
        <ele>306.32</ele>
        <time>2019-06-04T08:24:22Z</time>
      </trkpt>
      <trkpt lat="43.51126" lon="6.05982">
        <ele>306.32</ele>
        <time>2019-06-04T08:24:24Z</time>
      </trkpt>
      <trkpt lat="43.5113" lon="6.05982">
        <ele>306.32</ele>
        <time>2019-06-04T08:24:27Z</time>
      </trkpt>
      <trkpt lat="43.51138" lon="6.05986">
        <ele>306.8</ele>
        <time>2019-06-04T08:24:36Z</time>
      </trkpt>
      <trkpt lat="43.51146" lon="6.05991">
        <ele>307.28</ele>
        <time>2019-06-04T08:24:45Z</time>
      </trkpt>
      <trkpt lat="43.51154" lon="6.05993">
        <ele>307.28</ele>
        <time>2019-06-04T08:24:52Z</time>
      </trkpt>
      <trkpt lat="43.51166" lon="6.05996">
        <ele>307.76</ele>
        <time>2019-06-04T08:25:01Z</time>
      </trkpt>
      <trkpt lat="43.51176" lon="6.06001">
        <ele>307.76</ele>
        <time>2019-06-04T08:25:09Z</time>
      </trkpt>
      <trkpt lat="43.51183" lon="6.06006">
        <ele>307.76</ele>
        <time>2019-06-04T08:25:16Z</time>
      </trkpt>
      <trkpt lat="43.51192" lon="6.06013">
        <ele>307.76</ele>
        <time>2019-06-04T08:25:27Z</time>
      </trkpt>
      <trkpt lat="43.51196" lon="6.06016">
        <ele>307.76</ele>
        <time>2019-06-04T08:25:31Z</time>
      </trkpt>
      <trkpt lat="43.51199" lon="6.06018">
        <ele>307.76</ele>
        <time>2019-06-04T08:25:34Z</time>
      </trkpt>
      <trkpt lat="43.51207" lon="6.06025">
        <ele>308.24</ele>
        <time>2019-06-04T08:25:43Z</time>
      </trkpt>
      <trkpt lat="43.51215" lon="6.06033">
        <ele>309.2</ele>
        <time>2019-06-04T08:25:55Z</time>
      </trkpt>
      <trkpt lat="43.5122" lon="6.06036">
        <ele>309.2</ele>
        <time>2019-06-04T08:26:01Z</time>
      </trkpt>
      <trkpt lat="43.51231" lon="6.06038">
        <ele>309.2</ele>
        <time>2019-06-04T08:26:11Z</time>
      </trkpt>
      <trkpt lat="43.5124" lon="6.06037">
        <ele>309.68</ele>
        <time>2019-06-04T08:26:20Z</time>
      </trkpt>
      <trkpt lat="43.51244" lon="6.06041">
        <ele>310.16</ele>
        <time>2019-06-04T08:26:27Z</time>
      </trkpt>
      <trkpt lat="43.51251" lon="6.06041">
        <ele>311.12</ele>
        <time>2019-06-04T08:26:36Z</time>
      </trkpt>
      <trkpt lat="43.5126" lon="6.06042">
        <ele>311.6</ele>
        <time>2019-06-04T08:26:46Z</time>
      </trkpt>
      <trkpt lat="43.5127" lon="6.06045">
        <ele>312.09</ele>
        <time>2019-06-04T08:26:56Z</time>
      </trkpt>
      <trkpt lat="43.51282" lon="6.06049">
        <ele>312.09</ele>
        <time>2019-06-04T08:27:08Z</time>
      </trkpt>
      <trkpt lat="43.51284" lon="6.06049">
        <ele>311.6</ele>
        <time>2019-06-04T08:27:10Z</time>
      </trkpt>
      <trkpt lat="43.51289" lon="6.0605">
        <ele>312.09</ele>
        <time>2019-06-04T08:27:15Z</time>
      </trkpt>
      <trkpt lat="43.51302" lon="6.06055">
        <ele>312.09</ele>
        <time>2019-06-04T08:27:25Z</time>
      </trkpt>
      <trkpt lat="43.51311" lon="6.06057">
        <ele>313.05</ele>
        <time>2019-06-04T08:27:35Z</time>
      </trkpt>
      <trkpt lat="43.5132" lon="6.06058">
        <ele>313.53</ele>
        <time>2019-06-04T08:27:45Z</time>
      </trkpt>
      <trkpt lat="43.51323" lon="6.0606">
        <ele>314.01</ele>
        <time>2019-06-04T08:27:48Z</time>
      </trkpt>
      <trkpt lat="43.51333" lon="6.06062">
        <ele>314.01</ele>
        <time>2019-06-04T08:27:57Z</time>
      </trkpt>
      <trkpt lat="43.51343" lon="6.06064">
        <ele>314.97</ele>
        <time>2019-06-04T08:28:07Z</time>
      </trkpt>
      <trkpt lat="43.51351" lon="6.06065">
        <ele>315.93</ele>
        <time>2019-06-04T08:28:16Z</time>
      </trkpt>
      <trkpt lat="43.5136" lon="6.06066">
        <ele>315.93</ele>
        <time>2019-06-04T08:28:26Z</time>
      </trkpt>
      <trkpt lat="43.51371" lon="6.06071">
        <ele>315.93</ele>
        <time>2019-06-04T08:28:35Z</time>
      </trkpt>
      <trkpt lat="43.51381" lon="6.06074">
        <ele>316.41</ele>
        <time>2019-06-04T08:28:44Z</time>
      </trkpt>
      <trkpt lat="43.51389" lon="6.06076">
        <ele>316.89</ele>
        <time>2019-06-04T08:28:52Z</time>
      </trkpt>
      <trkpt lat="43.51397" lon="6.06076">
        <ele>317.37</ele>
        <time>2019-06-04T08:29:01Z</time>
      </trkpt>
      <trkpt lat="43.51405" lon="6.06078">
        <ele>317.37</ele>
        <time>2019-06-04T08:29:09Z</time>
      </trkpt>
      <trkpt lat="43.5141" lon="6.06079">
        <ele>318.33</ele>
        <time>2019-06-04T08:29:19Z</time>
      </trkpt>
      <trkpt lat="43.51416" lon="6.0608">
        <ele>319.3</ele>
        <time>2019-06-04T08:29:24Z</time>
      </trkpt>
      <trkpt lat="43.51429" lon="6.06082">
        <ele>319.78</ele>
        <time>2019-06-04T08:29:35Z</time>
      </trkpt>
      <trkpt lat="43.51438" lon="6.06079">
        <ele>320.74</ele>
        <time>2019-06-04T08:29:44Z</time>
      </trkpt>
      <trkpt lat="43.51444" lon="6.06075">
        <ele>320.74</ele>
        <time>2019-06-04T08:29:51Z</time>
      </trkpt>
      <trkpt lat="43.51456" lon="6.06066">
        <ele>320.74</ele>
        <time>2019-06-04T08:30:02Z</time>
      </trkpt>
      <trkpt lat="43.51461" lon="6.06061">
        <ele>320.74</ele>
        <time>2019-06-04T08:30:09Z</time>
      </trkpt>
      <trkpt lat="43.51464" lon="6.0606">
        <ele>321.22</ele>
        <time>2019-06-04T08:30:13Z</time>
      </trkpt>
      <trkpt lat="43.51472" lon="6.06052">
        <ele>321.22</ele>
        <time>2019-06-04T08:30:24Z</time>
      </trkpt>
      <trkpt lat="43.5148" lon="6.06042">
        <ele>322.18</ele>
        <time>2019-06-04T08:30:36Z</time>
      </trkpt>
      <trkpt lat="43.51486" lon="6.06033">
        <ele>323.14</ele>
        <time>2019-06-04T08:30:47Z</time>
      </trkpt>
      <trkpt lat="43.51493" lon="6.06025">
        <ele>324.1</ele>
        <time>2019-06-04T08:30:56Z</time>
      </trkpt>
      <trkpt lat="43.51499" lon="6.06017">
        <ele>325.06</ele>
        <time>2019-06-04T08:31:08Z</time>
      </trkpt>
      <trkpt lat="43.51507" lon="6.0601">
        <ele>326.02</ele>
        <time>2019-06-04T08:31:18Z</time>
      </trkpt>
      <trkpt lat="43.51512" lon="6.06007">
        <ele>327.47</ele>
        <time>2019-06-04T08:31:27Z</time>
      </trkpt>
      <trkpt lat="43.51519" lon="6.06005">
        <ele>328.91</ele>
        <time>2019-06-04T08:31:38Z</time>
      </trkpt>
      <trkpt lat="43.51523" lon="6.06004">
        <ele>329.87</ele>
        <time>2019-06-04T08:31:48Z</time>
      </trkpt>
      <trkpt lat="43.51535" lon="6.06002">
        <ele>330.83</ele>
        <time>2019-06-04T08:31:57Z</time>
      </trkpt>
      <trkpt lat="43.51547" lon="6.05985">
        <ele>332.27</ele>
        <time>2019-06-04T08:32:11Z</time>
      </trkpt>
      <trkpt lat="43.51554" lon="6.05975">
        <ele>333.71</ele>
        <time>2019-06-04T08:32:23Z</time>
      </trkpt>
      <trkpt lat="43.51555" lon="6.05971">
        <ele>334.2</ele>
        <time>2019-06-04T08:32:27Z</time>
      </trkpt>
      <trkpt lat="43.51559" lon="6.05964">
        <ele>334.68</ele>
        <time>2019-06-04T08:32:33Z</time>
      </trkpt>
      <trkpt lat="43.51562" lon="6.05958">
        <ele>334.68</ele>
        <time>2019-06-04T08:32:39Z</time>
      </trkpt>
      <trkpt lat="43.51567" lon="6.05946">
        <ele>336.12</ele>
        <time>2019-06-04T08:32:50Z</time>
      </trkpt>
      <trkpt lat="43.51574" lon="6.05932">
        <ele>337.08</ele>
        <time>2019-06-04T08:33:03Z</time>
      </trkpt>
      <trkpt lat="43.5158" lon="6.05923">
        <ele>338.04</ele>
        <time>2019-06-04T08:33:11Z</time>
      </trkpt>
      <trkpt lat="43.51582" lon="6.05921">
        <ele>338.04</ele>
        <time>2019-06-04T08:33:15Z</time>
      </trkpt>
      <trkpt lat="43.51588" lon="6.05915">
        <ele>338.52</ele>
        <time>2019-06-04T08:33:22Z</time>
      </trkpt>
      <trkpt lat="43.51595" lon="6.05913">
        <ele>339.48</ele>
        <time>2019-06-04T08:33:28Z</time>
      </trkpt>
      <trkpt lat="43.516" lon="6.05912">
        <ele>339.48</ele>
        <time>2019-06-04T08:33:34Z</time>
      </trkpt>
      <trkpt lat="43.51606" lon="6.05912">
        <ele>339.96</ele>
        <time>2019-06-04T08:33:41Z</time>
      </trkpt>
      <trkpt lat="43.51606" lon="6.05913">
        <ele>339.96</ele>
        <time>2019-06-04T08:33:54Z</time>
      </trkpt>
      <trkpt lat="43.51606" lon="6.05913">
        <ele>339.96</ele>
        <time>2019-06-04T08:34:12Z</time>
      </trkpt>
      <trkpt lat="43.51605" lon="6.05912">
        <ele>339.96</ele>
        <time>2019-06-04T08:34:29Z</time>
      </trkpt>
      <trkpt lat="43.51606" lon="6.05913">
        <ele>339.48</ele>
        <time>2019-06-04T08:34:51Z</time>
      </trkpt>
      <trkpt lat="43.51605" lon="6.05913">
        <ele>339.48</ele>
        <time>2019-06-04T08:35:04Z</time>
      </trkpt>
      <trkpt lat="43.51605" lon="6.05913">
        <ele>339.48</ele>
        <time>2019-06-04T08:35:24Z</time>
      </trkpt>
      <trkpt lat="43.51605" lon="6.05912">
        <ele>339.48</ele>
        <time>2019-06-04T08:35:43Z</time>
      </trkpt>
      <trkpt lat="43.51605" lon="6.05912">
        <ele>339</ele>
        <time>2019-06-04T08:36:00Z</time>
      </trkpt>
      <trkpt lat="43.51605" lon="6.05912">
        <ele>339.48</ele>
        <time>2019-06-04T08:36:08Z</time>
      </trkpt>
      <trkpt lat="43.51608" lon="6.05909">
        <ele>339</ele>
        <time>2019-06-04T08:36:13Z</time>
      </trkpt>
      <trkpt lat="43.51609" lon="6.05905">
        <ele>339</ele>
        <time>2019-06-04T08:36:17Z</time>
      </trkpt>
      <trkpt lat="43.51609" lon="6.05894">
        <ele>339</ele>
        <time>2019-06-04T08:36:25Z</time>
      </trkpt>
      <trkpt lat="43.51603" lon="6.0588">
        <ele>339</ele>
        <time>2019-06-04T08:36:35Z</time>
      </trkpt>
      <trkpt lat="43.51601" lon="6.05877">
        <ele>333.23</ele>
        <time>2019-06-04T08:36:37Z</time>
      </trkpt>
      <trkpt lat="43.51601" lon="6.05876">
        <ele>344.77</ele>
        <time>2019-06-04T08:36:38Z</time>
      </trkpt>
      <trkpt lat="43.516" lon="6.05874">
        <ele>334.68</ele>
        <time>2019-06-04T08:36:39Z</time>
      </trkpt>
      <trkpt lat="43.516" lon="6.05873">
        <ele>342.37</ele>
        <time>2019-06-04T08:36:40Z</time>
      </trkpt>
      <trkpt lat="43.51599" lon="6.05872">
        <ele>338.52</ele>
        <time>2019-06-04T08:36:41Z</time>
      </trkpt>
      <trkpt lat="43.51593" lon="6.05856">
        <ele>338.04</ele>
        <time>2019-06-04T08:36:51Z</time>
      </trkpt>
      <trkpt lat="43.51591" lon="6.0585">
        <ele>338.04</ele>
        <time>2019-06-04T08:36:56Z</time>
      </trkpt>
      <trkpt lat="43.51589" lon="6.05833">
        <ele>337.08</ele>
        <time>2019-06-04T08:37:08Z</time>
      </trkpt>
      <trkpt lat="43.51585" lon="6.05818">
        <ele>336.6</ele>
        <time>2019-06-04T08:37:18Z</time>
      </trkpt>
      <trkpt lat="43.51582" lon="6.05799">
        <ele>335.64</ele>
        <time>2019-06-04T08:37:31Z</time>
      </trkpt>
      <trkpt lat="43.51577" lon="6.05784">
        <ele>334.68</ele>
        <time>2019-06-04T08:37:43Z</time>
      </trkpt>
      <trkpt lat="43.51577" lon="6.05783">
        <ele>334.68</ele>
        <time>2019-06-04T08:37:44Z</time>
      </trkpt>
      <trkpt lat="43.51577" lon="6.05777">
        <ele>334.68</ele>
        <time>2019-06-04T08:37:47Z</time>
      </trkpt>
      <trkpt lat="43.51571" lon="6.05761">
        <ele>334.68</ele>
        <time>2019-06-04T08:37:58Z</time>
      </trkpt>
      <trkpt lat="43.51568" lon="6.05759">
        <ele>334.2</ele>
        <time>2019-06-04T08:38:04Z</time>
      </trkpt>
      <trkpt lat="43.51567" lon="6.05754">
        <ele>334.68</ele>
        <time>2019-06-04T08:38:07Z</time>
      </trkpt>
      <trkpt lat="43.51567" lon="6.05748">
        <ele>334.68</ele>
        <time>2019-06-04T08:38:11Z</time>
      </trkpt>
      <trkpt lat="43.51563" lon="6.05731">
        <ele>334.68</ele>
        <time>2019-06-04T08:38:22Z</time>
      </trkpt>
      <trkpt lat="43.5156" lon="6.05716">
        <ele>334.68</ele>
        <time>2019-06-04T08:38:33Z</time>
      </trkpt>
      <trkpt lat="43.51559" lon="6.05702">
        <ele>335.16</ele>
        <time>2019-06-04T08:38:42Z</time>
      </trkpt>
      <trkpt lat="43.51559" lon="6.05685">
        <ele>336.12</ele>
        <time>2019-06-04T08:38:53Z</time>
      </trkpt>
      <trkpt lat="43.51557" lon="6.05675">
        <ele>336.6</ele>
        <time>2019-06-04T08:39:02Z</time>
      </trkpt>
      <trkpt lat="43.51553" lon="6.05661">
        <ele>337.56</ele>
        <time>2019-06-04T08:39:12Z</time>
      </trkpt>
      <trkpt lat="43.51548" lon="6.05645">
        <ele>338.04</ele>
        <time>2019-06-04T08:39:23Z</time>
      </trkpt>
      <trkpt lat="43.51547" lon="6.0564">
        <ele>338.04</ele>
        <time>2019-06-04T08:39:26Z</time>
      </trkpt>
      <trkpt lat="43.51546" lon="6.05623">
        <ele>339.48</ele>
        <time>2019-06-04T08:39:38Z</time>
      </trkpt>
      <trkpt lat="43.51547" lon="6.05607">
        <ele>341.41</ele>
        <time>2019-06-04T08:39:49Z</time>
      </trkpt>
      <trkpt lat="43.51549" lon="6.05599">
        <ele>342.85</ele>
        <time>2019-06-04T08:39:58Z</time>
      </trkpt>
      <trkpt lat="43.5155" lon="6.05593">
        <ele>343.81</ele>
        <time>2019-06-04T08:40:03Z</time>
      </trkpt>
      <trkpt lat="43.51553" lon="6.05582">
        <ele>345.73</ele>
        <time>2019-06-04T08:40:14Z</time>
      </trkpt>
      <trkpt lat="43.51555" lon="6.05579">
        <ele>346.21</ele>
        <time>2019-06-04T08:40:18Z</time>
      </trkpt>
      <trkpt lat="43.5156" lon="6.05569">
        <ele>348.13</ele>
        <time>2019-06-04T08:40:29Z</time>
      </trkpt>
      <trkpt lat="43.51563" lon="6.05561">
        <ele>350.06</ele>
        <time>2019-06-04T08:40:38Z</time>
      </trkpt>
      <trkpt lat="43.51562" lon="6.05553">
        <ele>351.5</ele>
        <time>2019-06-04T08:40:48Z</time>
      </trkpt>
      <trkpt lat="43.51562" lon="6.05545">
        <ele>352.94</ele>
        <time>2019-06-04T08:40:57Z</time>
      </trkpt>
      <trkpt lat="43.5156" lon="6.05531">
        <ele>354.38</ele>
        <time>2019-06-04T08:41:07Z</time>
      </trkpt>
      <trkpt lat="43.5156" lon="6.05518">
        <ele>355.34</ele>
        <time>2019-06-04T08:41:17Z</time>
      </trkpt>
      <trkpt lat="43.51559" lon="6.05515">
        <ele>354.86</ele>
        <time>2019-06-04T08:41:27Z</time>
      </trkpt>
      <trkpt lat="43.51558" lon="6.05513">
        <ele>354.86</ele>
        <time>2019-06-04T08:41:46Z</time>
      </trkpt>
      <trkpt lat="43.51559" lon="6.05511">
        <ele>354.86</ele>
        <time>2019-06-04T08:42:05Z</time>
      </trkpt>
      <trkpt lat="43.51553" lon="6.05509">
        <ele>354.86</ele>
        <time>2019-06-04T08:42:18Z</time>
      </trkpt>
      <trkpt lat="43.5155" lon="6.05506">
        <ele>354.86</ele>
        <time>2019-06-04T08:42:20Z</time>
      </trkpt>
      <trkpt lat="43.51545" lon="6.05501">
        <ele>347.65</ele>
        <time>2019-06-04T08:42:24Z</time>
      </trkpt>
      <trkpt lat="43.51544" lon="6.055">
        <ele>354.86</ele>
        <time>2019-06-04T08:42:25Z</time>
      </trkpt>
      <trkpt lat="43.51543" lon="6.05498">
        <ele>360.15</ele>
        <time>2019-06-04T08:42:26Z</time>
      </trkpt>
      <trkpt lat="43.51542" lon="6.05497">
        <ele>354.86</ele>
        <time>2019-06-04T08:42:27Z</time>
      </trkpt>
      <trkpt lat="43.51532" lon="6.05488">
        <ele>354.86</ele>
        <time>2019-06-04T08:42:38Z</time>
      </trkpt>
      <trkpt lat="43.51524" lon="6.05478">
        <ele>354.86</ele>
        <time>2019-06-04T08:42:49Z</time>
      </trkpt>
      <trkpt lat="43.51516" lon="6.05467">
        <ele>355.34</ele>
        <time>2019-06-04T08:42:59Z</time>
      </trkpt>
      <trkpt lat="43.51516" lon="6.05466">
        <ele>355.34</ele>
        <time>2019-06-04T08:43:00Z</time>
      </trkpt>
      <trkpt lat="43.51503" lon="6.05458">
        <ele>356.31</ele>
        <time>2019-06-04T08:43:11Z</time>
      </trkpt>
      <trkpt lat="43.51498" lon="6.05456">
        <ele>356.31</ele>
        <time>2019-06-04T08:43:15Z</time>
      </trkpt>
      <trkpt lat="43.51496" lon="6.05454">
        <ele>356.31</ele>
        <time>2019-06-04T08:43:17Z</time>
      </trkpt>
      <trkpt lat="43.51491" lon="6.05451">
        <ele>356.79</ele>
        <time>2019-06-04T08:43:23Z</time>
      </trkpt>
      <trkpt lat="43.51487" lon="6.05449">
        <ele>357.27</ele>
        <time>2019-06-04T08:43:27Z</time>
      </trkpt>
      <trkpt lat="43.51485" lon="6.05446">
        <ele>357.75</ele>
        <time>2019-06-04T08:43:30Z</time>
      </trkpt>
      <trkpt lat="43.51478" lon="6.05438">
        <ele>359.19</ele>
        <time>2019-06-04T08:43:40Z</time>
      </trkpt>
      <trkpt lat="43.51474" lon="6.05432">
        <ele>359.67</ele>
        <time>2019-06-04T08:43:47Z</time>
      </trkpt>
      <trkpt lat="43.51463" lon="6.05421">
        <ele>360.63</ele>
        <time>2019-06-04T08:43:59Z</time>
      </trkpt>
      <trkpt lat="43.51455" lon="6.05413">
        <ele>361.59</ele>
        <time>2019-06-04T08:44:09Z</time>
      </trkpt>
      <trkpt lat="43.51452" lon="6.0541">
        <ele>362.55</ele>
        <time>2019-06-04T08:44:12Z</time>
      </trkpt>
      <trkpt lat="43.5145" lon="6.05408">
        <ele>362.55</ele>
        <time>2019-06-04T08:44:14Z</time>
      </trkpt>
      <trkpt lat="43.51442" lon="6.05398">
        <ele>363.52</ele>
        <time>2019-06-04T08:44:24Z</time>
      </trkpt>
      <trkpt lat="43.51435" lon="6.0539">
        <ele>364</ele>
        <time>2019-06-04T08:44:34Z</time>
      </trkpt>
      <trkpt lat="43.51429" lon="6.05386">
        <ele>364</ele>
        <time>2019-06-04T08:44:40Z</time>
      </trkpt>
      <trkpt lat="43.51427" lon="6.05384">
        <ele>364</ele>
        <time>2019-06-04T08:44:42Z</time>
      </trkpt>
      <trkpt lat="43.51424" lon="6.05382">
        <ele>364</ele>
        <time>2019-06-04T08:44:45Z</time>
      </trkpt>
      <trkpt lat="43.51416" lon="6.05374">
        <ele>364</ele>
        <time>2019-06-04T08:44:55Z</time>
      </trkpt>
      <trkpt lat="43.51415" lon="6.05373">
        <ele>364</ele>
        <time>2019-06-04T08:44:56Z</time>
      </trkpt>
      <trkpt lat="43.51411" lon="6.05369">
        <ele>364</ele>
        <time>2019-06-04T08:45:00Z</time>
      </trkpt>
      <trkpt lat="43.51407" lon="6.05357">
        <ele>364</ele>
        <time>2019-06-04T08:45:08Z</time>
      </trkpt>
      <trkpt lat="43.51407" lon="6.05356">
        <ele>364</ele>
        <time>2019-06-04T08:45:09Z</time>
      </trkpt>
      <trkpt lat="43.51404" lon="6.0534">
        <ele>364</ele>
        <time>2019-06-04T08:45:20Z</time>
      </trkpt>
      <trkpt lat="43.51404" lon="6.05337">
        <ele>359.67</ele>
        <time>2019-06-04T08:45:22Z</time>
      </trkpt>
      <trkpt lat="43.51404" lon="6.05336">
        <ele>369.28</ele>
        <time>2019-06-04T08:45:23Z</time>
      </trkpt>
      <trkpt lat="43.51404" lon="6.05335">
        <ele>363.52</ele>
        <time>2019-06-04T08:45:24Z</time>
      </trkpt>
      <trkpt lat="43.51405" lon="6.05328">
        <ele>357.75</ele>
        <time>2019-06-04T08:45:30Z</time>
      </trkpt>
      <trkpt lat="43.51405" lon="6.05327">
        <ele>364.48</ele>
        <time>2019-06-04T08:45:31Z</time>
      </trkpt>
      <trkpt lat="43.51402" lon="6.0531">
        <ele>367.36</ele>
        <time>2019-06-04T08:45:43Z</time>
      </trkpt>
      <trkpt lat="43.51402" lon="6.05308">
        <ele>363.52</ele>
        <time>2019-06-04T08:45:44Z</time>
      </trkpt>
      <trkpt lat="43.51402" lon="6.05307">
        <ele>357.27</ele>
        <time>2019-06-04T08:45:45Z</time>
      </trkpt>
      <trkpt lat="43.51402" lon="6.05306">
        <ele>368.32</ele>
        <time>2019-06-04T08:45:46Z</time>
      </trkpt>
      <trkpt lat="43.51402" lon="6.05305">
        <ele>363.52</ele>
        <time>2019-06-04T08:45:47Z</time>
      </trkpt>
      <trkpt lat="43.51402" lon="6.05297">
        <ele>367.84</ele>
        <time>2019-06-04T08:45:53Z</time>
      </trkpt>
      <trkpt lat="43.51402" lon="6.05296">
        <ele>361.59</ele>
        <time>2019-06-04T08:45:54Z</time>
      </trkpt>
      <trkpt lat="43.51402" lon="6.05293">
        <ele>363.04</ele>
        <time>2019-06-04T08:45:56Z</time>
      </trkpt>
      <trkpt lat="43.51403" lon="6.05275">
        <ele>362.07</ele>
        <time>2019-06-04T08:46:07Z</time>
      </trkpt>
      <trkpt lat="43.51404" lon="6.05272">
        <ele>361.59</ele>
        <time>2019-06-04T08:46:12Z</time>
      </trkpt>
      <trkpt lat="43.51404" lon="6.05263">
        <ele>361.11</ele>
        <time>2019-06-04T08:46:18Z</time>
      </trkpt>
      <trkpt lat="43.51402" lon="6.05243">
        <ele>360.15</ele>
        <time>2019-06-04T08:46:31Z</time>
      </trkpt>
      <trkpt lat="43.51403" lon="6.05228">
        <ele>359.19</ele>
        <time>2019-06-04T08:46:42Z</time>
      </trkpt>
      <trkpt lat="43.51403" lon="6.05224">
        <ele>358.71</ele>
        <time>2019-06-04T08:46:44Z</time>
      </trkpt>
      <trkpt lat="43.51402" lon="6.05208">
        <ele>357.75</ele>
        <time>2019-06-04T08:46:55Z</time>
      </trkpt>
      <trkpt lat="43.51402" lon="6.05207">
        <ele>357.27</ele>
        <time>2019-06-04T08:46:57Z</time>
      </trkpt>
      <trkpt lat="43.51397" lon="6.0519">
        <ele>355.83</ele>
        <time>2019-06-04T08:47:09Z</time>
      </trkpt>
      <trkpt lat="43.51396" lon="6.05174">
        <ele>355.34</ele>
        <time>2019-06-04T08:47:18Z</time>
      </trkpt>
      <trkpt lat="43.51395" lon="6.0517">
        <ele>355.34</ele>
        <time>2019-06-04T08:47:20Z</time>
      </trkpt>
      <trkpt lat="43.51389" lon="6.0515">
        <ele>354.86</ele>
        <time>2019-06-04T08:47:32Z</time>
      </trkpt>
      <trkpt lat="43.51386" lon="6.05143">
        <ele>354.38</ele>
        <time>2019-06-04T08:47:37Z</time>
      </trkpt>
      <trkpt lat="43.51383" lon="6.05129">
        <ele>353.42</ele>
        <time>2019-06-04T08:47:48Z</time>
      </trkpt>
      <trkpt lat="43.51381" lon="6.05116">
        <ele>353.42</ele>
        <time>2019-06-04T08:47:59Z</time>
      </trkpt>
      <trkpt lat="43.51379" lon="6.05098">
        <ele>352.94</ele>
        <time>2019-06-04T08:48:10Z</time>
      </trkpt>
      <trkpt lat="43.51378" lon="6.05095">
        <ele>352.94</ele>
        <time>2019-06-04T08:48:13Z</time>
      </trkpt>
      <trkpt lat="43.51379" lon="6.05091">
        <ele>352.94</ele>
        <time>2019-06-04T08:48:16Z</time>
      </trkpt>
      <trkpt lat="43.51382" lon="6.05083">
        <ele>352.94</ele>
        <time>2019-06-04T08:48:20Z</time>
      </trkpt>
      <trkpt lat="43.51383" lon="6.05064">
        <ele>353.42</ele>
        <time>2019-06-04T08:48:32Z</time>
      </trkpt>
      <trkpt lat="43.51383" lon="6.05059">
        <ele>353.42</ele>
        <time>2019-06-04T08:48:35Z</time>
      </trkpt>
      <trkpt lat="43.51384" lon="6.05043">
        <ele>354.38</ele>
        <time>2019-06-04T08:48:45Z</time>
      </trkpt>
      <trkpt lat="43.51383" lon="6.0503">
        <ele>354.38</ele>
        <time>2019-06-04T08:48:56Z</time>
      </trkpt>
      <trkpt lat="43.51374" lon="6.05022">
        <ele>354.86</ele>
        <time>2019-06-04T08:49:08Z</time>
      </trkpt>
      <trkpt lat="43.51372" lon="6.05015">
        <ele>354.38</ele>
        <time>2019-06-04T08:49:23Z</time>
      </trkpt>
      <trkpt lat="43.51372" lon="6.05012">
        <ele>354.38</ele>
        <time>2019-06-04T08:49:25Z</time>
      </trkpt>
      <trkpt lat="43.51372" lon="6.04996">
        <ele>353.9</ele>
        <time>2019-06-04T08:49:36Z</time>
      </trkpt>
      <trkpt lat="43.51371" lon="6.04989">
        <ele>353.9</ele>
        <time>2019-06-04T08:49:40Z</time>
      </trkpt>
      <trkpt lat="43.51368" lon="6.04969">
        <ele>354.86</ele>
        <time>2019-06-04T08:49:52Z</time>
      </trkpt>
      <trkpt lat="43.51367" lon="6.04965">
        <ele>353.9</ele>
        <time>2019-06-04T08:49:54Z</time>
      </trkpt>
      <trkpt lat="43.51365" lon="6.04949">
        <ele>353.9</ele>
        <time>2019-06-04T08:50:04Z</time>
      </trkpt>
      <trkpt lat="43.51364" lon="6.04936">
        <ele>353.9</ele>
        <time>2019-06-04T08:50:15Z</time>
      </trkpt>
      <trkpt lat="43.51364" lon="6.04921">
        <ele>354.38</ele>
        <time>2019-06-04T08:50:27Z</time>
      </trkpt>
      <trkpt lat="43.51362" lon="6.04913">
        <ele>354.86</ele>
        <time>2019-06-04T08:50:33Z</time>
      </trkpt>
      <trkpt lat="43.51358" lon="6.04893">
        <ele>354.86</ele>
        <time>2019-06-04T08:50:45Z</time>
      </trkpt>
      <trkpt lat="43.51357" lon="6.04892">
        <ele>354.86</ele>
        <time>2019-06-04T08:50:46Z</time>
      </trkpt>
      <trkpt lat="43.51352" lon="6.04872">
        <ele>353.9</ele>
        <time>2019-06-04T08:50:59Z</time>
      </trkpt>
      <trkpt lat="43.51351" lon="6.04864">
        <ele>353.42</ele>
        <time>2019-06-04T08:51:03Z</time>
      </trkpt>
      <trkpt lat="43.51351" lon="6.04859">
        <ele>353.42</ele>
        <time>2019-06-04T08:51:06Z</time>
      </trkpt>
      <trkpt lat="43.51346" lon="6.04848">
        <ele>352.46</ele>
        <time>2019-06-04T08:51:15Z</time>
      </trkpt>
      <trkpt lat="43.51342" lon="6.04841">
        <ele>352.46</ele>
        <time>2019-06-04T08:51:28Z</time>
      </trkpt>
      <trkpt lat="43.51341" lon="6.04838">
        <ele>351.98</ele>
        <time>2019-06-04T08:51:30Z</time>
      </trkpt>
      <trkpt lat="43.5134" lon="6.04828">
        <ele>351.5</ele>
        <time>2019-06-04T08:51:37Z</time>
      </trkpt>
      <trkpt lat="43.51339" lon="6.04821">
        <ele>351.02</ele>
        <time>2019-06-04T08:51:42Z</time>
      </trkpt>
      <trkpt lat="43.51336" lon="6.04809">
        <ele>350.06</ele>
        <time>2019-06-04T08:51:49Z</time>
      </trkpt>
      <trkpt lat="43.51336" lon="6.04787">
        <ele>347.65</ele>
        <time>2019-06-04T08:52:02Z</time>
      </trkpt>
      <trkpt lat="43.51339" lon="6.04774">
        <ele>346.69</ele>
        <time>2019-06-04T08:52:11Z</time>
      </trkpt>
      <trkpt lat="43.51339" lon="6.04757">
        <ele>344.77</ele>
        <time>2019-06-04T08:52:22Z</time>
      </trkpt>
      <trkpt lat="43.51341" lon="6.0475">
        <ele>343.81</ele>
        <time>2019-06-04T08:52:27Z</time>
      </trkpt>
      <trkpt lat="43.51342" lon="6.04746">
        <ele>343.33</ele>
        <time>2019-06-04T08:52:30Z</time>
      </trkpt>
      <trkpt lat="43.51343" lon="6.04735">
        <ele>342.37</ele>
        <time>2019-06-04T08:52:38Z</time>
      </trkpt>
      <trkpt lat="43.51343" lon="6.04721">
        <ele>340.92</ele>
        <time>2019-06-04T08:52:47Z</time>
      </trkpt>
      <trkpt lat="43.51343" lon="6.04719">
        <ele>340.44</ele>
        <time>2019-06-04T08:52:49Z</time>
      </trkpt>
      <trkpt lat="43.51343" lon="6.04717">
        <ele>340.44</ele>
        <time>2019-06-04T08:52:51Z</time>
      </trkpt>
      <trkpt lat="43.51341" lon="6.04707">
        <ele>339.48</ele>
        <time>2019-06-04T08:52:58Z</time>
      </trkpt>
      <trkpt lat="43.51337" lon="6.04698">
        <ele>338.04</ele>
        <time>2019-06-04T08:53:05Z</time>
      </trkpt>
      <trkpt lat="43.51323" lon="6.04685">
        <ele>337.08</ele>
        <time>2019-06-04T08:53:13Z</time>
      </trkpt>
      <trkpt lat="43.5132" lon="6.04684">
        <ele>337.08</ele>
        <time>2019-06-04T08:53:15Z</time>
      </trkpt>
      <trkpt lat="43.51318" lon="6.04682">
        <ele>336.6</ele>
        <time>2019-06-04T08:53:18Z</time>
      </trkpt>
      <trkpt lat="43.5131" lon="6.04678">
        <ele>330.83</ele>
        <time>2019-06-04T08:53:27Z</time>
      </trkpt>
      <trkpt lat="43.51308" lon="6.04677">
        <ele>339</ele>
        <time>2019-06-04T08:53:28Z</time>
      </trkpt>
      <trkpt lat="43.51307" lon="6.04676">
        <ele>337.56</ele>
        <time>2019-06-04T08:53:29Z</time>
      </trkpt>
      <trkpt lat="43.51305" lon="6.04675">
        <ele>335.64</ele>
        <time>2019-06-04T08:53:31Z</time>
      </trkpt>
      <trkpt lat="43.51304" lon="6.04675">
        <ele>335.16</ele>
        <time>2019-06-04T08:53:34Z</time>
      </trkpt>
      <trkpt lat="43.51299" lon="6.04672">
        <ele>335.16</ele>
        <time>2019-06-04T08:53:37Z</time>
      </trkpt>
      <trkpt lat="43.51296" lon="6.04668">
        <ele>334.68</ele>
        <time>2019-06-04T08:53:46Z</time>
      </trkpt>
      <trkpt lat="43.51295" lon="6.04669">
        <ele>334.2</ele>
        <time>2019-06-04T08:54:03Z</time>
      </trkpt>
      <trkpt lat="43.51294" lon="6.04669">
        <ele>334.2</ele>
        <time>2019-06-04T08:54:15Z</time>
      </trkpt>
      <trkpt lat="43.51294" lon="6.0467">
        <ele>334.2</ele>
        <time>2019-06-04T08:54:38Z</time>
      </trkpt>
      <trkpt lat="43.51294" lon="6.04669">
        <ele>334.2</ele>
        <time>2019-06-04T08:54:42Z</time>
      </trkpt>
      <trkpt lat="43.51292" lon="6.04661">
        <ele>333.71</ele>
        <time>2019-06-04T08:54:47Z</time>
      </trkpt>
      <trkpt lat="43.51288" lon="6.04657">
        <ele>333.71</ele>
        <time>2019-06-04T08:54:51Z</time>
      </trkpt>
      <trkpt lat="43.51284" lon="6.04655">
        <ele>333.71</ele>
        <time>2019-06-04T08:54:54Z</time>
      </trkpt>
      <trkpt lat="43.5127" lon="6.04653">
        <ele>333.71</ele>
        <time>2019-06-04T08:55:04Z</time>
      </trkpt>
      <trkpt lat="43.51269" lon="6.04653">
        <ele>333.71</ele>
        <time>2019-06-04T08:55:05Z</time>
      </trkpt>
      <trkpt lat="43.51266" lon="6.04652">
        <ele>333.71</ele>
        <time>2019-06-04T08:55:07Z</time>
      </trkpt>
      <trkpt lat="43.51263" lon="6.04652">
        <ele>333.71</ele>
        <time>2019-06-04T08:55:10Z</time>
      </trkpt>
      <trkpt lat="43.51249" lon="6.04654">
        <ele>332.75</ele>
        <time>2019-06-04T08:55:20Z</time>
      </trkpt>
      <trkpt lat="43.51243" lon="6.04654">
        <ele>332.75</ele>
        <time>2019-06-04T08:55:24Z</time>
      </trkpt>
      <trkpt lat="43.5124" lon="6.04653">
        <ele>332.75</ele>
        <time>2019-06-04T08:55:27Z</time>
      </trkpt>
      <trkpt lat="43.51228" lon="6.04653">
        <ele>332.27</ele>
        <time>2019-06-04T08:55:35Z</time>
      </trkpt>
      <trkpt lat="43.51225" lon="6.04655">
        <ele>331.79</ele>
        <time>2019-06-04T08:55:38Z</time>
      </trkpt>
      <trkpt lat="43.51214" lon="6.04654">
        <ele>332.27</ele>
        <time>2019-06-04T08:55:46Z</time>
      </trkpt>
      <trkpt lat="43.51212" lon="6.04655">
        <ele>331.79</ele>
        <time>2019-06-04T08:55:48Z</time>
      </trkpt>
      <trkpt lat="43.51209" lon="6.04658">
        <ele>331.79</ele>
        <time>2019-06-04T08:55:51Z</time>
      </trkpt>
      <trkpt lat="43.51198" lon="6.04659">
        <ele>331.31</ele>
        <time>2019-06-04T08:56:00Z</time>
      </trkpt>
      <trkpt lat="43.51189" lon="6.0465">
        <ele>330.83</ele>
        <time>2019-06-04T08:56:09Z</time>
      </trkpt>
      <trkpt lat="43.51182" lon="6.0464">
        <ele>330.35</ele>
        <time>2019-06-04T08:56:19Z</time>
      </trkpt>
      <trkpt lat="43.51171" lon="6.04625">
        <ele>330.35</ele>
        <time>2019-06-04T08:56:31Z</time>
      </trkpt>
      <trkpt lat="43.51159" lon="6.04614">
        <ele>330.35</ele>
        <time>2019-06-04T08:56:41Z</time>
      </trkpt>
      <trkpt lat="43.51148" lon="6.04599">
        <ele>330.83</ele>
        <time>2019-06-04T08:56:54Z</time>
      </trkpt>
      <trkpt lat="43.51139" lon="6.04587">
        <ele>331.31</ele>
        <time>2019-06-04T08:57:04Z</time>
      </trkpt>
      <trkpt lat="43.51131" lon="6.04575">
        <ele>332.27</ele>
        <time>2019-06-04T08:57:14Z</time>
      </trkpt>
      <trkpt lat="43.51122" lon="6.04564">
        <ele>332.75</ele>
        <time>2019-06-04T08:57:24Z</time>
      </trkpt>
      <trkpt lat="43.51121" lon="6.04564">
        <ele>332.75</ele>
        <time>2019-06-04T08:57:25Z</time>
      </trkpt>
      <trkpt lat="43.51108" lon="6.04564">
        <ele>333.71</ele>
        <time>2019-06-04T08:57:36Z</time>
      </trkpt>
      <trkpt lat="43.51107" lon="6.04564">
        <ele>333.71</ele>
        <time>2019-06-04T08:57:37Z</time>
      </trkpt>
      <trkpt lat="43.511" lon="6.04568">
        <ele>334.2</ele>
        <time>2019-06-04T08:57:43Z</time>
      </trkpt>
      <trkpt lat="43.51089" lon="6.04576">
        <ele>334.68</ele>
        <time>2019-06-04T08:57:53Z</time>
      </trkpt>
      <trkpt lat="43.51088" lon="6.04576">
        <ele>334.68</ele>
        <time>2019-06-04T08:57:54Z</time>
      </trkpt>
      <trkpt lat="43.51077" lon="6.04579">
        <ele>334.68</ele>
        <time>2019-06-04T08:58:03Z</time>
      </trkpt>
      <trkpt lat="43.5107" lon="6.0458">
        <ele>334.2</ele>
        <time>2019-06-04T08:58:12Z</time>
      </trkpt>
      <trkpt lat="43.5107" lon="6.0458">
        <ele>334.2</ele>
        <time>2019-06-04T08:58:14Z</time>
      </trkpt>
      <trkpt lat="43.51067" lon="6.04579">
        <ele>334.2</ele>
        <time>2019-06-04T08:58:16Z</time>
      </trkpt>
      <trkpt lat="43.51062" lon="6.04578">
        <ele>334.2</ele>
        <time>2019-06-04T08:58:21Z</time>
      </trkpt>
      <trkpt lat="43.5106" lon="6.04577">
        <ele>333.71</ele>
        <time>2019-06-04T08:58:24Z</time>
      </trkpt>
      <trkpt lat="43.51058" lon="6.04577">
        <ele>333.71</ele>
        <time>2019-06-04T08:58:26Z</time>
      </trkpt>
      <trkpt lat="43.51046" lon="6.04576">
        <ele>332.75</ele>
        <time>2019-06-04T08:58:36Z</time>
      </trkpt>
      <trkpt lat="43.51046" lon="6.04576">
        <ele>332.75</ele>
        <time>2019-06-04T08:58:37Z</time>
      </trkpt>
      <trkpt lat="43.51043" lon="6.04575">
        <ele>332.75</ele>
        <time>2019-06-04T08:58:40Z</time>
      </trkpt>
      <trkpt lat="43.51034" lon="6.04577">
        <ele>332.27</ele>
        <time>2019-06-04T08:58:48Z</time>
      </trkpt>
      <trkpt lat="43.51024" lon="6.0458">
        <ele>331.79</ele>
        <time>2019-06-04T08:58:57Z</time>
      </trkpt>
      <trkpt lat="43.51024" lon="6.0458">
        <ele>331.79</ele>
        <time>2019-06-04T08:58:58Z</time>
      </trkpt>
      <trkpt lat="43.51016" lon="6.04583">
        <ele>331.31</ele>
        <time>2019-06-04T08:59:06Z</time>
      </trkpt>
      <trkpt lat="43.51014" lon="6.04583">
        <ele>331.31</ele>
        <time>2019-06-04T08:59:08Z</time>
      </trkpt>
      <trkpt lat="43.51006" lon="6.04587">
        <ele>330.83</ele>
        <time>2019-06-04T08:59:15Z</time>
      </trkpt>
      <trkpt lat="43.50995" lon="6.0459">
        <ele>330.83</ele>
        <time>2019-06-04T08:59:25Z</time>
      </trkpt>
      <trkpt lat="43.50983" lon="6.04594">
        <ele>330.83</ele>
        <time>2019-06-04T08:59:35Z</time>
      </trkpt>
      <trkpt lat="43.50975" lon="6.04603">
        <ele>331.79</ele>
        <time>2019-06-04T08:59:45Z</time>
      </trkpt>
      <trkpt lat="43.50968" lon="6.04605">
        <ele>330.35</ele>
        <time>2019-06-04T08:59:54Z</time>
      </trkpt>
      <trkpt lat="43.50965" lon="6.04606">
        <ele>330.35</ele>
        <time>2019-06-04T08:59:57Z</time>
      </trkpt>
      <trkpt lat="43.50962" lon="6.04607">
        <ele>330.35</ele>
        <time>2019-06-04T09:00:00Z</time>
      </trkpt>
      <trkpt lat="43.50957" lon="6.04608">
        <ele>329.87</ele>
        <time>2019-06-04T09:00:05Z</time>
      </trkpt>
      <trkpt lat="43.50945" lon="6.04611">
        <ele>329.39</ele>
        <time>2019-06-04T09:00:17Z</time>
      </trkpt>
      <trkpt lat="43.50938" lon="6.04615">
        <ele>328.91</ele>
        <time>2019-06-04T09:00:23Z</time>
      </trkpt>
      <trkpt lat="43.50932" lon="6.04622">
        <ele>328.91</ele>
        <time>2019-06-04T09:00:32Z</time>
      </trkpt>
      <trkpt lat="43.50931" lon="6.04623">
        <ele>328.91</ele>
        <time>2019-06-04T09:00:33Z</time>
      </trkpt>
      <trkpt lat="43.50928" lon="6.04629">
        <ele>328.43</ele>
        <time>2019-06-04T09:00:38Z</time>
      </trkpt>
      <trkpt lat="43.50927" lon="6.04633">
        <ele>327.95</ele>
        <time>2019-06-04T09:00:41Z</time>
      </trkpt>
      <trkpt lat="43.5092" lon="6.04641">
        <ele>327.47</ele>
        <time>2019-06-04T09:00:51Z</time>
      </trkpt>
      <trkpt lat="43.5091" lon="6.04645">
        <ele>326.02</ele>
        <time>2019-06-04T09:01:01Z</time>
      </trkpt>
      <trkpt lat="43.50905" lon="6.04642">
        <ele>325.54</ele>
        <time>2019-06-04T09:01:07Z</time>
      </trkpt>
      <trkpt lat="43.509" lon="6.04632">
        <ele>325.54</ele>
        <time>2019-06-04T09:01:19Z</time>
      </trkpt>
      <trkpt lat="43.50897" lon="6.04633">
        <ele>325.54</ele>
        <time>2019-06-04T09:01:30Z</time>
      </trkpt>
      <trkpt lat="43.50895" lon="6.04623">
        <ele>325.54</ele>
        <time>2019-06-04T09:01:38Z</time>
      </trkpt>
      <trkpt lat="43.50893" lon="6.0462">
        <ele>325.06</ele>
        <time>2019-06-04T09:01:41Z</time>
      </trkpt>
      <trkpt lat="43.50883" lon="6.04608">
        <ele>324.1</ele>
        <time>2019-06-04T09:01:53Z</time>
      </trkpt>
      <trkpt lat="43.50876" lon="6.04598">
        <ele>323.62</ele>
        <time>2019-06-04T09:02:03Z</time>
      </trkpt>
      <trkpt lat="43.50875" lon="6.04593">
        <ele>323.62</ele>
        <time>2019-06-04T09:02:07Z</time>
      </trkpt>
      <trkpt lat="43.50872" lon="6.04584">
        <ele>323.62</ele>
        <time>2019-06-04T09:02:13Z</time>
      </trkpt>
      <trkpt lat="43.50868" lon="6.04567">
        <ele>324.1</ele>
        <time>2019-06-04T09:02:25Z</time>
      </trkpt>
      <trkpt lat="43.50862" lon="6.04552">
        <ele>324.1</ele>
        <time>2019-06-04T09:02:35Z</time>
      </trkpt>
      <trkpt lat="43.50857" lon="6.0454">
        <ele>324.1</ele>
        <time>2019-06-04T09:02:44Z</time>
      </trkpt>
      <trkpt lat="43.50849" lon="6.04523">
        <ele>324.58</ele>
        <time>2019-06-04T09:02:56Z</time>
      </trkpt>
      <trkpt lat="43.50844" lon="6.04509">
        <ele>325.06</ele>
        <time>2019-06-04T09:03:06Z</time>
      </trkpt>
      <trkpt lat="43.50838" lon="6.04492">
        <ele>326.02</ele>
        <time>2019-06-04T09:03:17Z</time>
      </trkpt>
      <trkpt lat="43.50836" lon="6.04478">
        <ele>326.5</ele>
        <time>2019-06-04T09:03:27Z</time>
      </trkpt>
      <trkpt lat="43.50831" lon="6.0446">
        <ele>326.99</ele>
        <time>2019-06-04T09:03:38Z</time>
      </trkpt>
      <trkpt lat="43.50828" lon="6.04446">
        <ele>328.43</ele>
        <time>2019-06-04T09:03:49Z</time>
      </trkpt>
      <trkpt lat="43.50826" lon="6.04434">
        <ele>328.91</ele>
        <time>2019-06-04T09:03:57Z</time>
      </trkpt>
      <trkpt lat="43.50826" lon="6.04417">
        <ele>329.39</ele>
        <time>2019-06-04T09:04:09Z</time>
      </trkpt>
      <trkpt lat="43.50824" lon="6.04403">
        <ele>329.87</ele>
        <time>2019-06-04T09:04:19Z</time>
      </trkpt>
      <trkpt lat="43.50823" lon="6.04396">
        <ele>330.35</ele>
        <time>2019-06-04T09:04:24Z</time>
      </trkpt>
      <trkpt lat="43.50818" lon="6.04381">
        <ele>330.35</ele>
        <time>2019-06-04T09:04:35Z</time>
      </trkpt>
      <trkpt lat="43.50815" lon="6.04369">
        <ele>331.31</ele>
        <time>2019-06-04T09:04:44Z</time>
      </trkpt>
      <trkpt lat="43.50813" lon="6.04359">
        <ele>331.79</ele>
        <time>2019-06-04T09:04:52Z</time>
      </trkpt>
      <trkpt lat="43.50809" lon="6.04342">
        <ele>332.27</ele>
        <time>2019-06-04T09:05:01Z</time>
      </trkpt>
      <trkpt lat="43.50801" lon="6.04331">
        <ele>332.75</ele>
        <time>2019-06-04T09:05:13Z</time>
      </trkpt>
      <trkpt lat="43.508" lon="6.0433">
        <ele>328.91</ele>
        <time>2019-06-04T09:05:25Z</time>
      </trkpt>
      <trkpt lat="43.508" lon="6.0433">
        <ele>338.04</ele>
        <time>2019-06-04T09:05:26Z</time>
      </trkpt>
      <trkpt lat="43.50799" lon="6.0433">
        <ele>333.23</ele>
        <time>2019-06-04T09:05:27Z</time>
      </trkpt>
      <trkpt lat="43.50798" lon="6.04329">
        <ele>332.75</ele>
        <time>2019-06-04T09:05:40Z</time>
      </trkpt>
      <trkpt lat="43.50797" lon="6.04328">
        <ele>332.75</ele>
        <time>2019-06-04T09:05:58Z</time>
      </trkpt>
      <trkpt lat="43.50796" lon="6.04325">
        <ele>332.75</ele>
        <time>2019-06-04T09:06:20Z</time>
      </trkpt>
      <trkpt lat="43.50795" lon="6.04324">
        <ele>332.75</ele>
        <time>2019-06-04T09:06:37Z</time>
      </trkpt>
      <trkpt lat="43.50794" lon="6.04322">
        <ele>332.75</ele>
        <time>2019-06-04T09:06:59Z</time>
      </trkpt>
      <trkpt lat="43.50794" lon="6.04321">
        <ele>332.75</ele>
        <time>2019-06-04T09:07:26Z</time>
      </trkpt>
      <trkpt lat="43.50795" lon="6.0432">
        <ele>332.75</ele>
        <time>2019-06-04T09:07:48Z</time>
      </trkpt>
      <trkpt lat="43.50795" lon="6.04319">
        <ele>332.75</ele>
        <time>2019-06-04T09:08:13Z</time>
      </trkpt>
      <trkpt lat="43.50793" lon="6.04316">
        <ele>332.75</ele>
        <time>2019-06-04T09:08:23Z</time>
      </trkpt>
      <trkpt lat="43.50788" lon="6.04312">
        <ele>332.75</ele>
        <time>2019-06-04T09:08:29Z</time>
      </trkpt>
      <trkpt lat="43.50783" lon="6.04304">
        <ele>332.75</ele>
        <time>2019-06-04T09:08:38Z</time>
      </trkpt>
      <trkpt lat="43.50765" lon="6.04298">
        <ele>331.79</ele>
        <time>2019-06-04T09:08:49Z</time>
      </trkpt>
      <trkpt lat="43.50757" lon="6.04299">
        <ele>333.71</ele>
        <time>2019-06-04T09:08:56Z</time>
      </trkpt>
      <trkpt lat="43.50754" lon="6.04299">
        <ele>333.71</ele>
        <time>2019-06-04T09:08:58Z</time>
      </trkpt>
      <trkpt lat="43.50747" lon="6.043">
        <ele>332.27</ele>
        <time>2019-06-04T09:09:03Z</time>
      </trkpt>
      <trkpt lat="43.50746" lon="6.043">
        <ele>338.52</ele>
        <time>2019-06-04T09:09:04Z</time>
      </trkpt>
      <trkpt lat="43.50745" lon="6.04301">
        <ele>333.71</ele>
        <time>2019-06-04T09:09:05Z</time>
      </trkpt>
      <trkpt lat="43.50741" lon="6.04302">
        <ele>338.04</ele>
        <time>2019-06-04T09:09:08Z</time>
      </trkpt>
      <trkpt lat="43.5074" lon="6.04302">
        <ele>334.68</ele>
        <time>2019-06-04T09:09:09Z</time>
      </trkpt>
      <trkpt lat="43.50738" lon="6.04305">
        <ele>334.68</ele>
        <time>2019-06-04T09:09:12Z</time>
      </trkpt>
      <trkpt lat="43.50734" lon="6.04308">
        <ele>330.35</ele>
        <time>2019-06-04T09:09:15Z</time>
      </trkpt>
      <trkpt lat="43.50732" lon="6.04311">
        <ele>335.16</ele>
        <time>2019-06-04T09:09:17Z</time>
      </trkpt>
      <trkpt lat="43.50729" lon="6.04314">
        <ele>335.16</ele>
        <time>2019-06-04T09:09:20Z</time>
      </trkpt>
      <trkpt lat="43.50718" lon="6.04317">
        <ele>336.12</ele>
        <time>2019-06-04T09:09:30Z</time>
      </trkpt>
      <trkpt lat="43.50712" lon="6.04318">
        <ele>337.56</ele>
        <time>2019-06-04T09:09:37Z</time>
      </trkpt>
      <trkpt lat="43.50704" lon="6.04323">
        <ele>339.96</ele>
        <time>2019-06-04T09:09:46Z</time>
      </trkpt>
      <trkpt lat="43.50698" lon="6.04329">
        <ele>340.92</ele>
        <time>2019-06-04T09:09:57Z</time>
      </trkpt>
      <trkpt lat="43.50693" lon="6.04335">
        <ele>341.89</ele>
        <time>2019-06-04T09:10:04Z</time>
      </trkpt>
      <trkpt lat="43.50685" lon="6.04342">
        <ele>343.33</ele>
        <time>2019-06-04T09:10:15Z</time>
      </trkpt>
      <trkpt lat="43.50684" lon="6.04343">
        <ele>343.33</ele>
        <time>2019-06-04T09:10:17Z</time>
      </trkpt>
      <trkpt lat="43.50676" lon="6.04349">
        <ele>344.29</ele>
        <time>2019-06-04T09:10:27Z</time>
      </trkpt>
      <trkpt lat="43.50672" lon="6.04349">
        <ele>344.77</ele>
        <time>2019-06-04T09:10:31Z</time>
      </trkpt>
      <trkpt lat="43.50662" lon="6.04353">
        <ele>345.25</ele>
        <time>2019-06-04T09:10:41Z</time>
      </trkpt>
      <trkpt lat="43.5066" lon="6.04354">
        <ele>345.25</ele>
        <time>2019-06-04T09:10:43Z</time>
      </trkpt>
      <trkpt lat="43.50655" lon="6.04358">
        <ele>345.73</ele>
        <time>2019-06-04T09:10:47Z</time>
      </trkpt>
      <trkpt lat="43.50648" lon="6.04367">
        <ele>346.69</ele>
        <time>2019-06-04T09:10:55Z</time>
      </trkpt>
      <trkpt lat="43.50643" lon="6.04374">
        <ele>346.69</ele>
        <time>2019-06-04T09:11:01Z</time>
      </trkpt>
      <trkpt lat="43.5063" lon="6.04377">
        <ele>347.17</ele>
        <time>2019-06-04T09:11:12Z</time>
      </trkpt>
      <trkpt lat="43.50628" lon="6.04376">
        <ele>347.17</ele>
        <time>2019-06-04T09:11:15Z</time>
      </trkpt>
      <trkpt lat="43.50619" lon="6.04375">
        <ele>347.17</ele>
        <time>2019-06-04T09:11:23Z</time>
      </trkpt>
      <trkpt lat="43.50616" lon="6.04375">
        <ele>347.17</ele>
        <time>2019-06-04T09:11:28Z</time>
      </trkpt>
      <trkpt lat="43.50613" lon="6.04373">
        <ele>347.17</ele>
        <time>2019-06-04T09:11:37Z</time>
      </trkpt>
      <trkpt lat="43.50613" lon="6.04373">
        <ele>347.17</ele>
        <time>2019-06-04T09:11:40Z</time>
      </trkpt>
      <trkpt lat="43.50613" lon="6.04374">
        <ele>346.69</ele>
        <time>2019-06-04T09:11:51Z</time>
      </trkpt>
      <trkpt lat="43.50612" lon="6.04373">
        <ele>346.69</ele>
        <time>2019-06-04T09:12:02Z</time>
      </trkpt>
      <trkpt lat="43.50611" lon="6.04373">
        <ele>347.17</ele>
        <time>2019-06-04T09:12:20Z</time>
      </trkpt>
      <trkpt lat="43.50598" lon="6.04369">
        <ele>346.21</ele>
        <time>2019-06-04T09:12:31Z</time>
      </trkpt>
      <trkpt lat="43.50588" lon="6.04368">
        <ele>345.25</ele>
        <time>2019-06-04T09:12:41Z</time>
      </trkpt>
      <trkpt lat="43.50588" lon="6.04368">
        <ele>345.25</ele>
        <time>2019-06-04T09:12:42Z</time>
      </trkpt>
      <trkpt lat="43.50582" lon="6.04366">
        <ele>345.25</ele>
        <time>2019-06-04T09:12:45Z</time>
      </trkpt>
      <trkpt lat="43.50578" lon="6.04364">
        <ele>344.77</ele>
        <time>2019-06-04T09:12:50Z</time>
      </trkpt>
      <trkpt lat="43.50574" lon="6.04364">
        <ele>344.77</ele>
        <time>2019-06-04T09:12:52Z</time>
      </trkpt>
      <trkpt lat="43.50568" lon="6.04362">
        <ele>343.81</ele>
        <time>2019-06-04T09:12:58Z</time>
      </trkpt>
      <trkpt lat="43.50561" lon="6.04362">
        <ele>343.81</ele>
        <time>2019-06-04T09:13:01Z</time>
      </trkpt>
      <trkpt lat="43.50558" lon="6.04361">
        <ele>343.33</ele>
        <time>2019-06-04T09:13:05Z</time>
      </trkpt>
      <trkpt lat="43.50553" lon="6.04362">
        <ele>343.33</ele>
        <time>2019-06-04T09:13:08Z</time>
      </trkpt>
      <trkpt lat="43.50545" lon="6.04357">
        <ele>341.89</ele>
        <time>2019-06-04T09:13:16Z</time>
      </trkpt>
      <trkpt lat="43.50534" lon="6.0435">
        <ele>341.41</ele>
        <time>2019-06-04T09:13:24Z</time>
      </trkpt>
      <trkpt lat="43.50533" lon="6.0435">
        <ele>341.41</ele>
        <time>2019-06-04T09:13:26Z</time>
      </trkpt>
      <trkpt lat="43.50522" lon="6.04352">
        <ele>340.44</ele>
        <time>2019-06-04T09:13:35Z</time>
      </trkpt>
      <trkpt lat="43.50513" lon="6.04355">
        <ele>339.96</ele>
        <time>2019-06-04T09:13:42Z</time>
      </trkpt>
      <trkpt lat="43.50507" lon="6.04362">
        <ele>340.44</ele>
        <time>2019-06-04T09:13:47Z</time>
      </trkpt>
      <trkpt lat="43.50506" lon="6.04366">
        <ele>339</ele>
        <time>2019-06-04T09:13:50Z</time>
      </trkpt>
      <trkpt lat="43.50505" lon="6.04373">
        <ele>338.52</ele>
        <time>2019-06-04T09:13:54Z</time>
      </trkpt>
      <trkpt lat="43.50503" lon="6.04385">
        <ele>337.56</ele>
        <time>2019-06-04T09:14:01Z</time>
      </trkpt>
      <trkpt lat="43.50492" lon="6.04394">
        <ele>337.08</ele>
        <time>2019-06-04T09:14:11Z</time>
      </trkpt>
      <trkpt lat="43.5049" lon="6.04394">
        <ele>337.08</ele>
        <time>2019-06-04T09:14:13Z</time>
      </trkpt>
      <trkpt lat="43.50487" lon="6.04394">
        <ele>339</ele>
        <time>2019-06-04T09:14:15Z</time>
      </trkpt>
      <trkpt lat="43.5048" lon="6.04396">
        <ele>333.23</ele>
        <time>2019-06-04T09:14:21Z</time>
      </trkpt>
      <trkpt lat="43.50479" lon="6.04396">
        <ele>339</ele>
        <time>2019-06-04T09:14:22Z</time>
      </trkpt>
      <trkpt lat="43.50477" lon="6.04396">
        <ele>335.16</ele>
        <time>2019-06-04T09:14:23Z</time>
      </trkpt>
      <trkpt lat="43.50474" lon="6.04394">
        <ele>336.12</ele>
        <time>2019-06-04T09:14:27Z</time>
      </trkpt>
      <trkpt lat="43.50469" lon="6.04384">
        <ele>336.12</ele>
        <time>2019-06-04T09:14:35Z</time>
      </trkpt>
      <trkpt lat="43.50468" lon="6.04384">
        <ele>335.64</ele>
        <time>2019-06-04T09:14:38Z</time>
      </trkpt>
      <trkpt lat="43.50466" lon="6.0438">
        <ele>335.64</ele>
        <time>2019-06-04T09:14:44Z</time>
      </trkpt>
      <trkpt lat="43.50464" lon="6.04372">
        <ele>335.64</ele>
        <time>2019-06-04T09:14:50Z</time>
      </trkpt>
      <trkpt lat="43.50458" lon="6.04364">
        <ele>334.68</ele>
        <time>2019-06-04T09:14:58Z</time>
      </trkpt>
      <trkpt lat="43.50454" lon="6.04353">
        <ele>334.2</ele>
        <time>2019-06-04T09:15:05Z</time>
      </trkpt>
      <trkpt lat="43.50452" lon="6.04343">
        <ele>333.71</ele>
        <time>2019-06-04T09:15:13Z</time>
      </trkpt>
      <trkpt lat="43.50451" lon="6.04342">
        <ele>333.71</ele>
        <time>2019-06-04T09:15:14Z</time>
      </trkpt>
      <trkpt lat="43.50448" lon="6.04326">
        <ele>333.71</ele>
        <time>2019-06-04T09:15:23Z</time>
      </trkpt>
      <trkpt lat="43.50448" lon="6.04325">
        <ele>333.71</ele>
        <time>2019-06-04T09:15:24Z</time>
      </trkpt>
      <trkpt lat="43.50447" lon="6.04318">
        <ele>333.23</ele>
        <time>2019-06-04T09:15:29Z</time>
      </trkpt>
      <trkpt lat="43.50444" lon="6.04303">
        <ele>332.75</ele>
        <time>2019-06-04T09:15:37Z</time>
      </trkpt>
      <trkpt lat="43.5044" lon="6.04291">
        <ele>332.27</ele>
        <time>2019-06-04T09:15:45Z</time>
      </trkpt>
      <trkpt lat="43.5044" lon="6.0429">
        <ele>332.27</ele>
        <time>2019-06-04T09:15:46Z</time>
      </trkpt>
      <trkpt lat="43.50438" lon="6.04277">
        <ele>331.79</ele>
        <time>2019-06-04T09:15:54Z</time>
      </trkpt>
      <trkpt lat="43.50437" lon="6.04276">
        <ele>331.79</ele>
        <time>2019-06-04T09:15:55Z</time>
      </trkpt>
      <trkpt lat="43.50436" lon="6.04272">
        <ele>331.79</ele>
        <time>2019-06-04T09:15:57Z</time>
      </trkpt>
      <trkpt lat="43.50436" lon="6.04259">
        <ele>331.31</ele>
        <time>2019-06-04T09:16:05Z</time>
      </trkpt>
      <trkpt lat="43.50436" lon="6.04259">
        <ele>330.83</ele>
        <time>2019-06-04T09:16:06Z</time>
      </trkpt>
      <trkpt lat="43.50436" lon="6.04243">
        <ele>330.83</ele>
        <time>2019-06-04T09:16:14Z</time>
      </trkpt>
      <trkpt lat="43.50435" lon="6.04234">
        <ele>331.31</ele>
        <time>2019-06-04T09:16:22Z</time>
      </trkpt>
      <trkpt lat="43.50434" lon="6.04234">
        <ele>331.31</ele>
        <time>2019-06-04T09:16:43Z</time>
      </trkpt>
      <trkpt lat="43.50435" lon="6.04235">
        <ele>331.31</ele>
        <time>2019-06-04T09:16:44Z</time>
      </trkpt>
      <trkpt lat="43.50439" lon="6.04233">
        <ele>331.79</ele>
        <time>2019-06-04T09:16:49Z</time>
      </trkpt>
      <trkpt lat="43.50441" lon="6.0423">
        <ele>332.27</ele>
        <time>2019-06-04T09:16:53Z</time>
      </trkpt>
      <trkpt lat="43.50441" lon="6.04218">
        <ele>331.79</ele>
        <time>2019-06-04T09:17:02Z</time>
      </trkpt>
      <trkpt lat="43.50439" lon="6.04211">
        <ele>331.31</ele>
        <time>2019-06-04T09:17:10Z</time>
      </trkpt>
      <trkpt lat="43.50431" lon="6.04202">
        <ele>331.31</ele>
        <time>2019-06-04T09:17:21Z</time>
      </trkpt>
      <trkpt lat="43.50429" lon="6.04198">
        <ele>331.31</ele>
        <time>2019-06-04T09:17:23Z</time>
      </trkpt>
      <trkpt lat="43.50428" lon="6.04195">
        <ele>331.31</ele>
        <time>2019-06-04T09:17:25Z</time>
      </trkpt>
      <trkpt lat="43.50424" lon="6.04188">
        <ele>331.79</ele>
        <time>2019-06-04T09:17:31Z</time>
      </trkpt>
      <trkpt lat="43.50421" lon="6.04176">
        <ele>331.79</ele>
        <time>2019-06-04T09:17:40Z</time>
      </trkpt>
      <trkpt lat="43.50417" lon="6.04165">
        <ele>331.79</ele>
        <time>2019-06-04T09:17:48Z</time>
      </trkpt>
      <trkpt lat="43.50413" lon="6.04149">
        <ele>331.31</ele>
        <time>2019-06-04T09:17:58Z</time>
      </trkpt>
      <trkpt lat="43.50411" lon="6.04147">
        <ele>331.31</ele>
        <time>2019-06-04T09:18:01Z</time>
      </trkpt>
      <trkpt lat="43.5041" lon="6.04139">
        <ele>331.31</ele>
        <time>2019-06-04T09:18:06Z</time>
      </trkpt>
      <trkpt lat="43.50409" lon="6.04127">
        <ele>331.31</ele>
        <time>2019-06-04T09:18:13Z</time>
      </trkpt>
      <trkpt lat="43.50409" lon="6.04127">
        <ele>331.31</ele>
        <time>2019-06-04T09:18:14Z</time>
      </trkpt>
      <trkpt lat="43.50403" lon="6.04114">
        <ele>331.79</ele>
        <time>2019-06-04T09:18:22Z</time>
      </trkpt>
      <trkpt lat="43.50402" lon="6.04111">
        <ele>330.83</ele>
        <time>2019-06-04T09:18:24Z</time>
      </trkpt>
      <trkpt lat="43.50401" lon="6.04107">
        <ele>335.16</ele>
        <time>2019-06-04T09:18:26Z</time>
      </trkpt>
      <trkpt lat="43.50399" lon="6.04104">
        <ele>326.02</ele>
        <time>2019-06-04T09:18:28Z</time>
      </trkpt>
      <trkpt lat="43.50399" lon="6.04103">
        <ele>337.08</ele>
        <time>2019-06-04T09:18:29Z</time>
      </trkpt>
      <trkpt lat="43.50398" lon="6.04102">
        <ele>331.79</ele>
        <time>2019-06-04T09:18:30Z</time>
      </trkpt>
      <trkpt lat="43.50397" lon="6.04098">
        <ele>331.31</ele>
        <time>2019-06-04T09:18:33Z</time>
      </trkpt>
      <trkpt lat="43.50396" lon="6.04095">
        <ele>331.31</ele>
        <time>2019-06-04T09:18:35Z</time>
      </trkpt>
      <trkpt lat="43.50392" lon="6.04086">
        <ele>330.83</ele>
        <time>2019-06-04T09:18:41Z</time>
      </trkpt>
      <trkpt lat="43.50386" lon="6.04074">
        <ele>330.35</ele>
        <time>2019-06-04T09:18:49Z</time>
      </trkpt>
      <trkpt lat="43.50381" lon="6.04061">
        <ele>329.87</ele>
        <time>2019-06-04T09:18:58Z</time>
      </trkpt>
      <trkpt lat="43.50378" lon="6.04051">
        <ele>329.39</ele>
        <time>2019-06-04T09:19:05Z</time>
      </trkpt>
      <trkpt lat="43.50374" lon="6.04037">
        <ele>323.62</ele>
        <time>2019-06-04T09:19:14Z</time>
      </trkpt>
      <trkpt lat="43.50374" lon="6.04035">
        <ele>335.64</ele>
        <time>2019-06-04T09:19:15Z</time>
      </trkpt>
      <trkpt lat="43.50373" lon="6.04033">
        <ele>324.58</ele>
        <time>2019-06-04T09:19:16Z</time>
      </trkpt>
      <trkpt lat="43.50373" lon="6.04031">
        <ele>332.27</ele>
        <time>2019-06-04T09:19:17Z</time>
      </trkpt>
      <trkpt lat="43.50372" lon="6.04029">
        <ele>328.91</ele>
        <time>2019-06-04T09:19:18Z</time>
      </trkpt>
      <trkpt lat="43.50373" lon="6.04008">
        <ele>328.43</ele>
        <time>2019-06-04T09:19:32Z</time>
      </trkpt>
      <trkpt lat="43.50382" lon="6.04003">
        <ele>323.14</ele>
        <time>2019-06-04T09:19:41Z</time>
      </trkpt>
      <trkpt lat="43.50383" lon="6.04003">
        <ele>334.2</ele>
        <time>2019-06-04T09:19:42Z</time>
      </trkpt>
      <trkpt lat="43.50384" lon="6.04004">
        <ele>325.06</ele>
        <time>2019-06-04T09:19:43Z</time>
      </trkpt>
      <trkpt lat="43.50385" lon="6.04004">
        <ele>330.35</ele>
        <time>2019-06-04T09:19:44Z</time>
      </trkpt>
      <trkpt lat="43.5039" lon="6.04003">
        <ele>326.99</ele>
        <time>2019-06-04T09:19:49Z</time>
      </trkpt>
      <trkpt lat="43.50392" lon="6.04002">
        <ele>322.18</ele>
        <time>2019-06-04T09:19:52Z</time>
      </trkpt>
      <trkpt lat="43.50393" lon="6.04002">
        <ele>332.27</ele>
        <time>2019-06-04T09:19:53Z</time>
      </trkpt>
      <trkpt lat="43.50393" lon="6.04002">
        <ele>322.18</ele>
        <time>2019-06-04T09:19:54Z</time>
      </trkpt>
      <trkpt lat="43.50395" lon="6.04002">
        <ele>330.83</ele>
        <time>2019-06-04T09:19:55Z</time>
      </trkpt>
      <trkpt lat="43.50396" lon="6.04002">
        <ele>325.54</ele>
        <time>2019-06-04T09:19:56Z</time>
      </trkpt>
      <trkpt lat="43.50402" lon="6.04002">
        <ele>329.87</ele>
        <time>2019-06-04T09:20:00Z</time>
      </trkpt>
      <trkpt lat="43.50403" lon="6.04001">
        <ele>326.99</ele>
        <time>2019-06-04T09:20:02Z</time>
      </trkpt>
      <trkpt lat="43.50412" lon="6.04002">
        <ele>325.06</ele>
        <time>2019-06-04T09:20:11Z</time>
      </trkpt>
      <trkpt lat="43.5042" lon="6.04001">
        <ele>321.7</ele>
        <time>2019-06-04T09:20:17Z</time>
      </trkpt>
      <trkpt lat="43.50421" lon="6.04">
        <ele>325.54</ele>
        <time>2019-06-04T09:20:18Z</time>
      </trkpt>
      <trkpt lat="43.50429" lon="6.03996">
        <ele>322.66</ele>
        <time>2019-06-04T09:20:23Z</time>
      </trkpt>
      <trkpt lat="43.50432" lon="6.03994">
        <ele>322.18</ele>
        <time>2019-06-04T09:20:29Z</time>
      </trkpt>
      <trkpt lat="43.50441" lon="6.03984">
        <ele>320.74</ele>
        <time>2019-06-04T09:20:36Z</time>
      </trkpt>
      <trkpt lat="43.50441" lon="6.03983">
        <ele>320.26</ele>
        <time>2019-06-04T09:20:39Z</time>
      </trkpt>
      <trkpt lat="43.5045" lon="6.03971">
        <ele>318.33</ele>
        <time>2019-06-04T09:20:47Z</time>
      </trkpt>
      <trkpt lat="43.50451" lon="6.03969">
        <ele>317.85</ele>
        <time>2019-06-04T09:20:49Z</time>
      </trkpt>
      <trkpt lat="43.50452" lon="6.03967">
        <ele>317.37</ele>
        <time>2019-06-04T09:20:51Z</time>
      </trkpt>
      <trkpt lat="43.50453" lon="6.03963">
        <ele>316.89</ele>
        <time>2019-06-04T09:20:54Z</time>
      </trkpt>
      <trkpt lat="43.50454" lon="6.03957">
        <ele>315.93</ele>
        <time>2019-06-04T09:20:59Z</time>
      </trkpt>
      <trkpt lat="43.50454" lon="6.03953">
        <ele>314.97</ele>
        <time>2019-06-04T09:21:02Z</time>
      </trkpt>
      <trkpt lat="43.50461" lon="6.03945">
        <ele>312.57</ele>
        <time>2019-06-04T09:21:13Z</time>
      </trkpt>
      <trkpt lat="43.50462" lon="6.03943">
        <ele>312.09</ele>
        <time>2019-06-04T09:21:15Z</time>
      </trkpt>
      <trkpt lat="43.50472" lon="6.03932">
        <ele>309.68</ele>
        <time>2019-06-04T09:21:26Z</time>
      </trkpt>
      <trkpt lat="43.50477" lon="6.03926">
        <ele>308.24</ele>
        <time>2019-06-04T09:21:32Z</time>
      </trkpt>
      <trkpt lat="43.50482" lon="6.03912">
        <ele>306.32</ele>
        <time>2019-06-04T09:21:41Z</time>
      </trkpt>
      <trkpt lat="43.50482" lon="6.03909">
        <ele>306.32</ele>
        <time>2019-06-04T09:21:43Z</time>
      </trkpt>
      <trkpt lat="43.50483" lon="6.03906">
        <ele>305.84</ele>
        <time>2019-06-04T09:21:45Z</time>
      </trkpt>
      <trkpt lat="43.50484" lon="6.03897">
        <ele>304.39</ele>
        <time>2019-06-04T09:21:51Z</time>
      </trkpt>
      <trkpt lat="43.50484" lon="6.03879">
        <ele>301.99</ele>
        <time>2019-06-04T09:22:02Z</time>
      </trkpt>
      <trkpt lat="43.50485" lon="6.03877">
        <ele>301.51</ele>
        <time>2019-06-04T09:22:04Z</time>
      </trkpt>
      <trkpt lat="43.50482" lon="6.03864">
        <ele>299.59</ele>
        <time>2019-06-04T09:22:14Z</time>
      </trkpt>
      <trkpt lat="43.50481" lon="6.0386">
        <ele>298.63</ele>
        <time>2019-06-04T09:22:17Z</time>
      </trkpt>
      <trkpt lat="43.50477" lon="6.03851">
        <ele>296.7</ele>
        <time>2019-06-04T09:22:26Z</time>
      </trkpt>
      <trkpt lat="43.50472" lon="6.03843">
        <ele>294.78</ele>
        <time>2019-06-04T09:22:34Z</time>
      </trkpt>
      <trkpt lat="43.5047" lon="6.03838">
        <ele>293.82</ele>
        <time>2019-06-04T09:22:38Z</time>
      </trkpt>
      <trkpt lat="43.50468" lon="6.03836">
        <ele>293.34</ele>
        <time>2019-06-04T09:22:40Z</time>
      </trkpt>
      <trkpt lat="43.50466" lon="6.03833">
        <ele>292.86</ele>
        <time>2019-06-04T09:22:43Z</time>
      </trkpt>
      <trkpt lat="43.50462" lon="6.03831">
        <ele>292.38</ele>
        <time>2019-06-04T09:22:46Z</time>
      </trkpt>
      <trkpt lat="43.50459" lon="6.03826">
        <ele>291.9</ele>
        <time>2019-06-04T09:22:50Z</time>
      </trkpt>
      <trkpt lat="43.50456" lon="6.03823">
        <ele>290.94</ele>
        <time>2019-06-04T09:22:54Z</time>
      </trkpt>
      <trkpt lat="43.50452" lon="6.03818">
        <ele>289.01</ele>
        <time>2019-06-04T09:23:06Z</time>
      </trkpt>
      <trkpt lat="43.50451" lon="6.03819">
        <ele>289.49</ele>
        <time>2019-06-04T09:23:29Z</time>
      </trkpt>
      <trkpt lat="43.5045" lon="6.03819">
        <ele>289.01</ele>
        <time>2019-06-04T09:23:49Z</time>
      </trkpt>
      <trkpt lat="43.5045" lon="6.03819">
        <ele>289.01</ele>
        <time>2019-06-04T09:24:03Z</time>
      </trkpt>
      <trkpt lat="43.50447" lon="6.03818">
        <ele>289.01</ele>
        <time>2019-06-04T09:24:14Z</time>
      </trkpt>
      <trkpt lat="43.50447" lon="6.03818">
        <ele>289.01</ele>
        <time>2019-06-04T09:24:30Z</time>
      </trkpt>
      <trkpt lat="43.50447" lon="6.03817">
        <ele>288.53</ele>
        <time>2019-06-04T09:24:50Z</time>
      </trkpt>
      <trkpt lat="43.50448" lon="6.03816">
        <ele>288.53</ele>
        <time>2019-06-04T09:25:08Z</time>
      </trkpt>
      <trkpt lat="43.50448" lon="6.03817">
        <ele>288.53</ele>
        <time>2019-06-04T09:25:30Z</time>
      </trkpt>
      <trkpt lat="43.50447" lon="6.03816">
        <ele>288.53</ele>
        <time>2019-06-04T09:25:37Z</time>
      </trkpt>
      <trkpt lat="43.50446" lon="6.03809">
        <ele>287.57</ele>
        <time>2019-06-04T09:25:42Z</time>
      </trkpt>
      <trkpt lat="43.50445" lon="6.03804">
        <ele>287.09</ele>
        <time>2019-06-04T09:25:45Z</time>
      </trkpt>
      <trkpt lat="43.50447" lon="6.03793">
        <ele>285.65</ele>
        <time>2019-06-04T09:25:54Z</time>
      </trkpt>
      <trkpt lat="43.50448" lon="6.03789">
        <ele>285.17</ele>
        <time>2019-06-04T09:25:57Z</time>
      </trkpt>
      <trkpt lat="43.50447" lon="6.03773">
        <ele>283.25</ele>
        <time>2019-06-04T09:26:07Z</time>
      </trkpt>
      <trkpt lat="43.50446" lon="6.03764">
        <ele>282.28</ele>
        <time>2019-06-04T09:26:11Z</time>
      </trkpt>
      <trkpt lat="43.50446" lon="6.03756">
        <ele>281.32</ele>
        <time>2019-06-04T09:26:17Z</time>
      </trkpt>
      <trkpt lat="43.50442" lon="6.03746">
        <ele>279.88</ele>
        <time>2019-06-04T09:26:23Z</time>
      </trkpt>
      <trkpt lat="43.50442" lon="6.03733">
        <ele>277.48</ele>
        <time>2019-06-04T09:26:32Z</time>
      </trkpt>
      <trkpt lat="43.5044" lon="6.03722">
        <ele>276.04</ele>
        <time>2019-06-04T09:26:39Z</time>
      </trkpt>
      <trkpt lat="43.50438" lon="6.03715">
        <ele>275.56</ele>
        <time>2019-06-04T09:26:43Z</time>
      </trkpt>
      <trkpt lat="43.5044" lon="6.03704">
        <ele>273.63</ele>
        <time>2019-06-04T09:26:50Z</time>
      </trkpt>
      <trkpt lat="43.50434" lon="6.03681">
        <ele>270.75</ele>
        <time>2019-06-04T09:27:02Z</time>
      </trkpt>
      <trkpt lat="43.50432" lon="6.03673">
        <ele>270.27</ele>
        <time>2019-06-04T09:27:06Z</time>
      </trkpt>
      <trkpt lat="43.50434" lon="6.03669">
        <ele>269.31</ele>
        <time>2019-06-04T09:27:09Z</time>
      </trkpt>
      <trkpt lat="43.5043" lon="6.03659">
        <ele>268.35</ele>
        <time>2019-06-04T09:27:15Z</time>
      </trkpt>
      <trkpt lat="43.50429" lon="6.03649">
        <ele>267.38</ele>
        <time>2019-06-04T09:27:23Z</time>
      </trkpt>
      <trkpt lat="43.50428" lon="6.03646">
        <ele>266.9</ele>
        <time>2019-06-04T09:27:25Z</time>
      </trkpt>
      <trkpt lat="43.50427" lon="6.0364">
        <ele>266.42</ele>
        <time>2019-06-04T09:27:29Z</time>
      </trkpt>
      <trkpt lat="43.50424" lon="6.03622">
        <ele>264.5</ele>
        <time>2019-06-04T09:27:42Z</time>
      </trkpt>
      <trkpt lat="43.50423" lon="6.03608">
        <ele>263.06</ele>
        <time>2019-06-04T09:27:51Z</time>
      </trkpt>
      <trkpt lat="43.50422" lon="6.03593">
        <ele>262.1</ele>
        <time>2019-06-04T09:28:01Z</time>
      </trkpt>
      <trkpt lat="43.50418" lon="6.03578">
        <ele>261.14</ele>
        <time>2019-06-04T09:28:09Z</time>
      </trkpt>
      <trkpt lat="43.50411" lon="6.03567">
        <ele>260.17</ele>
        <time>2019-06-04T09:28:17Z</time>
      </trkpt>
      <trkpt lat="43.50409" lon="6.03563">
        <ele>259.69</ele>
        <time>2019-06-04T09:28:20Z</time>
      </trkpt>
      <trkpt lat="43.50408" lon="6.03548">
        <ele>258.25</ele>
        <time>2019-06-04T09:28:30Z</time>
      </trkpt>
      <trkpt lat="43.50408" lon="6.03543">
        <ele>257.77</ele>
        <time>2019-06-04T09:28:33Z</time>
      </trkpt>
      <trkpt lat="43.50408" lon="6.03539">
        <ele>257.77</ele>
        <time>2019-06-04T09:28:35Z</time>
      </trkpt>
      <trkpt lat="43.50408" lon="6.03536">
        <ele>257.29</ele>
        <time>2019-06-04T09:28:37Z</time>
      </trkpt>
      <trkpt lat="43.50406" lon="6.03526">
        <ele>256.33</ele>
        <time>2019-06-04T09:28:47Z</time>
      </trkpt>
      <trkpt lat="43.50408" lon="6.0352">
        <ele>255.85</ele>
        <time>2019-06-04T09:29:00Z</time>
      </trkpt>
      <trkpt lat="43.50408" lon="6.03517">
        <ele>255.37</ele>
        <time>2019-06-04T09:29:10Z</time>
      </trkpt>
      <trkpt lat="43.5041" lon="6.03518">
        <ele>255.37</ele>
        <time>2019-06-04T09:29:35Z</time>
      </trkpt>
      <trkpt lat="43.50406" lon="6.03516">
        <ele>255.37</ele>
        <time>2019-06-04T09:29:46Z</time>
      </trkpt>
      <trkpt lat="43.50403" lon="6.03514">
        <ele>255.37</ele>
        <time>2019-06-04T09:30:11Z</time>
      </trkpt>
      <trkpt lat="43.50403" lon="6.03513">
        <ele>255.37</ele>
        <time>2019-06-04T09:30:24Z</time>
      </trkpt>
      <trkpt lat="43.50403" lon="6.0351">
        <ele>254.89</ele>
        <time>2019-06-04T09:30:27Z</time>
      </trkpt>
      <trkpt lat="43.50402" lon="6.03498">
        <ele>253.93</ele>
        <time>2019-06-04T09:30:34Z</time>
      </trkpt>
      <trkpt lat="43.50399" lon="6.03483">
        <ele>252.48</ele>
        <time>2019-06-04T09:30:42Z</time>
      </trkpt>
      <trkpt lat="43.50397" lon="6.0348">
        <ele>252</ele>
        <time>2019-06-04T09:30:45Z</time>
      </trkpt>
      <trkpt lat="43.50395" lon="6.03471">
        <ele>251.04</ele>
        <time>2019-06-04T09:30:52Z</time>
      </trkpt>
      <trkpt lat="43.50396" lon="6.03468">
        <ele>250.56</ele>
        <time>2019-06-04T09:30:54Z</time>
      </trkpt>
      <trkpt lat="43.50397" lon="6.03452">
        <ele>249.12</ele>
        <time>2019-06-04T09:31:03Z</time>
      </trkpt>
      <trkpt lat="43.50394" lon="6.03443">
        <ele>248.16</ele>
        <time>2019-06-04T09:31:09Z</time>
      </trkpt>
      <trkpt lat="43.50391" lon="6.03423">
        <ele>245.75</ele>
        <time>2019-06-04T09:31:21Z</time>
      </trkpt>
      <trkpt lat="43.50392" lon="6.03418">
        <ele>244.79</ele>
        <time>2019-06-04T09:31:25Z</time>
      </trkpt>
      <trkpt lat="43.50388" lon="6.03406">
        <ele>243.35</ele>
        <time>2019-06-04T09:31:32Z</time>
      </trkpt>
      <trkpt lat="43.50387" lon="6.03403">
        <ele>242.87</ele>
        <time>2019-06-04T09:31:34Z</time>
      </trkpt>
      <trkpt lat="43.50387" lon="6.034">
        <ele>242.39</ele>
        <time>2019-06-04T09:31:36Z</time>
      </trkpt>
      <trkpt lat="43.50388" lon="6.03392">
        <ele>241.43</ele>
        <time>2019-06-04T09:31:42Z</time>
      </trkpt>
      <trkpt lat="43.50387" lon="6.03387">
        <ele>240.95</ele>
        <time>2019-06-04T09:31:44Z</time>
      </trkpt>
      <trkpt lat="43.50384" lon="6.03369">
        <ele>239.02</ele>
        <time>2019-06-04T09:31:54Z</time>
      </trkpt>
      <trkpt lat="43.50384" lon="6.03361">
        <ele>238.06</ele>
        <time>2019-06-04T09:31:59Z</time>
      </trkpt>
      <trkpt lat="43.50376" lon="6.03348">
        <ele>236.14</ele>
        <time>2019-06-04T09:32:07Z</time>
      </trkpt>
      <trkpt lat="43.50376" lon="6.03334">
        <ele>234.22</ele>
        <time>2019-06-04T09:32:16Z</time>
      </trkpt>
      <trkpt lat="43.50371" lon="6.03323">
        <ele>232.3</ele>
        <time>2019-06-04T09:32:23Z</time>
      </trkpt>
      <trkpt lat="43.50361" lon="6.03308">
        <ele>230.37</ele>
        <time>2019-06-04T09:32:32Z</time>
      </trkpt>
      <trkpt lat="43.50359" lon="6.03292">
        <ele>229.41</ele>
        <time>2019-06-04T09:32:40Z</time>
      </trkpt>
      <trkpt lat="43.50357" lon="6.03286">
        <ele>227.97</ele>
        <time>2019-06-04T09:32:44Z</time>
      </trkpt>
      <trkpt lat="43.50352" lon="6.03282">
        <ele>227.97</ele>
        <time>2019-06-04T09:32:56Z</time>
      </trkpt>
      <trkpt lat="43.50348" lon="6.03281">
        <ele>227.49</ele>
        <time>2019-06-04T09:33:15Z</time>
      </trkpt>
      <trkpt lat="43.50347" lon="6.03281">
        <ele>227.49</ele>
        <time>2019-06-04T09:33:37Z</time>
      </trkpt>
      <trkpt lat="43.50348" lon="6.0328">
        <ele>227.49</ele>
        <time>2019-06-04T09:34:00Z</time>
      </trkpt>
      <trkpt lat="43.50348" lon="6.03279">
        <ele>227.49</ele>
        <time>2019-06-04T09:34:23Z</time>
      </trkpt>
      <trkpt lat="43.50349" lon="6.03279">
        <ele>227.01</ele>
        <time>2019-06-04T09:34:42Z</time>
      </trkpt>
      <trkpt lat="43.50349" lon="6.03278">
        <ele>227.01</ele>
        <time>2019-06-04T09:34:57Z</time>
      </trkpt>
      <trkpt lat="43.50349" lon="6.03277">
        <ele>227.01</ele>
        <time>2019-06-04T09:34:58Z</time>
      </trkpt>
      <trkpt lat="43.50347" lon="6.03271">
        <ele>226.05</ele>
        <time>2019-06-04T09:35:06Z</time>
      </trkpt>
      <trkpt lat="43.50348" lon="6.03269">
        <ele>226.05</ele>
        <time>2019-06-04T09:35:07Z</time>
      </trkpt>
      <trkpt lat="43.50348" lon="6.03267">
        <ele>225.57</ele>
        <time>2019-06-04T09:35:09Z</time>
      </trkpt>
      <trkpt lat="43.50349" lon="6.03263">
        <ele>224.61</ele>
        <time>2019-06-04T09:35:12Z</time>
      </trkpt>
      <trkpt lat="43.50352" lon="6.03261">
        <ele>224.12</ele>
        <time>2019-06-04T09:35:15Z</time>
      </trkpt>
      <trkpt lat="43.5036" lon="6.03246">
        <ele>222.68</ele>
        <time>2019-06-04T09:35:24Z</time>
      </trkpt>
      <trkpt lat="43.5036" lon="6.03243">
        <ele>222.2</ele>
        <time>2019-06-04T09:35:26Z</time>
      </trkpt>
      <trkpt lat="43.50361" lon="6.03234">
        <ele>221.72</ele>
        <time>2019-06-04T09:35:31Z</time>
      </trkpt>
      <trkpt lat="43.50366" lon="6.03212">
        <ele>219.32</ele>
        <time>2019-06-04T09:35:42Z</time>
      </trkpt>
      <trkpt lat="43.50365" lon="6.03208">
        <ele>218.84</ele>
        <time>2019-06-04T09:35:44Z</time>
      </trkpt>
      <trkpt lat="43.50364" lon="6.03189">
        <ele>217.4</ele>
        <time>2019-06-04T09:35:54Z</time>
      </trkpt>
      <trkpt lat="43.50364" lon="6.03183">
        <ele>216.43</ele>
        <time>2019-06-04T09:35:58Z</time>
      </trkpt>
      <trkpt lat="43.50362" lon="6.03171">
        <ele>215.47</ele>
        <time>2019-06-04T09:36:04Z</time>
      </trkpt>
      <trkpt lat="43.50363" lon="6.03166">
        <ele>215.47</ele>
        <time>2019-06-04T09:36:07Z</time>
      </trkpt>
      <trkpt lat="43.50357" lon="6.03146">
        <ele>214.51</ele>
        <time>2019-06-04T09:36:19Z</time>
      </trkpt>
      <trkpt lat="43.50347" lon="6.0313">
        <ele>213.55</ele>
        <time>2019-06-04T09:36:29Z</time>
      </trkpt>
      <trkpt lat="43.50338" lon="6.03118">
        <ele>212.59</ele>
        <time>2019-06-04T09:36:38Z</time>
      </trkpt>
      <trkpt lat="43.50338" lon="6.03113">
        <ele>211.63</ele>
        <time>2019-06-04T09:36:43Z</time>
      </trkpt>
      <trkpt lat="43.50333" lon="6.03101">
        <ele>210.67</ele>
        <time>2019-06-04T09:36:52Z</time>
      </trkpt>
      <trkpt lat="43.50333" lon="6.03083">
        <ele>209.22</ele>
        <time>2019-06-04T09:37:01Z</time>
      </trkpt>
      <trkpt lat="43.50331" lon="6.0307">
        <ele>207.78</ele>
        <time>2019-06-04T09:37:09Z</time>
      </trkpt>
      <trkpt lat="43.5033" lon="6.03065">
        <ele>207.3</ele>
        <time>2019-06-04T09:37:12Z</time>
      </trkpt>
      <trkpt lat="43.5033" lon="6.03056">
        <ele>206.82</ele>
        <time>2019-06-04T09:37:16Z</time>
      </trkpt>
      <trkpt lat="43.50326" lon="6.03034">
        <ele>205.38</ele>
        <time>2019-06-04T09:37:28Z</time>
      </trkpt>
      <trkpt lat="43.50322" lon="6.03018">
        <ele>204.42</ele>
        <time>2019-06-04T09:37:38Z</time>
      </trkpt>
      <trkpt lat="43.50319" lon="6.03014">
        <ele>203.94</ele>
        <time>2019-06-04T09:37:42Z</time>
      </trkpt>
      <trkpt lat="43.50314" lon="6.02997">
        <ele>203.46</ele>
        <time>2019-06-04T09:37:51Z</time>
      </trkpt>
      <trkpt lat="43.50314" lon="6.02995">
        <ele>202.98</ele>
        <time>2019-06-04T09:37:53Z</time>
      </trkpt>
      <trkpt lat="43.50305" lon="6.02984">
        <ele>202.49</ele>
        <time>2019-06-04T09:38:00Z</time>
      </trkpt>
      <trkpt lat="43.503" lon="6.02972">
        <ele>202.01</ele>
        <time>2019-06-04T09:38:08Z</time>
      </trkpt>
      <trkpt lat="43.50299" lon="6.02956">
        <ele>201.53</ele>
        <time>2019-06-04T09:38:17Z</time>
      </trkpt>
      <trkpt lat="43.50297" lon="6.02952">
        <ele>201.53</ele>
        <time>2019-06-04T09:38:20Z</time>
      </trkpt>
      <trkpt lat="43.50296" lon="6.02941">
        <ele>201.05</ele>
        <time>2019-06-04T09:38:26Z</time>
      </trkpt>
      <trkpt lat="43.50294" lon="6.02935">
        <ele>200.57</ele>
        <time>2019-06-04T09:38:30Z</time>
      </trkpt>
      <trkpt lat="43.50289" lon="6.02927">
        <ele>200.57</ele>
        <time>2019-06-04T09:38:34Z</time>
      </trkpt>
      <trkpt lat="43.50284" lon="6.02912">
        <ele>199.61</ele>
        <time>2019-06-04T09:38:42Z</time>
      </trkpt>
      <trkpt lat="43.5028" lon="6.02904">
        <ele>199.13</ele>
        <time>2019-06-04T09:38:47Z</time>
      </trkpt>
      <trkpt lat="43.50279" lon="6.02897">
        <ele>199.13</ele>
        <time>2019-06-04T09:38:51Z</time>
      </trkpt>
      <trkpt lat="43.50275" lon="6.02892">
        <ele>198.17</ele>
        <time>2019-06-04T09:38:55Z</time>
      </trkpt>
      <trkpt lat="43.50261" lon="6.02879">
        <ele>197.69</ele>
        <time>2019-06-04T09:39:05Z</time>
      </trkpt>
      <trkpt lat="43.50254" lon="6.02873">
        <ele>196.73</ele>
        <time>2019-06-04T09:39:12Z</time>
      </trkpt>
      <trkpt lat="43.50253" lon="6.02871">
        <ele>202.98</ele>
        <time>2019-06-04T09:39:14Z</time>
      </trkpt>
      <trkpt lat="43.50252" lon="6.0287">
        <ele>197.21</ele>
        <time>2019-06-04T09:39:15Z</time>
      </trkpt>
      <trkpt lat="43.50242" lon="6.02857">
        <ele>196.73</ele>
        <time>2019-06-04T09:39:26Z</time>
      </trkpt>
      <trkpt lat="43.50232" lon="6.02841">
        <ele>196.25</ele>
        <time>2019-06-04T09:39:38Z</time>
      </trkpt>
      <trkpt lat="43.50226" lon="6.02831">
        <ele>195.77</ele>
        <time>2019-06-04T09:39:45Z</time>
      </trkpt>
      <trkpt lat="43.50221" lon="6.02816">
        <ele>195.28</ele>
        <time>2019-06-04T09:39:56Z</time>
      </trkpt>
      <trkpt lat="43.50214" lon="6.02802">
        <ele>194.32</ele>
        <time>2019-06-04T09:40:06Z</time>
      </trkpt>
      <trkpt lat="43.50208" lon="6.02789">
        <ele>193.84</ele>
        <time>2019-06-04T09:40:16Z</time>
      </trkpt>
      <trkpt lat="43.50204" lon="6.02774">
        <ele>192.88</ele>
        <time>2019-06-04T09:40:29Z</time>
      </trkpt>
      <trkpt lat="43.50201" lon="6.02773">
        <ele>192.88</ele>
        <time>2019-06-04T09:40:45Z</time>
      </trkpt>
      <trkpt lat="43.502" lon="6.02773">
        <ele>192.88</ele>
        <time>2019-06-04T09:40:58Z</time>
      </trkpt>
      <trkpt lat="43.50199" lon="6.02772">
        <ele>192.88</ele>
        <time>2019-06-04T09:41:19Z</time>
      </trkpt>
      <trkpt lat="43.50199" lon="6.02773">
        <ele>192.4</ele>
        <time>2019-06-04T09:41:36Z</time>
      </trkpt>
      <trkpt lat="43.50199" lon="6.02773">
        <ele>192.4</ele>
        <time>2019-06-04T09:41:54Z</time>
      </trkpt>
      <trkpt lat="43.50199" lon="6.02773">
        <ele>192.4</ele>
        <time>2019-06-04T09:42:14Z</time>
      </trkpt>
      <trkpt lat="43.50198" lon="6.02773">
        <ele>192.4</ele>
        <time>2019-06-04T09:42:24Z</time>
      </trkpt>
      <trkpt lat="43.50196" lon="6.02772">
        <ele>192.4</ele>
        <time>2019-06-04T09:42:26Z</time>
      </trkpt>
      <trkpt lat="43.50182" lon="6.02767">
        <ele>192.4</ele>
        <time>2019-06-04T09:42:38Z</time>
      </trkpt>
      <trkpt lat="43.50176" lon="6.02765">
        <ele>192.88</ele>
        <time>2019-06-04T09:42:45Z</time>
      </trkpt>
      <trkpt lat="43.50174" lon="6.02765">
        <ele>192.88</ele>
        <time>2019-06-04T09:42:47Z</time>
      </trkpt>
      <trkpt lat="43.50167" lon="6.02762">
        <ele>192.88</ele>
        <time>2019-06-04T09:42:54Z</time>
      </trkpt>
      <trkpt lat="43.50162" lon="6.02761">
        <ele>192.88</ele>
        <time>2019-06-04T09:42:58Z</time>
      </trkpt>
      <trkpt lat="43.50144" lon="6.02757">
        <ele>193.36</ele>
        <time>2019-06-04T09:43:10Z</time>
      </trkpt>
      <trkpt lat="43.50131" lon="6.02751">
        <ele>193.36</ele>
        <time>2019-06-04T09:43:20Z</time>
      </trkpt>
      <trkpt lat="43.50121" lon="6.02746">
        <ele>192.88</ele>
        <time>2019-06-04T09:43:30Z</time>
      </trkpt>
      <trkpt lat="43.50106" lon="6.02737">
        <ele>191.92</ele>
        <time>2019-06-04T09:43:42Z</time>
      </trkpt>
      <trkpt lat="43.50095" lon="6.02731">
        <ele>192.4</ele>
        <time>2019-06-04T09:43:50Z</time>
      </trkpt>
      <trkpt lat="43.50092" lon="6.0273">
        <ele>191.44</ele>
        <time>2019-06-04T09:43:53Z</time>
      </trkpt>
      <trkpt lat="43.50081" lon="6.02723">
        <ele>190.96</ele>
        <time>2019-06-04T09:44:01Z</time>
      </trkpt>
      <trkpt lat="43.50067" lon="6.02717">
        <ele>190</ele>
        <time>2019-06-04T09:44:12Z</time>
      </trkpt>
      <trkpt lat="43.50055" lon="6.02715">
        <ele>189.52</ele>
        <time>2019-06-04T09:44:21Z</time>
      </trkpt>
      <trkpt lat="43.50049" lon="6.02714">
        <ele>189.04</ele>
        <time>2019-06-04T09:44:27Z</time>
      </trkpt>
      <trkpt lat="43.50046" lon="6.02714">
        <ele>188.56</ele>
        <time>2019-06-04T09:44:29Z</time>
      </trkpt>
      <trkpt lat="43.50039" lon="6.02713">
        <ele>188.08</ele>
        <time>2019-06-04T09:44:34Z</time>
      </trkpt>
      <trkpt lat="43.50031" lon="6.02711">
        <ele>187.59</ele>
        <time>2019-06-04T09:44:40Z</time>
      </trkpt>
      <trkpt lat="43.50028" lon="6.0271">
        <ele>187.59</ele>
        <time>2019-06-04T09:44:43Z</time>
      </trkpt>
      <trkpt lat="43.50016" lon="6.02708">
        <ele>187.59</ele>
        <time>2019-06-04T09:44:52Z</time>
      </trkpt>
      <trkpt lat="43.50015" lon="6.02707">
        <ele>187.59</ele>
        <time>2019-06-04T09:44:53Z</time>
      </trkpt>
      <trkpt lat="43.50008" lon="6.0271">
        <ele>187.59</ele>
        <time>2019-06-04T09:45:00Z</time>
      </trkpt>
      <trkpt lat="43.50006" lon="6.0271">
        <ele>187.59</ele>
        <time>2019-06-04T09:45:02Z</time>
      </trkpt>
      <trkpt lat="43.4999" lon="6.02715">
        <ele>187.59</ele>
        <time>2019-06-04T09:45:14Z</time>
      </trkpt>
      <trkpt lat="43.49986" lon="6.02714">
        <ele>187.59</ele>
        <time>2019-06-04T09:45:16Z</time>
      </trkpt>
      <trkpt lat="43.49976" lon="6.02712">
        <ele>187.11</ele>
        <time>2019-06-04T09:45:28Z</time>
      </trkpt>
      <trkpt lat="43.49976" lon="6.02712">
        <ele>187.11</ele>
        <time>2019-06-04T09:45:51Z</time>
      </trkpt>
      <trkpt lat="43.49972" lon="6.02707">
        <ele>186.63</ele>
        <time>2019-06-04T09:45:55Z</time>
      </trkpt>
      <trkpt lat="43.49966" lon="6.02696">
        <ele>186.63</ele>
        <time>2019-06-04T09:46:05Z</time>
      </trkpt>
      <trkpt lat="43.49964" lon="6.02694">
        <ele>186.63</ele>
        <time>2019-06-04T09:46:07Z</time>
      </trkpt>
      <trkpt lat="43.49957" lon="6.02684">
        <ele>186.15</ele>
        <time>2019-06-04T09:46:16Z</time>
      </trkpt>
      <trkpt lat="43.49956" lon="6.02682">
        <ele>186.15</ele>
        <time>2019-06-04T09:46:17Z</time>
      </trkpt>
      <trkpt lat="43.49952" lon="6.02679">
        <ele>185.67</ele>
        <time>2019-06-04T09:46:23Z</time>
      </trkpt>
      <trkpt lat="43.4995" lon="6.02676">
        <ele>185.67</ele>
        <time>2019-06-04T09:46:26Z</time>
      </trkpt>
      <trkpt lat="43.49944" lon="6.02668">
        <ele>185.67</ele>
        <time>2019-06-04T09:46:34Z</time>
      </trkpt>
      <trkpt lat="43.49936" lon="6.02655">
        <ele>185.67</ele>
        <time>2019-06-04T09:46:46Z</time>
      </trkpt>
      <trkpt lat="43.4993" lon="6.02649">
        <ele>185.19</ele>
        <time>2019-06-04T09:46:57Z</time>
      </trkpt>
      <trkpt lat="43.49926" lon="6.02644">
        <ele>185.19</ele>
        <time>2019-06-04T09:47:07Z</time>
      </trkpt>
      <trkpt lat="43.49925" lon="6.02642">
        <ele>185.19</ele>
        <time>2019-06-04T09:47:19Z</time>
      </trkpt>
      <trkpt lat="43.49923" lon="6.0264">
        <ele>185.19</ele>
        <time>2019-06-04T09:47:20Z</time>
      </trkpt>
      <trkpt lat="43.49911" lon="6.02631">
        <ele>185.19</ele>
        <time>2019-06-04T09:47:30Z</time>
      </trkpt>
      <trkpt lat="43.4991" lon="6.02631">
        <ele>185.19</ele>
        <time>2019-06-04T09:47:31Z</time>
      </trkpt>
      <trkpt lat="43.49901" lon="6.02629">
        <ele>185.19</ele>
        <time>2019-06-04T09:47:40Z</time>
      </trkpt>
      <trkpt lat="43.49896" lon="6.02628">
        <ele>184.71</ele>
        <time>2019-06-04T09:47:44Z</time>
      </trkpt>
      <trkpt lat="43.49894" lon="6.02629">
        <ele>184.71</ele>
        <time>2019-06-04T09:47:46Z</time>
      </trkpt>
      <trkpt lat="43.49887" lon="6.0263">
        <ele>184.71</ele>
        <time>2019-06-04T09:47:53Z</time>
      </trkpt>
      <trkpt lat="43.49882" lon="6.02629">
        <ele>184.71</ele>
        <time>2019-06-04T09:47:58Z</time>
      </trkpt>
      <trkpt lat="43.49869" lon="6.02636">
        <ele>184.71</ele>
        <time>2019-06-04T09:48:08Z</time>
      </trkpt>
      <trkpt lat="43.49866" lon="6.02637">
        <ele>184.71</ele>
        <time>2019-06-04T09:48:10Z</time>
      </trkpt>
      <trkpt lat="43.49857" lon="6.02649">
        <ele>184.71</ele>
        <time>2019-06-04T09:48:21Z</time>
      </trkpt>
      <trkpt lat="43.49846" lon="6.02662">
        <ele>184.23</ele>
        <time>2019-06-04T09:48:32Z</time>
      </trkpt>
      <trkpt lat="43.49845" lon="6.02666">
        <ele>184.23</ele>
        <time>2019-06-04T09:48:34Z</time>
      </trkpt>
      <trkpt lat="43.49844" lon="6.0267">
        <ele>184.23</ele>
        <time>2019-06-04T09:48:36Z</time>
      </trkpt>
      <trkpt lat="43.49841" lon="6.02692">
        <ele>184.23</ele>
        <time>2019-06-04T09:48:49Z</time>
      </trkpt>
      <trkpt lat="43.49841" lon="6.02694">
        <ele>184.23</ele>
        <time>2019-06-04T09:48:51Z</time>
      </trkpt>
      <trkpt lat="43.49844" lon="6.02708">
        <ele>184.23</ele>
        <time>2019-06-04T09:48:58Z</time>
      </trkpt>
      <trkpt lat="43.49846" lon="6.02728">
        <ele>184.23</ele>
        <time>2019-06-04T09:49:10Z</time>
      </trkpt>
      <trkpt lat="43.49849" lon="6.02743">
        <ele>184.23</ele>
        <time>2019-06-04T09:49:20Z</time>
      </trkpt>
      <trkpt lat="43.49852" lon="6.02761">
        <ele>184.23</ele>
        <time>2019-06-04T09:49:30Z</time>
      </trkpt>
      <trkpt lat="43.49854" lon="6.02778">
        <ele>184.23</ele>
        <time>2019-06-04T09:49:41Z</time>
      </trkpt>
      <trkpt lat="43.49853" lon="6.02783">
        <ele>184.23</ele>
        <time>2019-06-04T09:49:45Z</time>
      </trkpt>
      <trkpt lat="43.49854" lon="6.0279">
        <ele>183.75</ele>
        <time>2019-06-04T09:49:49Z</time>
      </trkpt>
      <trkpt lat="43.49855" lon="6.02803">
        <ele>183.75</ele>
        <time>2019-06-04T09:50:00Z</time>
      </trkpt>
      <trkpt lat="43.49856" lon="6.02813">
        <ele>184.23</ele>
        <time>2019-06-04T09:50:09Z</time>
      </trkpt>
      <trkpt lat="43.49857" lon="6.02818">
        <ele>183.75</ele>
        <time>2019-06-04T09:50:17Z</time>
      </trkpt>
      <trkpt lat="43.49857" lon="6.02821">
        <ele>183.75</ele>
        <time>2019-06-04T09:50:25Z</time>
      </trkpt>
      <trkpt lat="43.49854" lon="6.02835">
        <ele>183.75</ele>
        <time>2019-06-04T09:50:35Z</time>
      </trkpt>
      <trkpt lat="43.49853" lon="6.02838">
        <ele>183.75</ele>
        <time>2019-06-04T09:50:37Z</time>
      </trkpt>
      <trkpt lat="43.49853" lon="6.02848">
        <ele>184.23</ele>
        <time>2019-06-04T09:50:44Z</time>
      </trkpt>
      <trkpt lat="43.49852" lon="6.02857">
        <ele>184.23</ele>
        <time>2019-06-04T09:50:50Z</time>
      </trkpt>
      <trkpt lat="43.49847" lon="6.02871">
        <ele>184.23</ele>
        <time>2019-06-04T09:51:00Z</time>
      </trkpt>
      <trkpt lat="43.49846" lon="6.02875">
        <ele>184.23</ele>
        <time>2019-06-04T09:51:04Z</time>
      </trkpt>
      <trkpt lat="43.49841" lon="6.02883">
        <ele>184.23</ele>
        <time>2019-06-04T09:51:11Z</time>
      </trkpt>
      <trkpt lat="43.49838" lon="6.02903">
        <ele>184.23</ele>
        <time>2019-06-04T09:51:22Z</time>
      </trkpt>
      <trkpt lat="43.49837" lon="6.02904">
        <ele>184.23</ele>
        <time>2019-06-04T09:51:24Z</time>
      </trkpt>
      <trkpt lat="43.49835" lon="6.02908">
        <ele>184.23</ele>
        <time>2019-06-04T09:51:27Z</time>
      </trkpt>
      <trkpt lat="43.49833" lon="6.02911">
        <ele>184.23</ele>
        <time>2019-06-04T09:51:31Z</time>
      </trkpt>
      <trkpt lat="43.4983" lon="6.02915">
        <ele>184.23</ele>
        <time>2019-06-04T09:51:34Z</time>
      </trkpt>
      <trkpt lat="43.49826" lon="6.02931">
        <ele>184.71</ele>
        <time>2019-06-04T09:51:45Z</time>
      </trkpt>
      <trkpt lat="43.49825" lon="6.02935">
        <ele>184.71</ele>
        <time>2019-06-04T09:51:48Z</time>
      </trkpt>
      <trkpt lat="43.49817" lon="6.02951">
        <ele>184.71</ele>
        <time>2019-06-04T09:51:58Z</time>
      </trkpt>
      <trkpt lat="43.49811" lon="6.02963">
        <ele>185.19</ele>
        <time>2019-06-04T09:52:05Z</time>
      </trkpt>
      <trkpt lat="43.49809" lon="6.02965">
        <ele>185.19</ele>
        <time>2019-06-04T09:52:07Z</time>
      </trkpt>
      <trkpt lat="43.49807" lon="6.02967">
        <ele>185.19</ele>
        <time>2019-06-04T09:52:09Z</time>
      </trkpt>
      <trkpt lat="43.49804" lon="6.02974">
        <ele>185.19</ele>
        <time>2019-06-04T09:52:19Z</time>
      </trkpt>
      <trkpt lat="43.49795" lon="6.02986">
        <ele>185.19</ele>
        <time>2019-06-04T09:52:31Z</time>
      </trkpt>
      <trkpt lat="43.49794" lon="6.02987">
        <ele>185.19</ele>
        <time>2019-06-04T09:52:32Z</time>
      </trkpt>
      <trkpt lat="43.49787" lon="6.02994">
        <ele>185.19</ele>
        <time>2019-06-04T09:52:41Z</time>
      </trkpt>
      <trkpt lat="43.49771" lon="6.03008">
        <ele>185.19</ele>
        <time>2019-06-04T09:52:51Z</time>
      </trkpt>
      <trkpt lat="43.49768" lon="6.03011">
        <ele>185.19</ele>
        <time>2019-06-04T09:52:54Z</time>
      </trkpt>
      <trkpt lat="43.49752" lon="6.0302">
        <ele>184.71</ele>
        <time>2019-06-04T09:53:06Z</time>
      </trkpt>
      <trkpt lat="43.49745" lon="6.03026">
        <ele>184.71</ele>
        <time>2019-06-04T09:53:16Z</time>
      </trkpt>
      <trkpt lat="43.49735" lon="6.03034">
        <ele>184.71</ele>
        <time>2019-06-04T09:53:25Z</time>
      </trkpt>
      <trkpt lat="43.49726" lon="6.03039">
        <ele>184.71</ele>
        <time>2019-06-04T09:53:33Z</time>
      </trkpt>
      <trkpt lat="43.49723" lon="6.0304">
        <ele>184.71</ele>
        <time>2019-06-04T09:53:36Z</time>
      </trkpt>
      <trkpt lat="43.49718" lon="6.03043">
        <ele>184.71</ele>
        <time>2019-06-04T09:53:40Z</time>
      </trkpt>
      <trkpt lat="43.49702" lon="6.03051">
        <ele>184.71</ele>
        <time>2019-06-04T09:53:53Z</time>
      </trkpt>
      <trkpt lat="43.4969" lon="6.03062">
        <ele>184.23</ele>
        <time>2019-06-04T09:54:04Z</time>
      </trkpt>
      <trkpt lat="43.49685" lon="6.03068">
        <ele>184.23</ele>
        <time>2019-06-04T09:54:10Z</time>
      </trkpt>
      <trkpt lat="43.49676" lon="6.03077">
        <ele>184.23</ele>
        <time>2019-06-04T09:54:20Z</time>
      </trkpt>
      <trkpt lat="43.49672" lon="6.03081">
        <ele>184.23</ele>
        <time>2019-06-04T09:54:24Z</time>
      </trkpt>
      <trkpt lat="43.49662" lon="6.03094">
        <ele>184.23</ele>
        <time>2019-06-04T09:54:35Z</time>
      </trkpt>
      <trkpt lat="43.49653" lon="6.03107">
        <ele>183.75</ele>
        <time>2019-06-04T09:54:46Z</time>
      </trkpt>
      <trkpt lat="43.49651" lon="6.03109">
        <ele>184.23</ele>
        <time>2019-06-04T09:54:48Z</time>
      </trkpt>
      <trkpt lat="43.49645" lon="6.03116">
        <ele>183.75</ele>
        <time>2019-06-04T09:54:53Z</time>
      </trkpt>
      <trkpt lat="43.49635" lon="6.03133">
        <ele>183.75</ele>
        <time>2019-06-04T09:55:05Z</time>
      </trkpt>
      <trkpt lat="43.49632" lon="6.03147">
        <ele>183.75</ele>
        <time>2019-06-04T09:55:13Z</time>
      </trkpt>
      <trkpt lat="43.49631" lon="6.0315">
        <ele>188.56</ele>
        <time>2019-06-04T09:55:15Z</time>
      </trkpt>
      <trkpt lat="43.4963" lon="6.03151">
        <ele>188.56</ele>
        <time>2019-06-04T09:55:16Z</time>
      </trkpt>
      <trkpt lat="43.49629" lon="6.03154">
        <ele>183.75</ele>
        <time>2019-06-04T09:55:18Z</time>
      </trkpt>
      <trkpt lat="43.49628" lon="6.03159">
        <ele>184.23</ele>
        <time>2019-06-04T09:55:21Z</time>
      </trkpt>
      <trkpt lat="43.49625" lon="6.03166">
        <ele>183.75</ele>
        <time>2019-06-04T09:55:24Z</time>
      </trkpt>
      <trkpt lat="43.49622" lon="6.03172">
        <ele>183.75</ele>
        <time>2019-06-04T09:55:30Z</time>
      </trkpt>
      <trkpt lat="43.49618" lon="6.03186">
        <ele>183.75</ele>
        <time>2019-06-04T09:55:38Z</time>
      </trkpt>
      <trkpt lat="43.49618" lon="6.03188">
        <ele>184.23</ele>
        <time>2019-06-04T09:55:41Z</time>
      </trkpt>
      <trkpt lat="43.49614" lon="6.03203">
        <ele>184.23</ele>
        <time>2019-06-04T09:55:48Z</time>
      </trkpt>
      <trkpt lat="43.49614" lon="6.03207">
        <ele>184.23</ele>
        <time>2019-06-04T09:55:51Z</time>
      </trkpt>
      <trkpt lat="43.49613" lon="6.03217">
        <ele>183.75</ele>
        <time>2019-06-04T09:55:56Z</time>
      </trkpt>
      <trkpt lat="43.49612" lon="6.03224">
        <ele>183.27</ele>
        <time>2019-06-04T09:56:00Z</time>
      </trkpt>
      <trkpt lat="43.49612" lon="6.03231">
        <ele>183.75</ele>
        <time>2019-06-04T09:56:04Z</time>
      </trkpt>
      <trkpt lat="43.49609" lon="6.03245">
        <ele>183.75</ele>
        <time>2019-06-04T09:56:11Z</time>
      </trkpt>
      <trkpt lat="43.49609" lon="6.03248">
        <ele>183.75</ele>
        <time>2019-06-04T09:56:13Z</time>
      </trkpt>
      <trkpt lat="43.49611" lon="6.03265">
        <ele>183.27</ele>
        <time>2019-06-04T09:56:23Z</time>
      </trkpt>
      <trkpt lat="43.49612" lon="6.03274">
        <ele>183.27</ele>
        <time>2019-06-04T09:56:28Z</time>
      </trkpt>
      <trkpt lat="43.49612" lon="6.03279">
        <ele>183.27</ele>
        <time>2019-06-04T09:56:31Z</time>
      </trkpt>
      <trkpt lat="43.49613" lon="6.03288">
        <ele>183.27</ele>
        <time>2019-06-04T09:56:36Z</time>
      </trkpt>
      <trkpt lat="43.49614" lon="6.03308">
        <ele>182.79</ele>
        <time>2019-06-04T09:56:47Z</time>
      </trkpt>
      <trkpt lat="43.49615" lon="6.03316">
        <ele>183.27</ele>
        <time>2019-06-04T09:56:52Z</time>
      </trkpt>
      <trkpt lat="43.49618" lon="6.0333">
        <ele>182.79</ele>
        <time>2019-06-04T09:57:00Z</time>
      </trkpt>
      <trkpt lat="43.49618" lon="6.03336">
        <ele>182.79</ele>
        <time>2019-06-04T09:57:03Z</time>
      </trkpt>
      <trkpt lat="43.49622" lon="6.03349">
        <ele>182.31</ele>
        <time>2019-06-04T09:57:11Z</time>
      </trkpt>
      <trkpt lat="43.49623" lon="6.03366">
        <ele>182.31</ele>
        <time>2019-06-04T09:57:20Z</time>
      </trkpt>
      <trkpt lat="43.49624" lon="6.03381">
        <ele>182.31</ele>
        <time>2019-06-04T09:57:29Z</time>
      </trkpt>
      <trkpt lat="43.49622" lon="6.03401">
        <ele>181.83</ele>
        <time>2019-06-04T09:57:40Z</time>
      </trkpt>
      <trkpt lat="43.49622" lon="6.03407">
        <ele>181.83</ele>
        <time>2019-06-04T09:57:43Z</time>
      </trkpt>
      <trkpt lat="43.49618" lon="6.03417">
        <ele>181.83</ele>
        <time>2019-06-04T09:57:49Z</time>
      </trkpt>
      <trkpt lat="43.49619" lon="6.03437">
        <ele>181.83</ele>
        <time>2019-06-04T09:58:00Z</time>
      </trkpt>
      <trkpt lat="43.49619" lon="6.03445">
        <ele>181.83</ele>
        <time>2019-06-04T09:58:05Z</time>
      </trkpt>
      <trkpt lat="43.49618" lon="6.03463">
        <ele>181.83</ele>
        <time>2019-06-04T09:58:15Z</time>
      </trkpt>
      <trkpt lat="43.49619" lon="6.03471">
        <ele>181.83</ele>
        <time>2019-06-04T09:58:19Z</time>
      </trkpt>
      <trkpt lat="43.49615" lon="6.03487">
        <ele>181.83</ele>
        <time>2019-06-04T09:58:28Z</time>
      </trkpt>
      <trkpt lat="43.49615" lon="6.03505">
        <ele>181.35</ele>
        <time>2019-06-04T09:58:38Z</time>
      </trkpt>
      <trkpt lat="43.49613" lon="6.03529">
        <ele>181.35</ele>
        <time>2019-06-04T09:58:51Z</time>
      </trkpt>
      <trkpt lat="43.4961" lon="6.03546">
        <ele>180.87</ele>
        <time>2019-06-04T09:59:01Z</time>
      </trkpt>
      <trkpt lat="43.49606" lon="6.03555">
        <ele>180.87</ele>
        <time>2019-06-04T09:59:06Z</time>
      </trkpt>
      <trkpt lat="43.49605" lon="6.03558">
        <ele>180.87</ele>
        <time>2019-06-04T09:59:08Z</time>
      </trkpt>
      <trkpt lat="43.49604" lon="6.03562">
        <ele>180.38</ele>
        <time>2019-06-04T09:59:11Z</time>
      </trkpt>
      <trkpt lat="43.49604" lon="6.03566">
        <ele>180.38</ele>
        <time>2019-06-04T09:59:13Z</time>
      </trkpt>
      <trkpt lat="43.49599" lon="6.03585">
        <ele>180.38</ele>
        <time>2019-06-04T09:59:23Z</time>
      </trkpt>
      <trkpt lat="43.49597" lon="6.03598">
        <ele>180.38</ele>
        <time>2019-06-04T09:59:33Z</time>
      </trkpt>
      <trkpt lat="43.49597" lon="6.036">
        <ele>180.38</ele>
        <time>2019-06-04T09:59:34Z</time>
      </trkpt>
      <trkpt lat="43.49596" lon="6.03603">
        <ele>180.38</ele>
        <time>2019-06-04T09:59:36Z</time>
      </trkpt>
      <trkpt lat="43.49595" lon="6.03616">
        <ele>179.9</ele>
        <time>2019-06-04T09:59:43Z</time>
      </trkpt>
      <trkpt lat="43.49593" lon="6.0363">
        <ele>179.9</ele>
        <time>2019-06-04T09:59:50Z</time>
      </trkpt>
      <trkpt lat="43.49591" lon="6.03638">
        <ele>179.9</ele>
        <time>2019-06-04T09:59:54Z</time>
      </trkpt>
      <trkpt lat="43.4959" lon="6.03653">
        <ele>179.42</ele>
        <time>2019-06-04T10:00:03Z</time>
      </trkpt>
      <trkpt lat="43.49589" lon="6.0366">
        <ele>179.42</ele>
        <time>2019-06-04T10:00:07Z</time>
      </trkpt>
      <trkpt lat="43.49594" lon="6.03671">
        <ele>179.42</ele>
        <time>2019-06-04T10:00:13Z</time>
      </trkpt>
      <trkpt lat="43.49597" lon="6.03682">
        <ele>178.94</ele>
        <time>2019-06-04T10:00:19Z</time>
      </trkpt>
      <trkpt lat="43.49599" lon="6.03686">
        <ele>179.42</ele>
        <time>2019-06-04T10:00:21Z</time>
      </trkpt>
      <trkpt lat="43.49601" lon="6.03692">
        <ele>179.42</ele>
        <time>2019-06-04T10:00:25Z</time>
      </trkpt>
      <trkpt lat="43.49602" lon="6.03696">
        <ele>179.42</ele>
        <time>2019-06-04T10:00:27Z</time>
      </trkpt>
      <trkpt lat="43.49603" lon="6.03708">
        <ele>178.94</ele>
        <time>2019-06-04T10:00:34Z</time>
      </trkpt>
      <trkpt lat="43.49603" lon="6.03714">
        <ele>179.42</ele>
        <time>2019-06-04T10:00:37Z</time>
      </trkpt>
      <trkpt lat="43.49605" lon="6.03727">
        <ele>178.94</ele>
        <time>2019-06-04T10:00:44Z</time>
      </trkpt>
      <trkpt lat="43.49612" lon="6.0374">
        <ele>178.94</ele>
        <time>2019-06-04T10:00:54Z</time>
      </trkpt>
      <trkpt lat="43.49612" lon="6.03741">
        <ele>178.94</ele>
        <time>2019-06-04T10:00:55Z</time>
      </trkpt>
      <trkpt lat="43.4962" lon="6.03758">
        <ele>178.94</ele>
        <time>2019-06-04T10:01:05Z</time>
      </trkpt>
      <trkpt lat="43.49622" lon="6.0377">
        <ele>178.94</ele>
        <time>2019-06-04T10:01:12Z</time>
      </trkpt>
      <trkpt lat="43.49624" lon="6.03786">
        <ele>178.94</ele>
        <time>2019-06-04T10:01:20Z</time>
      </trkpt>
      <trkpt lat="43.49624" lon="6.03789">
        <ele>178.94</ele>
        <time>2019-06-04T10:01:22Z</time>
      </trkpt>
      <trkpt lat="43.49627" lon="6.03811">
        <ele>178.46</ele>
        <time>2019-06-04T10:01:35Z</time>
      </trkpt>
      <trkpt lat="43.49628" lon="6.0382">
        <ele>178.46</ele>
        <time>2019-06-04T10:01:41Z</time>
      </trkpt>
      <trkpt lat="43.49633" lon="6.03841">
        <ele>178.46</ele>
        <time>2019-06-04T10:01:53Z</time>
      </trkpt>
      <trkpt lat="43.49637" lon="6.03856">
        <ele>178.46</ele>
        <time>2019-06-04T10:02:01Z</time>
      </trkpt>
      <trkpt lat="43.49641" lon="6.03868">
        <ele>178.46</ele>
        <time>2019-06-04T10:02:08Z</time>
      </trkpt>
      <trkpt lat="43.49644" lon="6.0388">
        <ele>178.46</ele>
        <time>2019-06-04T10:02:14Z</time>
      </trkpt>
      <trkpt lat="43.49647" lon="6.03898">
        <ele>177.98</ele>
        <time>2019-06-04T10:02:25Z</time>
      </trkpt>
      <trkpt lat="43.4965" lon="6.0391">
        <ele>177.98</ele>
        <time>2019-06-04T10:02:33Z</time>
      </trkpt>
      <trkpt lat="43.49654" lon="6.03925">
        <ele>177.98</ele>
        <time>2019-06-04T10:02:45Z</time>
      </trkpt>
      <trkpt lat="43.49656" lon="6.03925">
        <ele>177.98</ele>
        <time>2019-06-04T10:03:05Z</time>
      </trkpt>
      <trkpt lat="43.49658" lon="6.03924">
        <ele>177.5</ele>
        <time>2019-06-04T10:03:31Z</time>
      </trkpt>
      <trkpt lat="43.49659" lon="6.03924">
        <ele>177.5</ele>
        <time>2019-06-04T10:03:56Z</time>
      </trkpt>
      <trkpt lat="43.49659" lon="6.03924">
        <ele>177.02</ele>
        <time>2019-06-04T10:04:10Z</time>
      </trkpt>
      <trkpt lat="43.4966" lon="6.03924">
        <ele>177.02</ele>
        <time>2019-06-04T10:04:37Z</time>
      </trkpt>
      <trkpt lat="43.49658" lon="6.03925">
        <ele>176.54</ele>
        <time>2019-06-04T10:05:02Z</time>
      </trkpt>
      <trkpt lat="43.49657" lon="6.03924">
        <ele>176.06</ele>
        <time>2019-06-04T10:05:20Z</time>
      </trkpt>
      <trkpt lat="43.49651" lon="6.03929">
        <ele>175.1</ele>
        <time>2019-06-04T10:05:26Z</time>
      </trkpt>
      <trkpt lat="43.49645" lon="6.03947">
        <ele>175.1</ele>
        <time>2019-06-04T10:05:39Z</time>
      </trkpt>
      <trkpt lat="43.49643" lon="6.03965">
        <ele>175.1</ele>
        <time>2019-06-04T10:05:51Z</time>
      </trkpt>
      <trkpt lat="43.49643" lon="6.03975">
        <ele>175.1</ele>
        <time>2019-06-04T10:06:01Z</time>
      </trkpt>
      <trkpt lat="43.49643" lon="6.03981">
        <ele>174.62</ele>
        <time>2019-06-04T10:06:04Z</time>
      </trkpt>
      <trkpt lat="43.49647" lon="6.03995">
        <ele>175.1</ele>
        <time>2019-06-04T10:06:11Z</time>
      </trkpt>
      <trkpt lat="43.49645" lon="6.04006">
        <ele>174.62</ele>
        <time>2019-06-04T10:06:16Z</time>
      </trkpt>
      <trkpt lat="43.49644" lon="6.04014">
        <ele>174.62</ele>
        <time>2019-06-04T10:06:21Z</time>
      </trkpt>
      <trkpt lat="43.49643" lon="6.04021">
        <ele>174.14</ele>
        <time>2019-06-04T10:06:25Z</time>
      </trkpt>
      <trkpt lat="43.49634" lon="6.04041">
        <ele>174.14</ele>
        <time>2019-06-04T10:06:36Z</time>
      </trkpt>
      <trkpt lat="43.49632" lon="6.04046">
        <ele>174.62</ele>
        <time>2019-06-04T10:06:40Z</time>
      </trkpt>
      <trkpt lat="43.49628" lon="6.04051">
        <ele>174.62</ele>
        <time>2019-06-04T10:06:43Z</time>
      </trkpt>
      <trkpt lat="43.49625" lon="6.04056">
        <ele>175.1</ele>
        <time>2019-06-04T10:06:47Z</time>
      </trkpt>
      <trkpt lat="43.49619" lon="6.04059">
        <ele>175.1</ele>
        <time>2019-06-04T10:06:51Z</time>
      </trkpt>
      <trkpt lat="43.49611" lon="6.04064">
        <ele>174.62</ele>
        <time>2019-06-04T10:07:03Z</time>
      </trkpt>
      <trkpt lat="43.49606" lon="6.04068">
        <ele>174.62</ele>
        <time>2019-06-04T10:07:08Z</time>
      </trkpt>
      <trkpt lat="43.49599" lon="6.0407">
        <ele>174.14</ele>
        <time>2019-06-04T10:07:13Z</time>
      </trkpt>
      <trkpt lat="43.49596" lon="6.04072">
        <ele>174.14</ele>
        <time>2019-06-04T10:07:15Z</time>
      </trkpt>
      <trkpt lat="43.49585" lon="6.04074">
        <ele>174.14</ele>
        <time>2019-06-04T10:07:26Z</time>
      </trkpt>
      <trkpt lat="43.49585" lon="6.04074">
        <ele>174.14</ele>
        <time>2019-06-04T10:07:27Z</time>
      </trkpt>
      <trkpt lat="43.49578" lon="6.04077">
        <ele>174.14</ele>
        <time>2019-06-04T10:07:32Z</time>
      </trkpt>
      <trkpt lat="43.49573" lon="6.04078">
        <ele>174.14</ele>
        <time>2019-06-04T10:07:35Z</time>
      </trkpt>
      <trkpt lat="43.49557" lon="6.04081">
        <ele>174.14</ele>
        <time>2019-06-04T10:07:46Z</time>
      </trkpt>
      <trkpt lat="43.49554" lon="6.04082">
        <ele>174.14</ele>
        <time>2019-06-04T10:07:50Z</time>
      </trkpt>
      <trkpt lat="43.49552" lon="6.04084">
        <ele>175.1</ele>
        <time>2019-06-04T10:07:52Z</time>
      </trkpt>
      <trkpt lat="43.49543" lon="6.04094">
        <ele>174.62</ele>
        <time>2019-06-04T10:08:01Z</time>
      </trkpt>
      <trkpt lat="43.49538" lon="6.04097">
        <ele>174.62</ele>
        <time>2019-06-04T10:08:10Z</time>
      </trkpt>
      <trkpt lat="43.49519" lon="6.04109">
        <ele>174.14</ele>
        <time>2019-06-04T10:08:21Z</time>
      </trkpt>
      <trkpt lat="43.49509" lon="6.04112">
        <ele>174.14</ele>
        <time>2019-06-04T10:08:30Z</time>
      </trkpt>
      <trkpt lat="43.49505" lon="6.04112">
        <ele>174.14</ele>
        <time>2019-06-04T10:08:33Z</time>
      </trkpt>
      <trkpt lat="43.49499" lon="6.04117">
        <ele>174.14</ele>
        <time>2019-06-04T10:08:41Z</time>
      </trkpt>
      <trkpt lat="43.49494" lon="6.04117">
        <ele>174.14</ele>
        <time>2019-06-04T10:08:44Z</time>
      </trkpt>
      <trkpt lat="43.4949" lon="6.04119">
        <ele>174.14</ele>
        <time>2019-06-04T10:08:47Z</time>
      </trkpt>
      <trkpt lat="43.49484" lon="6.0412">
        <ele>174.14</ele>
        <time>2019-06-04T10:08:52Z</time>
      </trkpt>
      <trkpt lat="43.49474" lon="6.04122">
        <ele>174.14</ele>
        <time>2019-06-04T10:08:59Z</time>
      </trkpt>
      <trkpt lat="43.4947" lon="6.04123">
        <ele>174.14</ele>
        <time>2019-06-04T10:09:02Z</time>
      </trkpt>
      <trkpt lat="43.4946" lon="6.04127">
        <ele>174.14</ele>
        <time>2019-06-04T10:09:09Z</time>
      </trkpt>
      <trkpt lat="43.49457" lon="6.04127">
        <ele>174.14</ele>
        <time>2019-06-04T10:09:12Z</time>
      </trkpt>
      <trkpt lat="43.49453" lon="6.04128">
        <ele>174.14</ele>
        <time>2019-06-04T10:09:15Z</time>
      </trkpt>
      <trkpt lat="43.4944" lon="6.0413">
        <ele>174.14</ele>
        <time>2019-06-04T10:09:25Z</time>
      </trkpt>
      <trkpt lat="43.49439" lon="6.0413">
        <ele>174.14</ele>
        <time>2019-06-04T10:09:27Z</time>
      </trkpt>
      <trkpt lat="43.49425" lon="6.04132">
        <ele>173.66</ele>
        <time>2019-06-04T10:09:36Z</time>
      </trkpt>
      <trkpt lat="43.4941" lon="6.04137">
        <ele>174.14</ele>
        <time>2019-06-04T10:09:46Z</time>
      </trkpt>
      <trkpt lat="43.49392" lon="6.04133">
        <ele>174.14</ele>
        <time>2019-06-04T10:09:57Z</time>
      </trkpt>
      <trkpt lat="43.49385" lon="6.04133">
        <ele>174.14</ele>
        <time>2019-06-04T10:10:02Z</time>
      </trkpt>
      <trkpt lat="43.49366" lon="6.04131">
        <ele>173.66</ele>
        <time>2019-06-04T10:10:14Z</time>
      </trkpt>
      <trkpt lat="43.49365" lon="6.04132">
        <ele>174.14</ele>
        <time>2019-06-04T10:10:15Z</time>
      </trkpt>
      <trkpt lat="43.49356" lon="6.04131">
        <ele>174.14</ele>
        <time>2019-06-04T10:10:21Z</time>
      </trkpt>
      <trkpt lat="43.49338" lon="6.04132">
        <ele>173.66</ele>
        <time>2019-06-04T10:10:32Z</time>
      </trkpt>
      <trkpt lat="43.49325" lon="6.04139">
        <ele>173.66</ele>
        <time>2019-06-04T10:10:43Z</time>
      </trkpt>
      <trkpt lat="43.49317" lon="6.04142">
        <ele>174.14</ele>
        <time>2019-06-04T10:10:52Z</time>
      </trkpt>
      <trkpt lat="43.49314" lon="6.04141">
        <ele>174.14</ele>
        <time>2019-06-04T10:10:54Z</time>
      </trkpt>
      <trkpt lat="43.4931" lon="6.04145">
        <ele>174.14</ele>
        <time>2019-06-04T10:10:59Z</time>
      </trkpt>
      <trkpt lat="43.49302" lon="6.04147">
        <ele>174.62</ele>
        <time>2019-06-04T10:11:11Z</time>
      </trkpt>
      <trkpt lat="43.49306" lon="6.0416">
        <ele>174.62</ele>
        <time>2019-06-04T10:11:33Z</time>
      </trkpt>
      <trkpt lat="43.49306" lon="6.04162">
        <ele>174.62</ele>
        <time>2019-06-04T10:11:50Z</time>
      </trkpt>
      <trkpt lat="43.49307" lon="6.04163">
        <ele>174.62</ele>
        <time>2019-06-04T10:12:08Z</time>
      </trkpt>
      <trkpt lat="43.49307" lon="6.04167">
        <ele>174.14</ele>
        <time>2019-06-04T10:12:23Z</time>
      </trkpt>
      <trkpt lat="43.49308" lon="6.04169">
        <ele>174.14</ele>
        <time>2019-06-04T10:12:38Z</time>
      </trkpt>
      <trkpt lat="43.49308" lon="6.04169">
        <ele>174.14</ele>
        <time>2019-06-04T10:12:59Z</time>
      </trkpt>
      <trkpt lat="43.49308" lon="6.0417">
        <ele>174.14</ele>
        <time>2019-06-04T10:13:19Z</time>
      </trkpt>
      <trkpt lat="43.49308" lon="6.04169">
        <ele>174.14</ele>
        <time>2019-06-04T10:13:37Z</time>
      </trkpt>
      <trkpt lat="43.493" lon="6.04167">
        <ele>174.14</ele>
        <time>2019-06-04T10:13:49Z</time>
      </trkpt>
      <trkpt lat="43.49301" lon="6.04165">
        <ele>174.14</ele>
        <time>2019-06-04T10:14:06Z</time>
      </trkpt>
      <trkpt lat="43.49302" lon="6.04166">
        <ele>173.66</ele>
        <time>2019-06-04T10:14:20Z</time>
      </trkpt>
      <trkpt lat="43.49302" lon="6.04166">
        <ele>173.66</ele>
        <time>2019-06-04T10:14:35Z</time>
      </trkpt>
      <trkpt lat="43.49303" lon="6.04168">
        <ele>173.66</ele>
        <time>2019-06-04T10:14:51Z</time>
      </trkpt>
      <trkpt lat="43.49304" lon="6.04171">
        <ele>173.66</ele>
        <time>2019-06-04T10:15:03Z</time>
      </trkpt>
      <trkpt lat="43.49315" lon="6.04175">
        <ele>173.66</ele>
        <time>2019-06-04T10:15:22Z</time>
      </trkpt>
      <trkpt lat="43.49314" lon="6.04175">
        <ele>173.66</ele>
        <time>2019-06-04T10:15:39Z</time>
      </trkpt>
      <trkpt lat="43.49313" lon="6.04176">
        <ele>173.66</ele>
        <time>2019-06-04T10:16:00Z</time>
      </trkpt>
      <trkpt lat="43.49312" lon="6.04176">
        <ele>173.66</ele>
        <time>2019-06-04T10:16:14Z</time>
      </trkpt>
      <trkpt lat="43.49312" lon="6.04176">
        <ele>173.66</ele>
        <time>2019-06-04T10:16:27Z</time>
      </trkpt>
      <trkpt lat="43.49312" lon="6.04175">
        <ele>173.66</ele>
        <time>2019-06-04T10:16:42Z</time>
      </trkpt>
      <trkpt lat="43.49312" lon="6.04173">
        <ele>174.14</ele>
        <time>2019-06-04T10:16:53Z</time>
      </trkpt>
      <trkpt lat="43.49312" lon="6.04173">
        <ele>173.66</ele>
        <time>2019-06-04T10:17:14Z</time>
      </trkpt>
      <trkpt lat="43.49312" lon="6.04172">
        <ele>174.14</ele>
        <time>2019-06-04T10:17:32Z</time>
      </trkpt>
      <trkpt lat="43.49311" lon="6.04172">
        <ele>174.14</ele>
        <time>2019-06-04T10:17:55Z</time>
      </trkpt>
      <trkpt lat="43.49311" lon="6.04173">
        <ele>174.62</ele>
        <time>2019-06-04T10:18:15Z</time>
      </trkpt>
      <trkpt lat="43.49311" lon="6.04172">
        <ele>174.14</ele>
        <time>2019-06-04T10:18:37Z</time>
      </trkpt>
      <trkpt lat="43.49311" lon="6.04171">
        <ele>174.14</ele>
        <time>2019-06-04T10:18:52Z</time>
      </trkpt>
      <trkpt lat="43.49307" lon="6.04173">
        <ele>173.66</ele>
        <time>2019-06-04T10:19:01Z</time>
      </trkpt>
      <trkpt lat="43.49304" lon="6.04173">
        <ele>173.66</ele>
        <time>2019-06-04T10:19:04Z</time>
      </trkpt>
      <trkpt lat="43.49301" lon="6.04173">
        <ele>173.66</ele>
        <time>2019-06-04T10:19:06Z</time>
      </trkpt>
      <trkpt lat="43.49286" lon="6.04172">
        <ele>174.14</ele>
        <time>2019-06-04T10:19:15Z</time>
      </trkpt>
      <trkpt lat="43.49282" lon="6.04171">
        <ele>174.14</ele>
        <time>2019-06-04T10:19:18Z</time>
      </trkpt>
      <trkpt lat="43.49267" lon="6.0417">
        <ele>174.14</ele>
        <time>2019-06-04T10:19:27Z</time>
      </trkpt>
      <trkpt lat="43.49259" lon="6.04172">
        <ele>174.14</ele>
        <time>2019-06-04T10:19:33Z</time>
      </trkpt>
      <trkpt lat="43.49248" lon="6.04173">
        <ele>174.14</ele>
        <time>2019-06-04T10:19:42Z</time>
      </trkpt>
      <trkpt lat="43.49247" lon="6.04173">
        <ele>174.62</ele>
        <time>2019-06-04T10:19:43Z</time>
      </trkpt>
      <trkpt lat="43.49243" lon="6.04172">
        <ele>174.14</ele>
        <time>2019-06-04T10:19:45Z</time>
      </trkpt>
      <trkpt lat="43.49231" lon="6.0417">
        <ele>175.1</ele>
        <time>2019-06-04T10:19:54Z</time>
      </trkpt>
      <trkpt lat="43.49228" lon="6.0417">
        <ele>174.14</ele>
        <time>2019-06-04T10:19:56Z</time>
      </trkpt>
      <trkpt lat="43.49215" lon="6.04174">
        <ele>174.14</ele>
        <time>2019-06-04T10:20:04Z</time>
      </trkpt>
      <trkpt lat="43.49204" lon="6.04174">
        <ele>174.14</ele>
        <time>2019-06-04T10:20:14Z</time>
      </trkpt>
      <trkpt lat="43.49194" lon="6.04176">
        <ele>174.14</ele>
        <time>2019-06-04T10:20:23Z</time>
      </trkpt>
      <trkpt lat="43.49194" lon="6.04176">
        <ele>174.14</ele>
        <time>2019-06-04T10:20:24Z</time>
      </trkpt>
      <trkpt lat="43.49187" lon="6.04181">
        <ele>174.14</ele>
        <time>2019-06-04T10:20:29Z</time>
      </trkpt>
      <trkpt lat="43.49182" lon="6.04186">
        <ele>174.14</ele>
        <time>2019-06-04T10:20:33Z</time>
      </trkpt>
      <trkpt lat="43.49176" lon="6.04193">
        <ele>175.1</ele>
        <time>2019-06-04T10:20:41Z</time>
      </trkpt>
      <trkpt lat="43.49174" lon="6.04195">
        <ele>175.1</ele>
        <time>2019-06-04T10:20:43Z</time>
      </trkpt>
      <trkpt lat="43.49165" lon="6.04201">
        <ele>174.62</ele>
        <time>2019-06-04T10:20:51Z</time>
      </trkpt>
      <trkpt lat="43.49154" lon="6.04216">
        <ele>175.1</ele>
        <time>2019-06-04T10:20:59Z</time>
      </trkpt>
      <trkpt lat="43.49146" lon="6.04225">
        <ele>175.1</ele>
        <time>2019-06-04T10:21:08Z</time>
      </trkpt>
      <trkpt lat="43.49145" lon="6.04234">
        <ele>175.58</ele>
        <time>2019-06-04T10:21:17Z</time>
      </trkpt>
      <trkpt lat="43.49145" lon="6.0424">
        <ele>176.06</ele>
        <time>2019-06-04T10:21:36Z</time>
      </trkpt>
      <trkpt lat="43.49143" lon="6.04242">
        <ele>176.06</ele>
        <time>2019-06-04T10:21:56Z</time>
      </trkpt>
      <trkpt lat="43.49136" lon="6.04243">
        <ele>176.06</ele>
        <time>2019-06-04T10:22:03Z</time>
      </trkpt>
      <trkpt lat="43.49128" lon="6.04245">
        <ele>175.58</ele>
        <time>2019-06-04T10:22:08Z</time>
      </trkpt>
      <trkpt lat="43.4912" lon="6.04246">
        <ele>176.06</ele>
        <time>2019-06-04T10:22:17Z</time>
      </trkpt>
      <trkpt lat="43.49119" lon="6.04247">
        <ele>175.58</ele>
        <time>2019-06-04T10:22:19Z</time>
      </trkpt>
      <trkpt lat="43.49119" lon="6.04251">
        <ele>175.58</ele>
        <time>2019-06-04T10:22:26Z</time>
      </trkpt>
      <trkpt lat="43.49114" lon="6.04246">
        <ele>175.1</ele>
        <time>2019-06-04T10:22:34Z</time>
      </trkpt>
      <trkpt lat="43.49113" lon="6.04245">
        <ele>175.1</ele>
        <time>2019-06-04T10:22:35Z</time>
      </trkpt>
      <trkpt lat="43.49111" lon="6.04242">
        <ele>174.62</ele>
        <time>2019-06-04T10:22:37Z</time>
      </trkpt>
      <trkpt lat="43.49105" lon="6.04245">
        <ele>173.66</ele>
        <time>2019-06-04T10:22:46Z</time>
      </trkpt>
      <trkpt lat="43.49103" lon="6.04244">
        <ele>173.66</ele>
        <time>2019-06-04T10:22:47Z</time>
      </trkpt>
      <trkpt lat="43.49095" lon="6.04242">
        <ele>173.66</ele>
        <time>2019-06-04T10:22:58Z</time>
      </trkpt>
      <trkpt lat="43.49094" lon="6.04241">
        <ele>173.66</ele>
        <time>2019-06-04T10:23:12Z</time>
      </trkpt>
      <trkpt lat="43.4909" lon="6.04245">
        <ele>173.66</ele>
        <time>2019-06-04T10:23:30Z</time>
      </trkpt>
      <trkpt lat="43.49085" lon="6.04243">
        <ele>173.66</ele>
        <time>2019-06-04T10:23:41Z</time>
      </trkpt>
      <trkpt lat="43.49087" lon="6.04247">
        <ele>174.14</ele>
        <time>2019-06-04T10:23:54Z</time>
      </trkpt>
      <trkpt lat="43.49085" lon="6.04249">
        <ele>173.66</ele>
        <time>2019-06-04T10:24:05Z</time>
      </trkpt>
      <trkpt lat="43.49086" lon="6.0425">
        <ele>174.14</ele>
        <time>2019-06-04T10:24:16Z</time>
      </trkpt>
      <trkpt lat="43.49086" lon="6.04251">
        <ele>174.14</ele>
        <time>2019-06-04T10:24:35Z</time>
      </trkpt>
      <trkpt lat="43.49081" lon="6.04253">
        <ele>174.14</ele>
        <time>2019-06-04T10:24:47Z</time>
      </trkpt>
      <trkpt lat="43.49075" lon="6.04256">
        <ele>175.1</ele>
        <time>2019-06-04T10:24:53Z</time>
      </trkpt>
      <trkpt lat="43.49072" lon="6.0426">
        <ele>175.58</ele>
        <time>2019-06-04T10:25:01Z</time>
      </trkpt>
      <trkpt lat="43.49072" lon="6.04266">
        <ele>176.06</ele>
        <time>2019-06-04T10:25:17Z</time>
      </trkpt>
      <trkpt lat="43.49072" lon="6.04259">
        <ele>174.14</ele>
        <time>2019-06-04T10:25:25Z</time>
      </trkpt>
      <trkpt lat="43.49076" lon="6.04256">
        <ele>174.14</ele>
        <time>2019-06-04T10:25:34Z</time>
      </trkpt>
      <trkpt lat="43.49076" lon="6.04254">
        <ele>174.14</ele>
        <time>2019-06-04T10:25:50Z</time>
      </trkpt>
      <trkpt lat="43.49073" lon="6.04253">
        <ele>174.14</ele>
        <time>2019-06-04T10:26:07Z</time>
      </trkpt>
      <trkpt lat="43.49069" lon="6.04251">
        <ele>174.62</ele>
        <time>2019-06-04T10:26:24Z</time>
      </trkpt>
      <trkpt lat="43.4907" lon="6.0425">
        <ele>174.14</ele>
        <time>2019-06-04T10:26:26Z</time>
      </trkpt>
      <trkpt lat="43.49063" lon="6.04249">
        <ele>174.14</ele>
        <time>2019-06-04T10:26:30Z</time>
      </trkpt>
      <trkpt lat="43.49057" lon="6.04249">
        <ele>173.66</ele>
        <time>2019-06-04T10:26:46Z</time>
      </trkpt>
      <trkpt lat="43.49069" lon="6.04251">
        <ele>173.66</ele>
        <time>2019-06-04T10:27:11Z</time>
      </trkpt>
      <trkpt lat="43.49071" lon="6.04253">
        <ele>173.66</ele>
        <time>2019-06-04T10:27:37Z</time>
      </trkpt>
      <trkpt lat="43.49071" lon="6.04251">
        <ele>173.17</ele>
        <time>2019-06-04T10:28:04Z</time>
      </trkpt>
      <trkpt lat="43.49073" lon="6.04249">
        <ele>173.17</ele>
        <time>2019-06-04T10:28:33Z</time>
      </trkpt>
      <trkpt lat="43.49073" lon="6.0425">
        <ele>173.17</ele>
        <time>2019-06-04T10:28:58Z</time>
      </trkpt>
      <trkpt lat="43.49074" lon="6.04251">
        <ele>173.17</ele>
        <time>2019-06-04T10:29:16Z</time>
      </trkpt>
      <trkpt lat="43.49076" lon="6.0425">
        <ele>173.17</ele>
        <time>2019-06-04T10:29:41Z</time>
      </trkpt>
      <trkpt lat="43.49077" lon="6.04253">
        <ele>173.17</ele>
        <time>2019-06-04T10:30:05Z</time>
      </trkpt>
      <trkpt lat="43.49081" lon="6.04253">
        <ele>173.17</ele>
        <time>2019-06-04T10:30:31Z</time>
      </trkpt>
      <trkpt lat="43.49082" lon="6.04253">
        <ele>173.66</ele>
        <time>2019-06-04T10:30:50Z</time>
      </trkpt>
      <trkpt lat="43.49082" lon="6.04253">
        <ele>173.66</ele>
        <time>2019-06-04T10:31:17Z</time>
      </trkpt>
      <trkpt lat="43.49083" lon="6.04254">
        <ele>173.66</ele>
        <time>2019-06-04T10:31:41Z</time>
      </trkpt>
      <trkpt lat="43.49084" lon="6.04253">
        <ele>173.66</ele>
        <time>2019-06-04T10:32:06Z</time>
      </trkpt>
      <trkpt lat="43.49083" lon="6.04253">
        <ele>174.14</ele>
        <time>2019-06-04T10:32:32Z</time>
      </trkpt>
      <trkpt lat="43.49083" lon="6.04254">
        <ele>174.14</ele>
        <time>2019-06-04T10:32:57Z</time>
      </trkpt>
      <trkpt lat="43.49082" lon="6.04253">
        <ele>174.14</ele>
        <time>2019-06-04T10:33:15Z</time>
      </trkpt>
      <trkpt lat="43.49085" lon="6.04252">
        <ele>174.14</ele>
        <time>2019-06-04T10:33:42Z</time>
      </trkpt>
      <trkpt lat="43.49086" lon="6.04251">
        <ele>174.14</ele>
        <time>2019-06-04T10:34:02Z</time>
      </trkpt>
      <trkpt lat="43.49085" lon="6.04254">
        <ele>174.62</ele>
        <time>2019-06-04T10:34:26Z</time>
      </trkpt>
      <trkpt lat="43.49085" lon="6.04254">
        <ele>174.62</ele>
        <time>2019-06-04T10:34:52Z</time>
      </trkpt>
      <trkpt lat="43.49086" lon="6.04255">
        <ele>174.62</ele>
        <time>2019-06-04T10:35:18Z</time>
      </trkpt>
      <trkpt lat="43.49088" lon="6.04255">
        <ele>174.62</ele>
        <time>2019-06-04T10:35:49Z</time>
      </trkpt>
      <trkpt lat="43.49089" lon="6.04255">
        <ele>174.62</ele>
        <time>2019-06-04T10:36:18Z</time>
      </trkpt>
      <trkpt lat="43.49089" lon="6.04255">
        <ele>175.1</ele>
        <time>2019-06-04T10:36:29Z</time>
      </trkpt>
      <trkpt lat="43.4909" lon="6.04253">
        <ele>175.1</ele>
        <time>2019-06-04T10:36:37Z</time>
      </trkpt>
      <trkpt lat="43.49089" lon="6.04253">
        <ele>175.1</ele>
        <time>2019-06-04T10:36:39Z</time>
      </trkpt>
      <trkpt lat="43.49079" lon="6.04254">
        <ele>176.06</ele>
        <time>2019-06-04T10:36:48Z</time>
      </trkpt>
      <trkpt lat="43.49076" lon="6.04255">
        <ele>176.54</ele>
        <time>2019-06-04T10:36:50Z</time>
      </trkpt>
      <trkpt lat="43.49068" lon="6.04265">
        <ele>177.02</ele>
        <time>2019-06-04T10:37:00Z</time>
      </trkpt>
      <trkpt lat="43.49072" lon="6.04274">
        <ele>176.54</ele>
        <time>2019-06-04T10:37:09Z</time>
      </trkpt>
      <trkpt lat="43.4908" lon="6.04272">
        <ele>177.02</ele>
        <time>2019-06-04T10:37:20Z</time>
      </trkpt>
      <trkpt lat="43.49079" lon="6.04269">
        <ele>176.54</ele>
        <time>2019-06-04T10:37:26Z</time>
      </trkpt>
      <trkpt lat="43.49076" lon="6.04268">
        <ele>176.54</ele>
        <time>2019-06-04T10:37:36Z</time>
      </trkpt>
      <trkpt lat="43.49079" lon="6.04269">
        <ele>176.54</ele>
        <time>2019-06-04T10:37:39Z</time>
      </trkpt>
      <trkpt lat="43.49082" lon="6.0427">
        <ele>176.54</ele>
        <time>2019-06-04T10:37:41Z</time>
      </trkpt>
      <trkpt lat="43.49093" lon="6.04274">
        <ele>176.54</ele>
        <time>2019-06-04T10:37:49Z</time>
      </trkpt>
      <trkpt lat="43.49098" lon="6.04264">
        <ele>177.5</ele>
        <time>2019-06-04T10:37:59Z</time>
      </trkpt>
      <trkpt lat="43.49098" lon="6.04262">
        <ele>177.5</ele>
        <time>2019-06-04T10:38:01Z</time>
      </trkpt>
      <trkpt lat="43.49098" lon="6.04252">
        <ele>176.54</ele>
        <time>2019-06-04T10:38:08Z</time>
      </trkpt>
      <trkpt lat="43.49099" lon="6.04246">
        <ele>176.06</ele>
        <time>2019-06-04T10:38:13Z</time>
      </trkpt>
      <trkpt lat="43.49097" lon="6.04235">
        <ele>175.1</ele>
        <time>2019-06-04T10:38:24Z</time>
      </trkpt>
      <trkpt lat="43.49097" lon="6.04236">
        <ele>175.1</ele>
        <time>2019-06-04T10:38:35Z</time>
      </trkpt>
      <trkpt lat="43.49086" lon="6.04234">
        <ele>175.58</ele>
        <time>2019-06-04T10:38:45Z</time>
      </trkpt>
      <trkpt lat="43.49086" lon="6.04232">
        <ele>175.58</ele>
        <time>2019-06-04T10:38:58Z</time>
      </trkpt>
      <trkpt lat="43.49082" lon="6.04234">
        <ele>175.58</ele>
        <time>2019-06-04T10:39:16Z</time>
      </trkpt>
      <trkpt lat="43.49079" lon="6.04237">
        <ele>175.58</ele>
        <time>2019-06-04T10:39:37Z</time>
      </trkpt>
      <trkpt lat="43.49076" lon="6.04235">
        <ele>175.1</ele>
        <time>2019-06-04T10:39:49Z</time>
      </trkpt>
      <trkpt lat="43.49076" lon="6.04237">
        <ele>175.58</ele>
        <time>2019-06-04T10:40:03Z</time>
      </trkpt>
      <trkpt lat="43.49073" lon="6.04241">
        <ele>175.58</ele>
        <time>2019-06-04T10:40:14Z</time>
      </trkpt>
      <trkpt lat="43.49072" lon="6.04246">
        <ele>176.06</ele>
        <time>2019-06-04T10:40:29Z</time>
      </trkpt>
      <trkpt lat="43.49071" lon="6.04249">
        <ele>176.06</ele>
        <time>2019-06-04T10:40:52Z</time>
      </trkpt>
      <trkpt lat="43.49071" lon="6.04248">
        <ele>176.06</ele>
        <time>2019-06-04T10:41:16Z</time>
      </trkpt>
      <trkpt lat="43.49069" lon="6.04246">
        <ele>176.06</ele>
        <time>2019-06-04T10:41:42Z</time>
      </trkpt>
      <trkpt lat="43.49071" lon="6.04242">
        <ele>176.06</ele>
        <time>2019-06-04T10:42:04Z</time>
      </trkpt>
      <trkpt lat="43.49074" lon="6.04239">
        <ele>176.54</ele>
        <time>2019-06-04T10:42:28Z</time>
      </trkpt>
      <trkpt lat="43.49072" lon="6.04241">
        <ele>176.54</ele>
        <time>2019-06-04T10:42:41Z</time>
      </trkpt>
      <trkpt lat="43.49073" lon="6.04243">
        <ele>176.06</ele>
        <time>2019-06-04T10:43:07Z</time>
      </trkpt>
      <trkpt lat="43.49071" lon="6.04243">
        <ele>176.06</ele>
        <time>2019-06-04T10:43:34Z</time>
      </trkpt>
      <trkpt lat="43.49071" lon="6.04243">
        <ele>176.06</ele>
        <time>2019-06-04T10:43:52Z</time>
      </trkpt>
      <trkpt lat="43.4907" lon="6.04245">
        <ele>176.06</ele>
        <time>2019-06-04T10:44:01Z</time>
      </trkpt>
      <trkpt lat="43.49069" lon="6.04245">
        <ele>176.06</ele>
        <time>2019-06-04T10:44:19Z</time>
      </trkpt>
      <trkpt lat="43.49066" lon="6.04243">
        <ele>176.06</ele>
        <time>2019-06-04T10:44:38Z</time>
      </trkpt>
      <trkpt lat="43.49063" lon="6.04241">
        <ele>176.06</ele>
        <time>2019-06-04T10:45:09Z</time>
      </trkpt>
      <trkpt lat="43.49061" lon="6.0424">
        <ele>176.06</ele>
        <time>2019-06-04T10:45:39Z</time>
      </trkpt>
      <trkpt lat="43.49061" lon="6.04239">
        <ele>176.06</ele>
        <time>2019-06-04T10:46:00Z</time>
      </trkpt>
      <trkpt lat="43.49062" lon="6.04239">
        <ele>176.06</ele>
        <time>2019-06-04T10:46:23Z</time>
      </trkpt>
      <trkpt lat="43.49063" lon="6.0424">
        <ele>175.58</ele>
        <time>2019-06-04T10:46:45Z</time>
      </trkpt>
      <trkpt lat="43.49063" lon="6.0424">
        <ele>175.1</ele>
        <time>2019-06-04T10:47:13Z</time>
      </trkpt>
      <trkpt lat="43.49062" lon="6.0424">
        <ele>175.1</ele>
        <time>2019-06-04T10:47:39Z</time>
      </trkpt>
      <trkpt lat="43.49062" lon="6.0424">
        <ele>175.58</ele>
        <time>2019-06-04T10:48:04Z</time>
      </trkpt>
      <trkpt lat="43.49062" lon="6.04239">
        <ele>175.58</ele>
        <time>2019-06-04T10:48:24Z</time>
      </trkpt>
      <trkpt lat="43.49062" lon="6.04238">
        <ele>175.58</ele>
        <time>2019-06-04T10:48:47Z</time>
      </trkpt>
      <trkpt lat="43.49061" lon="6.04234">
        <ele>175.1</ele>
        <time>2019-06-04T10:49:08Z</time>
      </trkpt>
      <trkpt lat="43.4906" lon="6.04235">
        <ele>175.1</ele>
        <time>2019-06-04T10:49:30Z</time>
      </trkpt>
      <trkpt lat="43.49059" lon="6.04234">
        <ele>175.1</ele>
        <time>2019-06-04T10:49:39Z</time>
      </trkpt>
      <trkpt lat="43.49059" lon="6.04236">
        <ele>176.06</ele>
        <time>2019-06-04T10:49:57Z</time>
      </trkpt>
      <trkpt lat="43.49058" lon="6.04236">
        <ele>175.1</ele>
        <time>2019-06-04T10:50:09Z</time>
      </trkpt>
      <trkpt lat="43.49058" lon="6.04237">
        <ele>175.1</ele>
        <time>2019-06-04T10:50:24Z</time>
      </trkpt>
      <trkpt lat="43.49062" lon="6.04242">
        <ele>175.1</ele>
        <time>2019-06-04T10:50:40Z</time>
      </trkpt>
      <trkpt lat="43.49056" lon="6.04241">
        <ele>175.1</ele>
        <time>2019-06-04T10:51:00Z</time>
      </trkpt>
      <trkpt lat="43.49052" lon="6.04244">
        <ele>174.62</ele>
        <time>2019-06-04T10:51:23Z</time>
      </trkpt>
      <trkpt lat="43.49051" lon="6.04246">
        <ele>174.62</ele>
        <time>2019-06-04T10:51:44Z</time>
      </trkpt>
      <trkpt lat="43.49052" lon="6.04248">
        <ele>174.62</ele>
        <time>2019-06-04T10:52:04Z</time>
      </trkpt>
      <trkpt lat="43.49053" lon="6.04247">
        <ele>174.62</ele>
        <time>2019-06-04T10:52:23Z</time>
      </trkpt>
      <trkpt lat="43.49057" lon="6.04245">
        <ele>174.62</ele>
        <time>2019-06-04T10:52:48Z</time>
      </trkpt>
      <trkpt lat="43.49056" lon="6.04242">
        <ele>174.62</ele>
        <time>2019-06-04T10:53:09Z</time>
      </trkpt>
      <trkpt lat="43.49056" lon="6.04242">
        <ele>174.14</ele>
        <time>2019-06-04T10:53:33Z</time>
      </trkpt>
      <trkpt lat="43.49057" lon="6.04242">
        <ele>174.14</ele>
        <time>2019-06-04T10:54:00Z</time>
      </trkpt>
      <trkpt lat="43.49057" lon="6.04239">
        <ele>174.14</ele>
        <time>2019-06-04T10:54:33Z</time>
      </trkpt>
      <trkpt lat="43.49056" lon="6.04239">
        <ele>174.14</ele>
        <time>2019-06-04T10:55:00Z</time>
      </trkpt>
      <trkpt lat="43.49055" lon="6.04239">
        <ele>174.14</ele>
        <time>2019-06-04T10:55:22Z</time>
      </trkpt>
      <trkpt lat="43.49054" lon="6.04241">
        <ele>174.14</ele>
        <time>2019-06-04T10:55:49Z</time>
      </trkpt>
      <trkpt lat="43.49053" lon="6.04241">
        <ele>173.66</ele>
        <time>2019-06-04T10:56:17Z</time>
      </trkpt>
      <trkpt lat="43.49054" lon="6.04239">
        <ele>173.66</ele>
        <time>2019-06-04T10:56:28Z</time>
      </trkpt>
      <trkpt lat="43.49052" lon="6.04237">
        <ele>173.66</ele>
        <time>2019-06-04T10:56:49Z</time>
      </trkpt>
      <trkpt lat="43.49052" lon="6.04241">
        <ele>173.66</ele>
        <time>2019-06-04T10:57:18Z</time>
      </trkpt>
      <trkpt lat="43.49053" lon="6.04241">
        <ele>173.66</ele>
        <time>2019-06-04T10:57:39Z</time>
      </trkpt>
      <trkpt lat="43.49053" lon="6.04242">
        <ele>173.66</ele>
        <time>2019-06-04T10:57:59Z</time>
      </trkpt>
      <trkpt lat="43.49054" lon="6.04241">
        <ele>173.17</ele>
        <time>2019-06-04T10:58:25Z</time>
      </trkpt>
      <trkpt lat="43.49053" lon="6.04241">
        <ele>173.17</ele>
        <time>2019-06-04T10:58:41Z</time>
      </trkpt>
      <trkpt lat="43.49054" lon="6.0424">
        <ele>173.17</ele>
        <time>2019-06-04T10:59:04Z</time>
      </trkpt>
      <trkpt lat="43.49055" lon="6.04239">
        <ele>173.17</ele>
        <time>2019-06-04T10:59:28Z</time>
      </trkpt>
      <trkpt lat="43.49062" lon="6.0424">
        <ele>172.69</ele>
        <time>2019-06-04T10:59:45Z</time>
      </trkpt>
      <trkpt lat="43.4907" lon="6.04241">
        <ele>172.69</ele>
        <time>2019-06-04T11:00:02Z</time>
      </trkpt>
      <trkpt lat="43.49086" lon="6.04239">
        <ele>173.17</ele>
        <time>2019-06-04T11:00:27Z</time>
      </trkpt>
      <trkpt lat="43.49072" lon="6.04241">
        <ele>173.17</ele>
        <time>2019-06-04T11:00:50Z</time>
      </trkpt>
      <trkpt lat="43.49065" lon="6.04243">
        <ele>173.17</ele>
        <time>2019-06-04T11:01:10Z</time>
      </trkpt>
      <trkpt lat="43.49068" lon="6.04243">
        <ele>173.17</ele>
        <time>2019-06-04T11:01:24Z</time>
      </trkpt>
      <trkpt lat="43.49074" lon="6.04245">
        <ele>173.17</ele>
        <time>2019-06-04T11:01:41Z</time>
      </trkpt>
      <trkpt lat="43.49074" lon="6.04253">
        <ele>173.66</ele>
        <time>2019-06-04T11:02:02Z</time>
      </trkpt>
      <trkpt lat="43.49071" lon="6.04247">
        <ele>173.17</ele>
        <time>2019-06-04T11:02:16Z</time>
      </trkpt>
      <trkpt lat="43.49069" lon="6.04247">
        <ele>173.17</ele>
        <time>2019-06-04T11:02:26Z</time>
      </trkpt>
      <trkpt lat="43.49065" lon="6.04245">
        <ele>173.66</ele>
        <time>2019-06-04T11:02:39Z</time>
      </trkpt>
      <trkpt lat="43.49064" lon="6.04243">
        <ele>173.66</ele>
        <time>2019-06-04T11:02:57Z</time>
      </trkpt>
      <trkpt lat="43.49066" lon="6.04243">
        <ele>173.66</ele>
        <time>2019-06-04T11:03:11Z</time>
      </trkpt>
      <trkpt lat="43.49067" lon="6.04244">
        <ele>173.66</ele>
        <time>2019-06-04T11:03:20Z</time>
      </trkpt>
      <trkpt lat="43.49067" lon="6.04245">
        <ele>173.66</ele>
        <time>2019-06-04T11:03:36Z</time>
      </trkpt>
      <trkpt lat="43.49071" lon="6.0424">
        <ele>173.66</ele>
        <time>2019-06-04T11:03:54Z</time>
      </trkpt>
      <trkpt lat="43.49068" lon="6.0424">
        <ele>173.66</ele>
        <time>2019-06-04T11:04:04Z</time>
      </trkpt>
      <trkpt lat="43.49067" lon="6.04237">
        <ele>174.14</ele>
        <time>2019-06-04T11:04:25Z</time>
      </trkpt>
      <trkpt lat="43.49067" lon="6.04238">
        <ele>174.14</ele>
        <time>2019-06-04T11:04:43Z</time>
      </trkpt>
      <trkpt lat="43.49066" lon="6.04238">
        <ele>174.14</ele>
        <time>2019-06-04T11:05:04Z</time>
      </trkpt>
      <trkpt lat="43.49066" lon="6.0424">
        <ele>174.14</ele>
        <time>2019-06-04T11:05:29Z</time>
      </trkpt>
      <trkpt lat="43.49062" lon="6.04243">
        <ele>174.14</ele>
        <time>2019-06-04T11:05:50Z</time>
      </trkpt>
      <trkpt lat="43.49062" lon="6.04242">
        <ele>174.62</ele>
        <time>2019-06-04T11:06:06Z</time>
      </trkpt>
      <trkpt lat="43.49063" lon="6.04241">
        <ele>174.62</ele>
        <time>2019-06-04T11:06:28Z</time>
      </trkpt>
      <trkpt lat="43.49063" lon="6.0424">
        <ele>174.62</ele>
        <time>2019-06-04T11:06:44Z</time>
      </trkpt>
      <trkpt lat="43.49061" lon="6.04241">
        <ele>174.62</ele>
        <time>2019-06-04T11:07:09Z</time>
      </trkpt>
      <trkpt lat="43.49058" lon="6.04243">
        <ele>174.14</ele>
        <time>2019-06-04T11:07:35Z</time>
      </trkpt>
      <trkpt lat="43.49057" lon="6.04243">
        <ele>174.62</ele>
        <time>2019-06-04T11:07:55Z</time>
      </trkpt>
      <trkpt lat="43.49056" lon="6.04244">
        <ele>174.62</ele>
        <time>2019-06-04T11:08:15Z</time>
      </trkpt>
      <trkpt lat="43.49056" lon="6.04246">
        <ele>174.62</ele>
        <time>2019-06-04T11:08:37Z</time>
      </trkpt>
      <trkpt lat="43.49054" lon="6.04248">
        <ele>174.62</ele>
        <time>2019-06-04T11:08:56Z</time>
      </trkpt>
      <trkpt lat="43.49055" lon="6.04249">
        <ele>174.62</ele>
        <time>2019-06-04T11:09:16Z</time>
      </trkpt>
      <trkpt lat="43.49055" lon="6.0425">
        <ele>174.62</ele>
        <time>2019-06-04T11:09:37Z</time>
      </trkpt>
      <trkpt lat="43.49056" lon="6.0425">
        <ele>174.14</ele>
        <time>2019-06-04T11:09:58Z</time>
      </trkpt>
      <trkpt lat="43.49057" lon="6.04251">
        <ele>174.14</ele>
        <time>2019-06-04T11:10:16Z</time>
      </trkpt>
      <trkpt lat="43.49055" lon="6.0426">
        <ele>174.14</ele>
        <time>2019-06-04T11:10:33Z</time>
      </trkpt>
      <trkpt lat="43.49057" lon="6.04256">
        <ele>174.14</ele>
        <time>2019-06-04T11:10:57Z</time>
      </trkpt>
      <trkpt lat="43.4906" lon="6.04266">
        <ele>174.14</ele>
        <time>2019-06-04T11:11:17Z</time>
      </trkpt>
      <trkpt lat="43.4906" lon="6.04261">
        <ele>174.14</ele>
        <time>2019-06-04T11:11:29Z</time>
      </trkpt>
      <trkpt lat="43.49067" lon="6.04253">
        <ele>175.1</ele>
        <time>2019-06-04T11:11:38Z</time>
      </trkpt>
      <trkpt lat="43.49067" lon="6.04251">
        <ele>175.1</ele>
        <time>2019-06-04T11:11:40Z</time>
      </trkpt>
      <trkpt lat="43.49072" lon="6.04247">
        <ele>176.06</ele>
        <time>2019-06-04T11:11:47Z</time>
      </trkpt>
      <trkpt lat="43.49073" lon="6.04249">
        <ele>176.54</ele>
        <time>2019-06-04T11:11:53Z</time>
      </trkpt>
      <trkpt lat="43.49075" lon="6.0425">
        <ele>175.1</ele>
        <time>2019-06-04T11:12:04Z</time>
      </trkpt>
      <trkpt lat="43.49073" lon="6.04256">
        <ele>175.58</ele>
        <time>2019-06-04T11:12:14Z</time>
      </trkpt>
      <trkpt lat="43.49086" lon="6.04254">
        <ele>176.06</ele>
        <time>2019-06-04T11:12:22Z</time>
      </trkpt>
      <trkpt lat="43.49086" lon="6.04254">
        <ele>176.06</ele>
        <time>2019-06-04T11:12:32Z</time>
      </trkpt>
      <trkpt lat="43.49084" lon="6.04253">
        <ele>175.58</ele>
        <time>2019-06-04T11:12:56Z</time>
      </trkpt>
      <trkpt lat="43.49086" lon="6.04255">
        <ele>176.06</ele>
        <time>2019-06-04T11:13:11Z</time>
      </trkpt>
      <trkpt lat="43.4909" lon="6.04252">
        <ele>175.58</ele>
        <time>2019-06-04T11:13:31Z</time>
      </trkpt>
      <trkpt lat="43.49093" lon="6.04264">
        <ele>176.06</ele>
        <time>2019-06-04T11:13:43Z</time>
      </trkpt>
      <trkpt lat="43.49103" lon="6.04277">
        <ele>176.54</ele>
        <time>2019-06-04T11:13:54Z</time>
      </trkpt>
      <trkpt lat="43.49116" lon="6.04289">
        <ele>177.02</ele>
        <time>2019-06-04T11:14:06Z</time>
      </trkpt>
      <trkpt lat="43.49119" lon="6.04297">
        <ele>177.5</ele>
        <time>2019-06-04T11:14:18Z</time>
      </trkpt>
      <trkpt lat="43.49116" lon="6.04302">
        <ele>177.5</ele>
        <time>2019-06-04T11:14:30Z</time>
      </trkpt>
      <trkpt lat="43.49115" lon="6.04311">
        <ele>177.5</ele>
        <time>2019-06-04T11:14:37Z</time>
      </trkpt>
      <trkpt lat="43.49121" lon="6.04321">
        <ele>177.02</ele>
        <time>2019-06-04T11:14:47Z</time>
      </trkpt>
      <trkpt lat="43.49119" lon="6.04329">
        <ele>177.02</ele>
        <time>2019-06-04T11:14:58Z</time>
      </trkpt>
      <trkpt lat="43.49131" lon="6.04338">
        <ele>176.54</ele>
        <time>2019-06-04T11:15:11Z</time>
      </trkpt>
      <trkpt lat="43.49135" lon="6.04348">
        <ele>176.06</ele>
        <time>2019-06-04T11:15:21Z</time>
      </trkpt>
      <trkpt lat="43.49136" lon="6.04355">
        <ele>176.06</ele>
        <time>2019-06-04T11:15:30Z</time>
      </trkpt>
      <trkpt lat="43.49138" lon="6.04361">
        <ele>176.06</ele>
        <time>2019-06-04T11:15:40Z</time>
      </trkpt>
      <trkpt lat="43.49139" lon="6.04363">
        <ele>175.58</ele>
        <time>2019-06-04T11:15:57Z</time>
      </trkpt>
      <trkpt lat="43.49141" lon="6.04377">
        <ele>175.1</ele>
        <time>2019-06-04T11:16:07Z</time>
      </trkpt>
      <trkpt lat="43.49144" lon="6.04386">
        <ele>175.1</ele>
        <time>2019-06-04T11:16:24Z</time>
      </trkpt>
      <trkpt lat="43.49149" lon="6.04393">
        <ele>175.1</ele>
        <time>2019-06-04T11:16:34Z</time>
      </trkpt>
      <trkpt lat="43.49157" lon="6.04399">
        <ele>174.62</ele>
        <time>2019-06-04T11:16:47Z</time>
      </trkpt>
      <trkpt lat="43.49157" lon="6.04402">
        <ele>174.62</ele>
        <time>2019-06-04T11:17:06Z</time>
      </trkpt>
      <trkpt lat="43.49168" lon="6.04405">
        <ele>174.14</ele>
        <time>2019-06-04T11:17:20Z</time>
      </trkpt>
      <trkpt lat="43.49174" lon="6.04405">
        <ele>174.14</ele>
        <time>2019-06-04T11:17:36Z</time>
      </trkpt>
      <trkpt lat="43.49179" lon="6.04403">
        <ele>174.62</ele>
        <time>2019-06-04T11:17:48Z</time>
      </trkpt>
      <trkpt lat="43.49181" lon="6.04405">
        <ele>174.14</ele>
        <time>2019-06-04T11:17:57Z</time>
      </trkpt>
      <trkpt lat="43.49183" lon="6.04407">
        <ele>173.66</ele>
        <time>2019-06-04T11:18:10Z</time>
      </trkpt>
      <trkpt lat="43.49191" lon="6.04413">
        <ele>173.66</ele>
        <time>2019-06-04T11:18:20Z</time>
      </trkpt>
      <trkpt lat="43.49191" lon="6.04413">
        <ele>173.66</ele>
        <time>2019-06-04T11:18:32Z</time>
      </trkpt>
      <trkpt lat="43.4919" lon="6.04415">
        <ele>173.17</ele>
        <time>2019-06-04T11:18:55Z</time>
      </trkpt>
      <trkpt lat="43.4919" lon="6.04412">
        <ele>173.17</ele>
        <time>2019-06-04T11:19:06Z</time>
      </trkpt>
      <trkpt lat="43.4919" lon="6.04409">
        <ele>173.17</ele>
        <time>2019-06-04T11:19:24Z</time>
      </trkpt>
      <trkpt lat="43.4919" lon="6.04408">
        <ele>173.17</ele>
        <time>2019-06-04T11:19:45Z</time>
      </trkpt>
      <trkpt lat="43.49192" lon="6.04407">
        <ele>173.17</ele>
        <time>2019-06-04T11:19:59Z</time>
      </trkpt>
      <trkpt lat="43.49192" lon="6.04404">
        <ele>173.66</ele>
        <time>2019-06-04T11:20:14Z</time>
      </trkpt>
      <trkpt lat="43.49191" lon="6.04404">
        <ele>173.66</ele>
        <time>2019-06-04T11:20:29Z</time>
      </trkpt>
      <trkpt lat="43.49191" lon="6.04405">
        <ele>173.66</ele>
        <time>2019-06-04T11:20:47Z</time>
      </trkpt>
      <trkpt lat="43.49191" lon="6.04404">
        <ele>172.69</ele>
        <time>2019-06-04T11:21:09Z</time>
      </trkpt>
      <trkpt lat="43.49193" lon="6.04403">
        <ele>173.17</ele>
        <time>2019-06-04T11:21:18Z</time>
      </trkpt>
      <trkpt lat="43.49195" lon="6.04405">
        <ele>173.66</ele>
        <time>2019-06-04T11:21:30Z</time>
      </trkpt>
      <trkpt lat="43.49195" lon="6.04406">
        <ele>174.14</ele>
        <time>2019-06-04T11:21:46Z</time>
      </trkpt>
      <trkpt lat="43.49197" lon="6.04403">
        <ele>175.1</ele>
        <time>2019-06-04T11:22:00Z</time>
      </trkpt>
      <trkpt lat="43.49196" lon="6.04401">
        <ele>174.14</ele>
        <time>2019-06-04T11:22:18Z</time>
      </trkpt>
      <trkpt lat="43.49197" lon="6.04401">
        <ele>174.14</ele>
        <time>2019-06-04T11:22:35Z</time>
      </trkpt>
      <trkpt lat="43.49197" lon="6.04403">
        <ele>174.62</ele>
        <time>2019-06-04T11:22:52Z</time>
      </trkpt>
      <trkpt lat="43.49196" lon="6.04403">
        <ele>175.1</ele>
        <time>2019-06-04T11:23:10Z</time>
      </trkpt>
      <trkpt lat="43.49197" lon="6.04401">
        <ele>174.62</ele>
        <time>2019-06-04T11:23:23Z</time>
      </trkpt>
      <trkpt lat="43.49197" lon="6.044">
        <ele>174.62</ele>
        <time>2019-06-04T11:23:53Z</time>
      </trkpt>
      <trkpt lat="43.49197" lon="6.044">
        <ele>171.25</ele>
        <time>2019-06-04T11:23:56Z</time>
      </trkpt>
      <trkpt lat="43.49197" lon="6.04401">
        <ele>178.46</ele>
        <time>2019-06-04T11:23:57Z</time>
      </trkpt>
      <trkpt lat="43.49197" lon="6.04401">
        <ele>175.1</ele>
        <time>2019-06-04T11:23:58Z</time>
      </trkpt>
      <trkpt lat="43.49197" lon="6.04399">
        <ele>175.1</ele>
        <time>2019-06-04T11:24:15Z</time>
      </trkpt>
      <trkpt lat="43.49197" lon="6.04397">
        <ele>175.1</ele>
        <time>2019-06-04T11:24:36Z</time>
      </trkpt>
      <trkpt lat="43.49197" lon="6.04397">
        <ele>175.1</ele>
        <time>2019-06-04T11:24:45Z</time>
      </trkpt>
      <trkpt lat="43.49198" lon="6.04395">
        <ele>175.1</ele>
        <time>2019-06-04T11:24:58Z</time>
      </trkpt>
      <trkpt lat="43.49199" lon="6.04393">
        <ele>176.54</ele>
        <time>2019-06-04T11:25:08Z</time>
      </trkpt>
      <trkpt lat="43.49197" lon="6.04391">
        <ele>177.02</ele>
        <time>2019-06-04T11:25:20Z</time>
      </trkpt>
      <trkpt lat="43.492" lon="6.04391">
        <ele>176.54</ele>
        <time>2019-06-04T11:25:23Z</time>
      </trkpt>
      <trkpt lat="43.49209" lon="6.04387">
        <ele>176.54</ele>
        <time>2019-06-04T11:25:33Z</time>
      </trkpt>
      <trkpt lat="43.49223" lon="6.04382">
        <ele>176.54</ele>
        <time>2019-06-04T11:25:46Z</time>
      </trkpt>
      <trkpt lat="43.4923" lon="6.04384">
        <ele>176.54</ele>
        <time>2019-06-04T11:25:53Z</time>
      </trkpt>
      <trkpt lat="43.49233" lon="6.04386">
        <ele>176.54</ele>
        <time>2019-06-04T11:25:56Z</time>
      </trkpt>
      <trkpt lat="43.49237" lon="6.04391">
        <ele>177.02</ele>
        <time>2019-06-04T11:26:01Z</time>
      </trkpt>
      <trkpt lat="43.49247" lon="6.04387">
        <ele>176.54</ele>
        <time>2019-06-04T11:26:08Z</time>
      </trkpt>
      <trkpt lat="43.49251" lon="6.04392">
        <ele>176.06</ele>
        <time>2019-06-04T11:26:13Z</time>
      </trkpt>
      <trkpt lat="43.49257" lon="6.04394">
        <ele>175.58</ele>
        <time>2019-06-04T11:26:22Z</time>
      </trkpt>
      <trkpt lat="43.49263" lon="6.04398">
        <ele>175.58</ele>
        <time>2019-06-04T11:26:31Z</time>
      </trkpt>
      <trkpt lat="43.49272" lon="6.04405">
        <ele>175.1</ele>
        <time>2019-06-04T11:26:41Z</time>
      </trkpt>
      <trkpt lat="43.49279" lon="6.0441">
        <ele>175.58</ele>
        <time>2019-06-04T11:26:51Z</time>
      </trkpt>
      <trkpt lat="43.49286" lon="6.04416">
        <ele>175.1</ele>
        <time>2019-06-04T11:27:01Z</time>
      </trkpt>
      <trkpt lat="43.49286" lon="6.04415">
        <ele>175.1</ele>
        <time>2019-06-04T11:27:02Z</time>
      </trkpt>
      <trkpt lat="43.49291" lon="6.04419">
        <ele>175.1</ele>
        <time>2019-06-04T11:27:11Z</time>
      </trkpt>
      <trkpt lat="43.49294" lon="6.04422">
        <ele>175.1</ele>
        <time>2019-06-04T11:27:18Z</time>
      </trkpt>
      <trkpt lat="43.49298" lon="6.04423">
        <ele>175.1</ele>
        <time>2019-06-04T11:27:25Z</time>
      </trkpt>
      <trkpt lat="43.49306" lon="6.04427">
        <ele>175.1</ele>
        <time>2019-06-04T11:27:32Z</time>
      </trkpt>
      <trkpt lat="43.4931" lon="6.04437">
        <ele>174.62</ele>
        <time>2019-06-04T11:27:44Z</time>
      </trkpt>
      <trkpt lat="43.49311" lon="6.0444">
        <ele>174.62</ele>
        <time>2019-06-04T11:27:47Z</time>
      </trkpt>
      <trkpt lat="43.49313" lon="6.04447">
        <ele>174.62</ele>
        <time>2019-06-04T11:27:53Z</time>
      </trkpt>
      <trkpt lat="43.49316" lon="6.04455">
        <ele>174.62</ele>
        <time>2019-06-04T11:28:02Z</time>
      </trkpt>
      <trkpt lat="43.49318" lon="6.04464">
        <ele>174.14</ele>
        <time>2019-06-04T11:28:11Z</time>
      </trkpt>
      <trkpt lat="43.4932" lon="6.04473">
        <ele>174.14</ele>
        <time>2019-06-04T11:28:21Z</time>
      </trkpt>
      <trkpt lat="43.4932" lon="6.04483">
        <ele>174.14</ele>
        <time>2019-06-04T11:28:28Z</time>
      </trkpt>
      <trkpt lat="43.49325" lon="6.04496">
        <ele>174.14</ele>
        <time>2019-06-04T11:28:37Z</time>
      </trkpt>
      <trkpt lat="43.49325" lon="6.04505">
        <ele>174.14</ele>
        <time>2019-06-04T11:28:47Z</time>
      </trkpt>
      <trkpt lat="43.49322" lon="6.04513">
        <ele>174.14</ele>
        <time>2019-06-04T11:28:57Z</time>
      </trkpt>
      <trkpt lat="43.49323" lon="6.04523">
        <ele>174.14</ele>
        <time>2019-06-04T11:29:06Z</time>
      </trkpt>
      <trkpt lat="43.49325" lon="6.04535">
        <ele>174.14</ele>
        <time>2019-06-04T11:29:15Z</time>
      </trkpt>
      <trkpt lat="43.49323" lon="6.04546">
        <ele>174.62</ele>
        <time>2019-06-04T11:29:25Z</time>
      </trkpt>
      <trkpt lat="43.49324" lon="6.04562">
        <ele>174.14</ele>
        <time>2019-06-04T11:29:34Z</time>
      </trkpt>
      <trkpt lat="43.49328" lon="6.04574">
        <ele>174.14</ele>
        <time>2019-06-04T11:29:44Z</time>
      </trkpt>
      <trkpt lat="43.49328" lon="6.04609">
        <ele>174.62</ele>
        <time>2019-06-04T11:29:54Z</time>
      </trkpt>
      <trkpt lat="43.49329" lon="6.04618">
        <ele>174.62</ele>
        <time>2019-06-04T11:30:05Z</time>
      </trkpt>
      <trkpt lat="43.49326" lon="6.04638">
        <ele>174.62</ele>
        <time>2019-06-04T11:30:17Z</time>
      </trkpt>
      <trkpt lat="43.49331" lon="6.04653">
        <ele>174.62</ele>
        <time>2019-06-04T11:30:27Z</time>
      </trkpt>
      <trkpt lat="43.49328" lon="6.04661">
        <ele>174.62</ele>
        <time>2019-06-04T11:30:37Z</time>
      </trkpt>
      <trkpt lat="43.49327" lon="6.04674">
        <ele>174.62</ele>
        <time>2019-06-04T11:30:46Z</time>
      </trkpt>
      <trkpt lat="43.49326" lon="6.04685">
        <ele>174.14</ele>
        <time>2019-06-04T11:30:56Z</time>
      </trkpt>
      <trkpt lat="43.49324" lon="6.04692">
        <ele>174.14</ele>
        <time>2019-06-04T11:31:02Z</time>
      </trkpt>
      <trkpt lat="43.4932" lon="6.04707">
        <ele>174.14</ele>
        <time>2019-06-04T11:31:13Z</time>
      </trkpt>
      <trkpt lat="43.4932" lon="6.04719">
        <ele>174.14</ele>
        <time>2019-06-04T11:31:28Z</time>
      </trkpt>
      <trkpt lat="43.49319" lon="6.04733">
        <ele>174.14</ele>
        <time>2019-06-04T11:31:52Z</time>
      </trkpt>
      <trkpt lat="43.49318" lon="6.04731">
        <ele>174.14</ele>
        <time>2019-06-04T11:32:15Z</time>
      </trkpt>
      <trkpt lat="43.49318" lon="6.04733">
        <ele>173.66</ele>
        <time>2019-06-04T11:32:34Z</time>
      </trkpt>
      <trkpt lat="43.49318" lon="6.04733">
        <ele>173.66</ele>
        <time>2019-06-04T11:33:00Z</time>
      </trkpt>
      <trkpt lat="43.49315" lon="6.04736">
        <ele>173.66</ele>
        <time>2019-06-04T11:33:16Z</time>
      </trkpt>
      <trkpt lat="43.49313" lon="6.0474">
        <ele>173.66</ele>
        <time>2019-06-04T11:33:25Z</time>
      </trkpt>
      <trkpt lat="43.49312" lon="6.04744">
        <ele>173.66</ele>
        <time>2019-06-04T11:33:31Z</time>
      </trkpt>
      <trkpt lat="43.49306" lon="6.04755">
        <ele>174.14</ele>
        <time>2019-06-04T11:33:41Z</time>
      </trkpt>
      <trkpt lat="43.493" lon="6.04767">
        <ele>173.66</ele>
        <time>2019-06-04T11:33:50Z</time>
      </trkpt>
      <trkpt lat="43.49296" lon="6.04778">
        <ele>173.66</ele>
        <time>2019-06-04T11:34:00Z</time>
      </trkpt>
      <trkpt lat="43.49293" lon="6.04782">
        <ele>174.14</ele>
        <time>2019-06-04T11:34:09Z</time>
      </trkpt>
      <trkpt lat="43.49287" lon="6.04794">
        <ele>174.14</ele>
        <time>2019-06-04T11:34:19Z</time>
      </trkpt>
      <trkpt lat="43.4928" lon="6.04804">
        <ele>174.62</ele>
        <time>2019-06-04T11:34:29Z</time>
      </trkpt>
      <trkpt lat="43.49274" lon="6.04818">
        <ele>174.14</ele>
        <time>2019-06-04T11:34:40Z</time>
      </trkpt>
      <trkpt lat="43.4927" lon="6.04829">
        <ele>174.14</ele>
        <time>2019-06-04T11:34:48Z</time>
      </trkpt>
      <trkpt lat="43.49272" lon="6.04845">
        <ele>174.14</ele>
        <time>2019-06-04T11:34:57Z</time>
      </trkpt>
      <trkpt lat="43.49273" lon="6.04857">
        <ele>174.62</ele>
        <time>2019-06-04T11:35:06Z</time>
      </trkpt>
      <trkpt lat="43.49272" lon="6.04875">
        <ele>174.14</ele>
        <time>2019-06-04T11:35:16Z</time>
      </trkpt>
      <trkpt lat="43.49268" lon="6.04898">
        <ele>173.66</ele>
        <time>2019-06-04T11:35:27Z</time>
      </trkpt>
      <trkpt lat="43.49267" lon="6.04907">
        <ele>173.17</ele>
        <time>2019-06-04T11:35:38Z</time>
      </trkpt>
      <trkpt lat="43.49266" lon="6.04909">
        <ele>172.69</ele>
        <time>2019-06-04T11:35:47Z</time>
      </trkpt>
      <trkpt lat="43.49268" lon="6.0491">
        <ele>172.21</ele>
        <time>2019-06-04T11:35:55Z</time>
      </trkpt>
      <trkpt lat="43.49266" lon="6.04913">
        <ele>172.21</ele>
        <time>2019-06-04T11:36:08Z</time>
      </trkpt>
      <trkpt lat="43.49266" lon="6.04914">
        <ele>172.21</ele>
        <time>2019-06-04T11:36:18Z</time>
      </trkpt>
      <trkpt lat="43.49268" lon="6.04914">
        <ele>172.21</ele>
        <time>2019-06-04T11:36:35Z</time>
      </trkpt>
      <trkpt lat="43.49268" lon="6.04916">
        <ele>172.21</ele>
        <time>2019-06-04T11:36:50Z</time>
      </trkpt>
      <trkpt lat="43.49269" lon="6.04918">
        <ele>172.69</ele>
        <time>2019-06-04T11:37:11Z</time>
      </trkpt>
      <trkpt lat="43.4927" lon="6.04918">
        <ele>171.73</ele>
        <time>2019-06-04T11:37:26Z</time>
      </trkpt>
      <trkpt lat="43.49268" lon="6.04916">
        <ele>171.73</ele>
        <time>2019-06-04T11:37:42Z</time>
      </trkpt>
      <trkpt lat="43.49268" lon="6.04915">
        <ele>171.73</ele>
        <time>2019-06-04T11:38:00Z</time>
      </trkpt>
      <trkpt lat="43.49267" lon="6.04915">
        <ele>172.21</ele>
        <time>2019-06-04T11:38:21Z</time>
      </trkpt>
      <trkpt lat="43.49267" lon="6.04914">
        <ele>172.21</ele>
        <time>2019-06-04T11:38:38Z</time>
      </trkpt>
      <trkpt lat="43.49266" lon="6.04914">
        <ele>172.21</ele>
        <time>2019-06-04T11:38:57Z</time>
      </trkpt>
      <trkpt lat="43.49267" lon="6.04916">
        <ele>172.21</ele>
        <time>2019-06-04T11:39:17Z</time>
      </trkpt>
      <trkpt lat="43.49269" lon="6.04914">
        <ele>172.69</ele>
        <time>2019-06-04T11:39:39Z</time>
      </trkpt>
      <trkpt lat="43.4927" lon="6.04914">
        <ele>173.66</ele>
        <time>2019-06-04T11:39:47Z</time>
      </trkpt>
      <trkpt lat="43.49271" lon="6.0492">
        <ele>173.17</ele>
        <time>2019-06-04T11:40:03Z</time>
      </trkpt>
      <trkpt lat="43.4927" lon="6.04931">
        <ele>173.66</ele>
        <time>2019-06-04T11:40:14Z</time>
      </trkpt>
      <trkpt lat="43.49276" lon="6.0493">
        <ele>173.66</ele>
        <time>2019-06-04T11:40:27Z</time>
      </trkpt>
      <trkpt lat="43.49279" lon="6.0492">
        <ele>173.66</ele>
        <time>2019-06-04T11:40:40Z</time>
      </trkpt>
      <trkpt lat="43.4928" lon="6.04918">
        <ele>173.66</ele>
        <time>2019-06-04T11:40:53Z</time>
      </trkpt>
      <trkpt lat="43.49279" lon="6.04917">
        <ele>173.66</ele>
        <time>2019-06-04T11:41:08Z</time>
      </trkpt>
      <trkpt lat="43.49279" lon="6.04921">
        <ele>173.17</ele>
        <time>2019-06-04T11:41:23Z</time>
      </trkpt>
      <trkpt lat="43.49279" lon="6.0492">
        <ele>173.17</ele>
        <time>2019-06-04T11:41:39Z</time>
      </trkpt>
      <trkpt lat="43.49278" lon="6.0492">
        <ele>173.66</ele>
        <time>2019-06-04T11:41:58Z</time>
      </trkpt>
      <trkpt lat="43.49278" lon="6.0492">
        <ele>173.66</ele>
        <time>2019-06-04T11:42:16Z</time>
      </trkpt>
      <trkpt lat="43.49281" lon="6.04915">
        <ele>174.14</ele>
        <time>2019-06-04T11:42:26Z</time>
      </trkpt>
      <trkpt lat="43.49282" lon="6.04914">
        <ele>174.62</ele>
        <time>2019-06-04T11:42:34Z</time>
      </trkpt>
      <trkpt lat="43.49284" lon="6.04913">
        <ele>175.1</ele>
        <time>2019-06-04T11:42:43Z</time>
      </trkpt>
      <trkpt lat="43.49287" lon="6.04911">
        <ele>176.54</ele>
        <time>2019-06-04T11:42:52Z</time>
      </trkpt>
      <trkpt lat="43.49288" lon="6.04911">
        <ele>177.02</ele>
        <time>2019-06-04T11:43:01Z</time>
      </trkpt>
      <trkpt lat="43.4929" lon="6.04912">
        <ele>177.02</ele>
        <time>2019-06-04T11:43:10Z</time>
      </trkpt>
      <trkpt lat="43.49295" lon="6.04915">
        <ele>177.02</ele>
        <time>2019-06-04T11:43:20Z</time>
      </trkpt>
      <trkpt lat="43.49299" lon="6.04917">
        <ele>177.5</ele>
        <time>2019-06-04T11:43:29Z</time>
      </trkpt>
      <trkpt lat="43.49305" lon="6.04917">
        <ele>177.5</ele>
        <time>2019-06-04T11:43:36Z</time>
      </trkpt>
      <trkpt lat="43.49314" lon="6.04918">
        <ele>177.02</ele>
        <time>2019-06-04T11:43:45Z</time>
      </trkpt>
      <trkpt lat="43.4932" lon="6.04921">
        <ele>177.02</ele>
        <time>2019-06-04T11:43:54Z</time>
      </trkpt>
      <trkpt lat="43.49326" lon="6.04921">
        <ele>177.02</ele>
        <time>2019-06-04T11:44:05Z</time>
      </trkpt>
      <trkpt lat="43.49331" lon="6.0492">
        <ele>177.02</ele>
        <time>2019-06-04T11:44:16Z</time>
      </trkpt>
      <trkpt lat="43.49336" lon="6.04921">
        <ele>177.02</ele>
        <time>2019-06-04T11:44:37Z</time>
      </trkpt>
      <trkpt lat="43.49339" lon="6.04917">
        <ele>177.02</ele>
        <time>2019-06-04T11:44:59Z</time>
      </trkpt>
      <trkpt lat="43.49342" lon="6.04918">
        <ele>177.02</ele>
        <time>2019-06-04T11:45:16Z</time>
      </trkpt>
      <trkpt lat="43.49345" lon="6.04925">
        <ele>177.5</ele>
        <time>2019-06-04T11:45:25Z</time>
      </trkpt>
      <trkpt lat="43.49346" lon="6.0493">
        <ele>177.5</ele>
        <time>2019-06-04T11:45:31Z</time>
      </trkpt>
      <trkpt lat="43.49347" lon="6.04936">
        <ele>177.5</ele>
        <time>2019-06-04T11:45:36Z</time>
      </trkpt>
      <trkpt lat="43.49355" lon="6.04945">
        <ele>177.5</ele>
        <time>2019-06-04T11:45:49Z</time>
      </trkpt>
      <trkpt lat="43.49357" lon="6.04947">
        <ele>177.5</ele>
        <time>2019-06-04T11:45:51Z</time>
      </trkpt>
      <trkpt lat="43.49363" lon="6.04955">
        <ele>177.02</ele>
        <time>2019-06-04T11:46:00Z</time>
      </trkpt>
      <trkpt lat="43.49366" lon="6.04959">
        <ele>177.02</ele>
        <time>2019-06-04T11:46:08Z</time>
      </trkpt>
      <trkpt lat="43.49374" lon="6.04961">
        <ele>177.02</ele>
        <time>2019-06-04T11:46:19Z</time>
      </trkpt>
      <trkpt lat="43.49374" lon="6.04962">
        <ele>177.02</ele>
        <time>2019-06-04T11:46:20Z</time>
      </trkpt>
      <trkpt lat="43.49377" lon="6.04972">
        <ele>177.02</ele>
        <time>2019-06-04T11:46:29Z</time>
      </trkpt>
      <trkpt lat="43.49381" lon="6.04989">
        <ele>177.02</ele>
        <time>2019-06-04T11:46:40Z</time>
      </trkpt>
      <trkpt lat="43.49381" lon="6.0499">
        <ele>177.02</ele>
        <time>2019-06-04T11:46:41Z</time>
      </trkpt>
      <trkpt lat="43.49382" lon="6.05007">
        <ele>177.02</ele>
        <time>2019-06-04T11:46:46Z</time>
      </trkpt>
      <trkpt lat="43.49389" lon="6.05018">
        <ele>177.02</ele>
        <time>2019-06-04T11:46:57Z</time>
      </trkpt>
      <trkpt lat="43.49391" lon="6.05026">
        <ele>177.02</ele>
        <time>2019-06-04T11:47:06Z</time>
      </trkpt>
      <trkpt lat="43.49392" lon="6.05028">
        <ele>176.54</ele>
        <time>2019-06-04T11:47:07Z</time>
      </trkpt>
      <trkpt lat="43.49397" lon="6.05041">
        <ele>176.54</ele>
        <time>2019-06-04T11:47:17Z</time>
      </trkpt>
      <trkpt lat="43.49404" lon="6.05046">
        <ele>176.54</ele>
        <time>2019-06-04T11:47:25Z</time>
      </trkpt>
      <trkpt lat="43.49415" lon="6.0505">
        <ele>176.54</ele>
        <time>2019-06-04T11:47:35Z</time>
      </trkpt>
      <trkpt lat="43.49417" lon="6.05055">
        <ele>176.54</ele>
        <time>2019-06-04T11:47:40Z</time>
      </trkpt>
      <trkpt lat="43.49426" lon="6.05066">
        <ele>176.54</ele>
        <time>2019-06-04T11:47:50Z</time>
      </trkpt>
      <trkpt lat="43.49433" lon="6.05072">
        <ele>176.54</ele>
        <time>2019-06-04T11:47:59Z</time>
      </trkpt>
      <trkpt lat="43.49444" lon="6.05088">
        <ele>176.54</ele>
        <time>2019-06-04T11:48:13Z</time>
      </trkpt>
      <trkpt lat="43.49448" lon="6.05097">
        <ele>176.54</ele>
        <time>2019-06-04T11:48:21Z</time>
      </trkpt>
      <trkpt lat="43.49455" lon="6.05109">
        <ele>176.54</ele>
        <time>2019-06-04T11:48:30Z</time>
      </trkpt>
      <trkpt lat="43.49464" lon="6.05113">
        <ele>176.54</ele>
        <time>2019-06-04T11:48:41Z</time>
      </trkpt>
      <trkpt lat="43.49474" lon="6.05116">
        <ele>176.54</ele>
        <time>2019-06-04T11:48:50Z</time>
      </trkpt>
      <trkpt lat="43.49483" lon="6.05121">
        <ele>176.54</ele>
        <time>2019-06-04T11:48:59Z</time>
      </trkpt>
      <trkpt lat="43.49489" lon="6.05128">
        <ele>175.58</ele>
        <time>2019-06-04T11:49:06Z</time>
      </trkpt>
      <trkpt lat="43.49489" lon="6.05133">
        <ele>175.58</ele>
        <time>2019-06-04T11:49:15Z</time>
      </trkpt>
      <trkpt lat="43.49486" lon="6.05139">
        <ele>175.1</ele>
        <time>2019-06-04T11:49:25Z</time>
      </trkpt>
      <trkpt lat="43.49482" lon="6.05145">
        <ele>174.62</ele>
        <time>2019-06-04T11:49:32Z</time>
      </trkpt>
      <trkpt lat="43.49482" lon="6.05151">
        <ele>174.62</ele>
        <time>2019-06-04T11:49:38Z</time>
      </trkpt>
      <trkpt lat="43.49483" lon="6.05155">
        <ele>174.62</ele>
        <time>2019-06-04T11:49:41Z</time>
      </trkpt>
      <trkpt lat="43.49485" lon="6.05158">
        <ele>174.62</ele>
        <time>2019-06-04T11:49:43Z</time>
      </trkpt>
      <trkpt lat="43.49493" lon="6.0517">
        <ele>174.62</ele>
        <time>2019-06-04T11:49:53Z</time>
      </trkpt>
      <trkpt lat="43.49498" lon="6.05178">
        <ele>174.62</ele>
        <time>2019-06-04T11:50:02Z</time>
      </trkpt>
      <trkpt lat="43.49506" lon="6.05191">
        <ele>174.62</ele>
        <time>2019-06-04T11:50:12Z</time>
      </trkpt>
      <trkpt lat="43.49511" lon="6.052">
        <ele>174.62</ele>
        <time>2019-06-04T11:50:34Z</time>
      </trkpt>
      <trkpt lat="43.49509" lon="6.05202">
        <ele>174.14</ele>
        <time>2019-06-04T11:50:43Z</time>
      </trkpt>
      <trkpt lat="43.4951" lon="6.05206">
        <ele>174.14</ele>
        <time>2019-06-04T11:50:54Z</time>
      </trkpt>
      <trkpt lat="43.49511" lon="6.05206">
        <ele>174.62</ele>
        <time>2019-06-04T11:51:07Z</time>
      </trkpt>
      <trkpt lat="43.49514" lon="6.05206">
        <ele>174.62</ele>
        <time>2019-06-04T11:51:20Z</time>
      </trkpt>
      <trkpt lat="43.49516" lon="6.05208">
        <ele>175.1</ele>
        <time>2019-06-04T11:51:29Z</time>
      </trkpt>
      <trkpt lat="43.49516" lon="6.05205">
        <ele>175.1</ele>
        <time>2019-06-04T11:51:42Z</time>
      </trkpt>
      <trkpt lat="43.49522" lon="6.05198">
        <ele>175.1</ele>
        <time>2019-06-04T11:51:52Z</time>
      </trkpt>
      <trkpt lat="43.49529" lon="6.05188">
        <ele>175.58</ele>
        <time>2019-06-04T11:52:01Z</time>
      </trkpt>
      <trkpt lat="43.49538" lon="6.05185">
        <ele>175.58</ele>
        <time>2019-06-04T11:52:13Z</time>
      </trkpt>
      <trkpt lat="43.49548" lon="6.0519">
        <ele>175.1</ele>
        <time>2019-06-04T11:52:24Z</time>
      </trkpt>
      <trkpt lat="43.49557" lon="6.05188">
        <ele>175.58</ele>
        <time>2019-06-04T11:52:33Z</time>
      </trkpt>
      <trkpt lat="43.49568" lon="6.05191">
        <ele>175.1</ele>
        <time>2019-06-04T11:52:43Z</time>
      </trkpt>
      <trkpt lat="43.49571" lon="6.05188">
        <ele>175.58</ele>
        <time>2019-06-04T11:52:53Z</time>
      </trkpt>
      <trkpt lat="43.49575" lon="6.05183">
        <ele>175.58</ele>
        <time>2019-06-04T11:53:09Z</time>
      </trkpt>
      <trkpt lat="43.49578" lon="6.05181">
        <ele>176.06</ele>
        <time>2019-06-04T11:53:22Z</time>
      </trkpt>
      <trkpt lat="43.49581" lon="6.05178">
        <ele>176.06</ele>
        <time>2019-06-04T11:53:38Z</time>
      </trkpt>
      <trkpt lat="43.49583" lon="6.05177">
        <ele>176.06</ele>
        <time>2019-06-04T11:53:57Z</time>
      </trkpt>
      <trkpt lat="43.49583" lon="6.05181">
        <ele>176.06</ele>
        <time>2019-06-04T11:54:06Z</time>
      </trkpt>
      <trkpt lat="43.49589" lon="6.05188">
        <ele>176.06</ele>
        <time>2019-06-04T11:54:13Z</time>
      </trkpt>
      <trkpt lat="43.49596" lon="6.05198">
        <ele>176.06</ele>
        <time>2019-06-04T11:54:23Z</time>
      </trkpt>
      <trkpt lat="43.49602" lon="6.05205">
        <ele>176.06</ele>
        <time>2019-06-04T11:54:33Z</time>
      </trkpt>
      <trkpt lat="43.49606" lon="6.05209">
        <ele>176.06</ele>
        <time>2019-06-04T11:54:45Z</time>
      </trkpt>
      <trkpt lat="43.4961" lon="6.05216">
        <ele>176.06</ele>
        <time>2019-06-04T11:54:56Z</time>
      </trkpt>
      <trkpt lat="43.49611" lon="6.05221">
        <ele>176.06</ele>
        <time>2019-06-04T11:55:03Z</time>
      </trkpt>
      <trkpt lat="43.49617" lon="6.05231">
        <ele>176.06</ele>
        <time>2019-06-04T11:55:13Z</time>
      </trkpt>
      <trkpt lat="43.49623" lon="6.05237">
        <ele>176.54</ele>
        <time>2019-06-04T11:55:24Z</time>
      </trkpt>
      <trkpt lat="43.49628" lon="6.0524">
        <ele>177.02</ele>
        <time>2019-06-04T11:55:31Z</time>
      </trkpt>
      <trkpt lat="43.49633" lon="6.05245">
        <ele>177.02</ele>
        <time>2019-06-04T11:55:39Z</time>
      </trkpt>
      <trkpt lat="43.49638" lon="6.05252">
        <ele>177.5</ele>
        <time>2019-06-04T11:55:47Z</time>
      </trkpt>
      <trkpt lat="43.49643" lon="6.05261">
        <ele>177.02</ele>
        <time>2019-06-04T11:55:55Z</time>
      </trkpt>
      <trkpt lat="43.49645" lon="6.05266">
        <ele>177.02</ele>
        <time>2019-06-04T11:55:58Z</time>
      </trkpt>
      <trkpt lat="43.49648" lon="6.05274">
        <ele>177.02</ele>
        <time>2019-06-04T11:56:06Z</time>
      </trkpt>
      <trkpt lat="43.49651" lon="6.05276">
        <ele>177.02</ele>
        <time>2019-06-04T11:56:08Z</time>
      </trkpt>
      <trkpt lat="43.49656" lon="6.05284">
        <ele>176.06</ele>
        <time>2019-06-04T11:56:14Z</time>
      </trkpt>
      <trkpt lat="43.49662" lon="6.05295">
        <ele>176.06</ele>
        <time>2019-06-04T11:56:23Z</time>
      </trkpt>
      <trkpt lat="43.49662" lon="6.05296">
        <ele>176.06</ele>
        <time>2019-06-04T11:56:24Z</time>
      </trkpt>
      <trkpt lat="43.49667" lon="6.0531">
        <ele>176.06</ele>
        <time>2019-06-04T11:56:36Z</time>
      </trkpt>
      <trkpt lat="43.49671" lon="6.05321">
        <ele>175.58</ele>
        <time>2019-06-04T11:56:46Z</time>
      </trkpt>
      <trkpt lat="43.49674" lon="6.05329">
        <ele>175.58</ele>
        <time>2019-06-04T11:56:54Z</time>
      </trkpt>
      <trkpt lat="43.49677" lon="6.05333">
        <ele>175.58</ele>
        <time>2019-06-04T11:57:04Z</time>
      </trkpt>
      <trkpt lat="43.49682" lon="6.05333">
        <ele>175.1</ele>
        <time>2019-06-04T11:57:19Z</time>
      </trkpt>
      <trkpt lat="43.49688" lon="6.05337">
        <ele>175.1</ele>
        <time>2019-06-04T11:57:43Z</time>
      </trkpt>
      <trkpt lat="43.49687" lon="6.0534">
        <ele>173.66</ele>
        <time>2019-06-04T11:57:54Z</time>
      </trkpt>
      <trkpt lat="43.49686" lon="6.05343">
        <ele>173.66</ele>
        <time>2019-06-04T11:57:57Z</time>
      </trkpt>
      <trkpt lat="43.4968" lon="6.05356">
        <ele>174.14</ele>
        <time>2019-06-04T11:58:07Z</time>
      </trkpt>
      <trkpt lat="43.49677" lon="6.05364">
        <ele>174.14</ele>
        <time>2019-06-04T11:58:13Z</time>
      </trkpt>
      <trkpt lat="43.49672" lon="6.05379">
        <ele>174.14</ele>
        <time>2019-06-04T11:58:23Z</time>
      </trkpt>
      <trkpt lat="43.49668" lon="6.05387">
        <ele>173.66</ele>
        <time>2019-06-04T11:58:30Z</time>
      </trkpt>
      <trkpt lat="43.49666" lon="6.05396">
        <ele>173.66</ele>
        <time>2019-06-04T11:58:35Z</time>
      </trkpt>
      <trkpt lat="43.49662" lon="6.05412">
        <ele>173.66</ele>
        <time>2019-06-04T11:58:45Z</time>
      </trkpt>
      <trkpt lat="43.4966" lon="6.05424">
        <ele>173.17</ele>
        <time>2019-06-04T11:58:53Z</time>
      </trkpt>
      <trkpt lat="43.49656" lon="6.05437">
        <ele>173.66</ele>
        <time>2019-06-04T11:59:02Z</time>
      </trkpt>
      <trkpt lat="43.49655" lon="6.05443">
        <ele>173.17</ele>
        <time>2019-06-04T11:59:07Z</time>
      </trkpt>
      <trkpt lat="43.49654" lon="6.05448">
        <ele>173.17</ele>
        <time>2019-06-04T11:59:10Z</time>
      </trkpt>
      <trkpt lat="43.49652" lon="6.05464">
        <ele>172.69</ele>
        <time>2019-06-04T11:59:21Z</time>
      </trkpt>
      <trkpt lat="43.49651" lon="6.05471">
        <ele>172.69</ele>
        <time>2019-06-04T11:59:26Z</time>
      </trkpt>
      <trkpt lat="43.49647" lon="6.05478">
        <ele>172.69</ele>
        <time>2019-06-04T11:59:32Z</time>
      </trkpt>
      <trkpt lat="43.49646" lon="6.05483">
        <ele>172.69</ele>
        <time>2019-06-04T11:59:36Z</time>
      </trkpt>
      <trkpt lat="43.49643" lon="6.05496">
        <ele>172.69</ele>
        <time>2019-06-04T11:59:46Z</time>
      </trkpt>
      <trkpt lat="43.49645" lon="6.05504">
        <ele>172.69</ele>
        <time>2019-06-04T11:59:56Z</time>
      </trkpt>
      <trkpt lat="43.4965" lon="6.05517">
        <ele>172.69</ele>
        <time>2019-06-04T12:00:04Z</time>
      </trkpt>
      <trkpt lat="43.49654" lon="6.05524">
        <ele>172.69</ele>
        <time>2019-06-04T12:00:12Z</time>
      </trkpt>
      <trkpt lat="43.49659" lon="6.05532">
        <ele>172.21</ele>
        <time>2019-06-04T12:00:22Z</time>
      </trkpt>
      <trkpt lat="43.49663" lon="6.05536">
        <ele>171.73</ele>
        <time>2019-06-04T12:00:36Z</time>
      </trkpt>
      <trkpt lat="43.49663" lon="6.05537">
        <ele>171.73</ele>
        <time>2019-06-04T12:00:50Z</time>
      </trkpt>
      <trkpt lat="43.49662" lon="6.05539">
        <ele>171.25</ele>
        <time>2019-06-04T12:01:02Z</time>
      </trkpt>
      <trkpt lat="43.49664" lon="6.05542">
        <ele>171.73</ele>
        <time>2019-06-04T12:01:11Z</time>
      </trkpt>
      <trkpt lat="43.49665" lon="6.05545">
        <ele>171.25</ele>
        <time>2019-06-04T12:01:25Z</time>
      </trkpt>
      <trkpt lat="43.49665" lon="6.05546">
        <ele>171.25</ele>
        <time>2019-06-04T12:01:44Z</time>
      </trkpt>
      <trkpt lat="43.49665" lon="6.0555">
        <ele>170.77</ele>
        <time>2019-06-04T12:02:07Z</time>
      </trkpt>
      <trkpt lat="43.49665" lon="6.0555">
        <ele>170.77</ele>
        <time>2019-06-04T12:02:28Z</time>
      </trkpt>
      <trkpt lat="43.49665" lon="6.0555">
        <ele>170.77</ele>
        <time>2019-06-04T12:02:41Z</time>
      </trkpt>
      <trkpt lat="43.49665" lon="6.0555">
        <ele>170.29</ele>
        <time>2019-06-04T12:02:55Z</time>
      </trkpt>
      <trkpt lat="43.49665" lon="6.05549">
        <ele>170.29</ele>
        <time>2019-06-04T12:03:15Z</time>
      </trkpt>
      <trkpt lat="43.49665" lon="6.05549">
        <ele>170.29</ele>
        <time>2019-06-04T12:03:27Z</time>
      </trkpt>
      <trkpt lat="43.49666" lon="6.05549">
        <ele>170.77</ele>
        <time>2019-06-04T12:03:40Z</time>
      </trkpt>
      <trkpt lat="43.49666" lon="6.05549">
        <ele>174.62</ele>
        <time>2019-06-04T12:03:42Z</time>
      </trkpt>
      <trkpt lat="43.49666" lon="6.05549">
        <ele>170.77</ele>
        <time>2019-06-04T12:03:43Z</time>
      </trkpt>
      <trkpt lat="43.49666" lon="6.05549">
        <ele>165</ele>
        <time>2019-06-04T12:03:44Z</time>
      </trkpt>
      <trkpt lat="43.49666" lon="6.05549">
        <ele>172.21</ele>
        <time>2019-06-04T12:03:45Z</time>
      </trkpt>
      <trkpt lat="43.49666" lon="6.05549">
        <ele>176.06</ele>
        <time>2019-06-04T12:03:47Z</time>
      </trkpt>
      <trkpt lat="43.49666" lon="6.05549">
        <ele>170.77</ele>
        <time>2019-06-04T12:03:48Z</time>
      </trkpt>
      <trkpt lat="43.49666" lon="6.05549">
        <ele>170.77</ele>
        <time>2019-06-04T12:04:09Z</time>
      </trkpt>
      <trkpt lat="43.49666" lon="6.05548">
        <ele>169.81</ele>
        <time>2019-06-04T12:04:17Z</time>
      </trkpt>
    </trkseg>
  </trk>
</gpx>